[[{"header":{"parameterUnit":"m.s-1","parameterCategory":1,"la1":31.0,"la2":29.5877,"lo1":-88.7671,"lo2":-86.6584,"dy":0.0162,"dx":0.0185,"nx":115,"ny":88,"refTime":"2023-11-18T18:00:00:Z","depth":0,"parameterNumber":2,"parameterNumberName":"U-component_of_WINDS"},"data":[0.0,0.0,0.0,0.0,0.0,0.0,0.0,0.0,0.0,0.0,0.0,0.0,0.0,0.0,0.0,0.0,0.0,0.0,0.0,0.0,0.0,0.0,0.0,0.0,0.0,0.0,0.0,0.0,0.0,0.0,0.0,0.0,0.0,0.0,0.0,0.0,0.0,0.0,0.0,0.0,0.0,0.0,0.0,0.0,0.0,0.0,0.0,0.0,0.0,0.0,0.0,0.0,0.0,0.0,0.0,0.0,0.0,0.0,0.0,0.0,0.0,0.0,0.0,0.0,0.0,0.0,0.0,0.0,0.0,0.0,0.0,0.0,0.0,0.0,0.0,0.0,0.0,0.0,0.0,0.0,0.0,0.0,0.0,0.0,0.0,0.0,0.0,0.0,0.0,0.0,0.0,0.0,0.0,0.0,0.0,0.0,0.0,0.0,0.0,0.0,0.0,0.0,0.0,0.0,0.0,0.0,0.0,0.0,0.0,0.0,0.0,0.0,0.0,0.0,0.0,0.0,0.0,0.0,0.0,0.0,0.0,0.0,0.0,0.0,0.0,0.0,0.0,0.0,0.0,0.0,0.0,0.0,0.0,0.0,0.0,0.0,0.0,0.0,0.0,0.0,0.0,0.0,0.0,0.0,0.0,0.0,0.0,0.0,0.0,0.0,0.0,0.0,0.0,0.0,0.0,0.0,0.0,0.0,0.0,0.0,0.0,0.0,0.0,0.0,0.0,0.0,0.0,0.0,0.0,0.0,0.0,0.0,0.0,0.0,0.0,0.0,0.0,0.0,0.0,0.0,0.0,0.0,0.0,0.0,0.0,0.0,0.0,0.0,0.0,0.0,0.0,0.0,0.0,0.0,0.0,0.0,0.0,0.0,0.0,0.0,0.0,0.0,0.0,0.0,0.0,0.0,0.0,0.0,0.0,0.0,0.0,0.0,0.0,0.0,0.0,0.0,0.0,0.0,0.0,0.0,0.0,0.0,0.0,0.0,0.0,0.0,0.0,0.0,0.0,0.0,0.0,0.0,0.0,0.0,0.0,0.0,0.0,0.0,0.0,0.0,0.0,0.0,0.0,0.0,0.0,0.0,0.0,0.0,0.0,0.0,0.0,0.0,0.0,0.0,0.0,0.0,0.0,0.0,0.0,0.0,0.0,0.0,0.0,0.0,0.0,0.0,0.0,0.0,0.0,0.0,0.0,0.0,0.0,0.0,0.0,0.0,0.0,0.0,0.0,0.0,0.0,0.0,0.0,0.0,0.0,0.0,0.0,0.0,0.0,0.0,0.0,0.0,0.0,0.0,0.0,0.0,0.0,0.0,0.0,0.0,0.0,0.0,0.0,0.0,0.0,0.0,0.0,0.0,0.0,0.0,0.0,0.0,0.0,0.0,0.0,0.0,0.0,0.0,0.0,0.0,0.0,0.0,0.0,0.0,0.0,0.0,0.0,0.0,0.0,0.0,0.0,0.0,0.0,0.0,0.0,0.0,0.0,0.0,0.0,0.0,0.0,0.0,0.0,0.0,0.0,0.0,0.0,0.0,0.0,0.0,0.0,0.0,0.0,0.0,0.0,0.0,0.0,0.0,0.0,0.0,0.0,0.0,0.0,0.0,0.0,0.0,0.0,0.0,0.0,0.0,0.0,0.0,0.0,0.0,0.0,0.0,0.0,0.0,0.0,0.0,0.0,0.0,0.0,0.0,0.0,0.0,0.0,0.0,0.0,0.0,0.0,0.0,0.0,0.0,0.0,0.0,0.0,0.0,0.0,0.0,0.0,0.0,0.0,0.0,0.0,0.0,0.0,0.0,0.0,0.0,0.0,0.0,0.0,0.0,0.0,0.0,0.0,0.0,0.0,0.0,0.0,0.0,0.0,0.0,0.0,0.0,0.0,0.0,0.0,0.0,0.0,0.0,0.0,0.0,0.0,0.0,0.0,0.0,0.0,0.0,0.0,0.0,0.0,0.0,0.0,0.0,0.0,0.0,0.0,0.0,0.0,0.0,0.0,0.0,0.0,0.0,0.0,0.0,0.0,0.0,0.0,0.0,0.0,0.0,0.0,0.0,0.0,0.0,0.0,0.0,0.0,0.0,0.0,0.0,0.0,0.0,0.0,0.0,0.0,0.0,0.0,0.0,0.0,0.0,0.0,0.0,0.0,0.0,0.0,0.0,0.0,0.0,0.0,0.0,0.0,0.0,0.0,0.0,0.0,0.0,0.0,0.0,0.0,0.0,0.0,0.0,0.0,0.0,0.0,0.0,0.0,0.0,0.0,0.0,0.0,0.0,0.0,0.0,0.0,0.0,0.0,0.0,0.0,0.0,0.0,0.0,0.0,0.0,0.0,0.0,0.0,0.0,0.0,0.0,0.0,0.0,0.0,0.0,0.0,0.0,0.0,0.0,0.0,0.0,0.0,0.0,0.0,0.0,0.0,0.0,0.0,0.0,0.0,0.0,0.0,0.0,0.0,0.0,0.0,0.0,0.0,0.0,0.0,0.0,0.0,0.0,0.0,0.0,0.0,0.0,0.0,0.0,0.0,0.0,0.0,0.0,0.0,0.0,0.0,0.0,0.0,0.0,0.0,0.0,0.0,0.0,0.0,0.0,0.0,0.0,0.0,0.0,0.0,0.0,0.0,0.0,0.0,0.0,0.0,0.0,0.0,0.0,0.0,0.0,0.0,0.0,0.0,0.0,0.0,0.0,0.0,0.0,0.0,0.0,0.0,0.0,0.0,0.0,0.0,0.0,0.0,0.0,0.0,0.0,0.0,0.0,0.0,0.0,0.0,0.0,0.0,0.0,0.0,0.0,0.0,0.0,0.0,0.0,0.0,0.0,0.0,0.0,0.0,0.0,0.0,0.0,0.0,0.0,0.0,0.0,0.0,0.0,0.0,0.0,0.0,0.0,0.0,0.0,0.0,0.0,0.0,0.0,0.0,0.0,0.0,0.0,0.0,0.0,0.0,0.0,0.0,0.0,0.0,0.0,0.0,0.0,0.0,0.0,0.0,0.0,0.0,0.0,0.0,0.0,0.0,0.0,0.0,0.0,0.0,0.0,0.0,0.0,0.0,0.0,0.0,0.0,0.0,0.0,0.0,0.0,0.0,0.0,0.0,0.0,0.0,0.0,0.0,0.0,0.0,0.0,0.0,0.0,0.0,0.0,0.0,0.0,0.0,0.0,0.0,0.0,0.0,0.0,0.0,0.0,0.0,0.0,0.0,0.0,0.0,0.0,0.0,0.0,0.0,0.0,0.0,0.0,0.0,0.0,0.0,0.0,0.0,0.0,0.0,0.0,0.0,0.0,0.0,0.0,0.0,0.0,0.0,0.0,0.0,0.0,0.0,0.0,0.0,0.0,0.0,0.0,0.0,0.0,0.0,0.0,0.0,0.0,0.0,0.0,0.0,0.0,0.0,0.0,0.0,0.0,0.0,0.0,0.0,0.0,0.0,0.0,0.0,0.0,0.0,0.0,0.0,0.0,0.0,0.0,0.0,0.0,0.0,0.0,0.0,0.0,0.0,0.0,0.0,0.0,0.0,0.0,0.0,0.0,0.0,0.0,0.0,0.0,0.0,0.0,0.0,0.0,0.0,0.0,0.0,0.0,0.0,0.0,0.0,0.0,0.0,0.0,0.0,0.0,0.0,0.0,0.0,0.0,0.0,0.0,0.0,0.0,0.0,0.0,0.0,0.0,0.0,0.0,0.0,0.0,0.0,0.0,0.0,0.0,0.0,0.0,0.0,0.0,0.0,0.0,0.0,0.0,0.0,0.0,0.0,0.0,0.0,0.0,0.0,0.0,0.0,0.0,0.0,0.0,0.0,0.0,0.0,0.0,0.0,0.0,0.0,0.0,0.0,0.0,0.0,0.0,0.0,0.0,0.0,0.0,0.0,0.0,0.0,0.0,0.0,0.0,0.0,0.0,0.0,0.0,0.0,0.0,0.0,0.0,0.0,0.0,0.0,0.0,0.0,0.0,0.0,0.0,0.0,0.0,0.0,0.0,0.0,0.0,0.0,0.0,0.0,0.0,0.0,0.0,0.0,0.0,0.0,0.0,0.0,0.0,0.0,0.0,0.0,0.0,0.0,0.0,0.0,0.0,0.0,0.0,0.0,0.0,0.0,0.0,0.0,0.0,0.0,0.0,0.0,0.0,0.0,0.0,0.0,0.0,0.0,0.0,0.0,0.0,0.0,0.0,0.0,0.0,0.0,0.0,0.0,0.0,0.0,0.0,0.0,0.0,0.0,0.0,0.0,0.0,0.0,0.0,0.0,0.0,-1.6629,0.0,0.0,0.0,0.0,0.0,0.0,0.0,0.0,0.0,0.0,0.0,0.0,0.0,0.0,0.0,0.0,0.0,0.0,0.0,0.0,0.0,0.0,0.0,0.0,0.0,0.0,0.0,0.0,0.0,0.0,0.0,0.0,0.0,0.0,0.0,0.0,0.0,0.0,0.0,0.0,0.0,0.0,0.0,0.0,0.0,0.0,0.0,0.0,0.0,0.0,0.0,0.0,0.0,0.0,0.0,0.0,0.0,0.0,0.0,0.0,0.0,0.0,0.0,0.0,0.0,0.0,0.0,0.0,0.0,0.0,0.0,0.0,0.0,0.0,0.0,0.0,0.0,0.0,0.0,0.0,0.0,0.0,0.0,0.0,0.0,0.0,0.0,0.0,0.0,0.0,0.0,0.0,0.0,0.0,0.0,0.0,0.0,0.0,0.0,0.0,0.0,0.0,0.0,0.0,0.0,0.0,0.0,0.0,0.0,0.0,-1.7949,-1.7734,-1.7949,-1.7754,-1.7129,0.0,0.0,0.0,0.0,0.0,0.0,0.0,0.0,0.0,0.0,0.0,0.0,0.0,0.0,0.0,0.0,0.0,0.0,0.0,0.0,0.0,0.0,0.0,0.0,0.0,0.0,0.0,0.0,0.0,0.0,0.0,0.0,0.0,0.0,0.0,0.0,0.0,0.0,0.0,0.0,0.0,0.0,0.0,0.0,0.0,0.0,0.0,0.0,0.0,0.0,0.0,0.0,0.0,0.0,0.0,0.0,0.0,0.0,0.0,0.0,0.0,0.0,0.0,0.0,0.0,0.0,0.0,0.0,0.0,0.0,0.0,0.0,0.0,0.0,0.0,0.0,0.0,0.0,0.0,0.0,0.0,0.0,0.0,0.0,0.0,0.0,0.0,0.0,0.0,0.0,0.0,0.0,0.0,0.0,0.0,0.0,0.0,0.0,0.0,0.0,0.0,0.0,0.0,0.0,0.0,0.0,0.0,0.0,0.0,0.0,0.0,0.0,-1.8578,-1.8437,-1.7695,0.0,0.0,0.0,0.0,0.0,0.0,0.0,0.0,0.0,0.0,0.0,0.0,0.0,0.0,0.0,0.0,0.0,0.0,0.0,0.0,0.0,0.0,0.0,0.0,0.0,0.0,0.0,0.0,0.0,0.0,0.0,0.0,0.0,0.0,0.0,0.0,0.0,0.0,0.0,0.0,0.0,0.0,0.0,0.0,0.0,0.0,0.0,0.0,0.0,0.0,0.0,0.0,0.0,0.0,0.0,0.0,0.0,0.0,0.0,0.0,0.0,0.0,0.0,0.0,0.0,0.0,0.0,0.0,0.0,0.0,0.0,0.0,0.0,0.0,0.0,0.0,0.0,0.0,0.0,0.0,0.0,0.0,0.0,0.0,0.0,0.0,0.0,0.0,0.0,0.0,0.0,0.0,0.0,0.0,0.0,0.0,0.0,0.0,0.0,0.0,0.0,0.0,0.0,0.0,0.0,0.0,0.0,0.0,0.0,0.0,-1.8418,-1.9177,-1.9199,0.0,-1.85,0.0,0.0,0.0,0.0,0.0,0.0,0.0,0.0,0.0,0.0,0.0,0.0,0.0,0.0,0.0,0.0,0.0,0.0,0.0,0.0,0.0,0.0,0.0,0.0,0.0,0.0,0.0,0.0,0.0,0.0,0.0,0.0,0.0,0.0,0.0,0.0,0.0,0.0,0.0,0.0,0.0,0.0,0.0,0.0,0.0,0.0,0.0,0.0,0.0,0.0,0.0,0.0,0.0,0.0,0.0,0.0,0.0,0.0,0.0,0.0,0.0,0.0,0.0,0.0,0.0,0.0,0.0,0.0,0.0,0.0,0.0,0.0,0.0,0.0,0.0,0.0,0.0,0.0,0.0,0.0,0.0,0.0,0.0,0.0,0.0,0.0,0.0,0.0,0.0,0.0,0.0,0.0,0.0,0.0,0.0,0.0,0.0,0.0,0.0,0.0,0.0,0.0,0.0,0.0,0.0,0.0,0.0,0.0,0.0,0.0,-1.8418,-1.9258,-1.9043,-1.8594,0.0,0.0,0.0,0.0,0.0,0.0,0.0,0.0,0.0,0.0,0.0,0.0,0.0,0.0,0.0,0.0,0.0,0.0,0.0,0.0,0.0,0.0,0.0,0.0,0.0,0.0,0.0,0.0,0.0,0.0,0.0,0.0,0.0,0.0,0.0,0.0,0.0,0.0,0.0,0.0,0.0,0.0,0.0,0.0,0.0,0.0,0.0,0.0,0.0,0.0,0.0,0.0,0.0,0.0,0.0,0.0,0.0,0.0,0.0,0.0,0.0,0.0,0.0,0.0,0.0,0.0,0.0,0.0,0.0,0.0,0.0,0.0,0.0,0.0,0.0,0.0,0.0,0.0,0.0,0.0,0.0,0.0,0.0,0.0,0.0,0.0,0.0,0.0,0.0,0.0,0.0,0.0,0.0,0.0,0.0,0.0,0.0,0.0,0.0,0.0,0.0,0.0,0.0,0.0,0.0,0.0,0.0,0.0,0.0,0.0,-1.8477,-1.8711,-1.9375,-1.8773,-1.8091,-1.7402,0.0,0.0,0.0,0.0,0.0,0.0,0.0,0.0,0.0,0.0,0.0,0.0,0.0,0.0,0.0,0.0,0.0,0.0,0.0,0.0,0.0,0.0,0.0,0.0,0.0,0.0,0.0,0.0,0.0,0.0,0.0,0.0,0.0,0.0,0.0,0.0,0.0,0.0,0.0,0.0,0.0,0.0,0.0,0.0,0.0,0.0,0.0,0.0,0.0,0.0,0.0,0.0,0.0,0.0,0.0,0.0,0.0,0.0,0.0,0.0,0.0,0.0,0.0,0.0,0.0,0.0,0.0,0.0,0.0,0.0,0.0,0.0,0.0,0.0,0.0,0.0,0.0,0.0,0.0,0.0,0.0,0.0,0.0,0.0,0.0,0.0,0.0,0.0,0.0,0.0,0.0,0.0,0.0,0.0,0.0,0.0,0.0,0.0,0.0,0.0,0.0,0.0,0.0,0.0,0.0,0.0,0.0,0.0,-2.0351,-1.9666,-1.9434,-1.9824,-1.8656,-1.7832,0.0,0.0,0.0,0.0,0.0,0.0,0.0,0.0,0.0,0.0,0.0,0.0,0.0,0.0,0.0,0.0,0.0,0.0,0.0,0.0,0.0,0.0,0.0,0.0,0.0,0.0,0.0,0.0,0.0,0.0,0.0,0.0,0.0,0.0,0.0,0.0,0.0,0.0,0.0,0.0,0.0,0.0,0.0,0.0,0.0,0.0,0.0,0.0,0.0,0.0,0.0,0.0,0.0,0.0,0.0,0.0,0.0,0.0,0.0,0.0,0.0,0.0,0.0,0.0,0.0,0.0,0.0,0.0,0.0,0.0,0.0,0.0,0.0,0.0,0.0,0.0,0.0,0.0,0.0,0.0,0.0,0.0,0.0,0.0,0.0,0.0,0.0,0.0,0.0,0.0,0.0,0.0,0.0,0.0,0.0,0.0,0.0,0.0,0.0,0.0,0.0,0.0,0.0,0.0,0.0,0.0,0.0,0.0,0.0,-1.8906,-1.916,-1.9219,-1.9046,-1.8379,-1.7812,0.0,0.0,0.0,0.0,0.0,0.0,0.0,0.0,0.0,0.0,0.0,0.0,0.0,0.0,0.0,0.0,0.0,0.0,0.0,0.0,0.0,0.0,0.0,0.0,0.0,0.0,0.0,0.0,0.0,0.0,0.0,0.0,0.0,0.0,0.0,0.0,0.0,0.0,0.0,0.0,0.0,0.0,0.0,0.0,0.0,0.0,0.0,0.0,0.0,0.0,0.0,0.0,0.0,0.0,0.0,0.0,0.0,0.0,0.0,0.0,0.0,0.0,0.0,0.0,0.0,0.0,0.0,0.0,0.0,0.0,0.0,0.0,0.0,0.0,0.0,0.0,0.0,0.0,0.0,0.0,0.0,0.0,0.0,0.0,0.0,0.0,0.0,0.0,0.0,0.0,0.0,0.0,0.0,0.0,0.0,0.0,0.0,0.0,0.0,0.0,0.0,0.0,0.0,0.0,0.0,0.0,0.0,0.0,0.0,-1.8418,0.0,-1.9355,-1.8617,-1.8188,-1.7676,0.0,0.0,0.0,0.0,0.0,0.0,0.0,0.0,0.0,0.0,0.0,0.0,0.0,0.0,0.0,0.0,0.0,0.0,0.0,0.0,0.0,0.0,0.0,0.0,0.0,0.0,0.0,0.0,0.0,0.0,0.0,0.0,0.0,0.0,0.0,0.0,0.0,0.0,0.0,0.0,0.0,0.0,0.0,0.0,0.0,0.0,0.0,0.0,0.0,0.0,0.0,0.0,0.0,0.0,0.0,0.0,0.0,0.0,0.0,0.0,0.0,0.0,0.0,0.0,0.0,0.0,0.0,0.0,0.0,0.0,0.0,0.0,0.0,0.0,0.0,0.0,0.0,0.0,0.0,0.0,0.0,0.0,0.0,0.0,0.0,0.0,0.0,0.0,0.0,0.0,0.0,0.0,0.0,0.0,0.0,0.0,0.0,0.0,0.0,0.0,0.0,0.0,0.0,0.0,0.0,0.0,0.0,0.0,-1.8008,-1.9199,-2.0096,-1.9883,-1.8676,-1.8208,-1.7422,0.0,0.0,0.0,0.0,0.0,0.0,0.0,0.0,0.0,0.0,0.0,0.0,0.0,0.0,0.0,0.0,0.0,0.0,0.0,0.0,0.0,0.0,0.0,0.0,0.0,0.0,0.0,0.0,0.0,0.0,0.0,0.0,0.0,0.0,0.0,0.0,0.0,0.0,0.0,0.0,0.0,0.0,0.0,0.0,0.0,0.0,0.0,0.0,0.0,0.0,0.0,0.0,0.0,0.0,0.0,0.0,0.0,0.0,0.0,0.0,0.0,0.0,0.0,0.0,0.0,0.0,0.0,0.0,0.0,0.0,0.0,0.0,0.0,0.0,0.0,0.0,0.0,0.0,0.0,0.0,0.0,0.0,0.0,0.0,0.0,0.0,0.0,0.0,0.0,0.0,0.0,0.0,0.0,0.0,0.0,0.0,0.0,0.0,0.0,0.0,0.0,0.0,0.0,0.0,0.0,0.0,0.0,0.0,0.0,-1.8008,-1.9138,-1.9629,-1.9455,-1.8535,-1.8105,0.0,0.0,0.0,0.0,0.0,0.0,0.0,0.0,0.0,0.0,0.0,0.0,0.0,0.0,0.0,0.0,0.0,0.0,0.0,0.0,0.0,0.0,0.0,0.0,0.0,0.0,0.0,0.0,0.0,0.0,0.0,0.0,0.0,0.0,0.0,0.0,0.0,0.0,0.0,0.0,0.0,0.0,0.0,0.0,0.0,0.0,0.0,0.0,0.0,0.0,0.0,0.0,0.0,0.0,0.0,0.0,0.0,0.0,0.0,0.0,0.0,0.0,0.0,0.0,0.0,0.0,0.0,0.0,0.0,0.0,0.0,0.0,0.0,0.0,0.0,0.0,0.0,0.0,0.0,0.0,0.0,0.0,0.0,0.0,0.0,0.0,0.0,0.0,0.0,0.0,0.0,0.0,0.0,0.0,0.0,0.0,0.0,0.0,0.0,0.0,0.0,0.0,0.0,0.0,0.0,0.0,0.0,0.0,0.0,-1.8398,-1.9434,-1.998,-1.9902,-1.8984,-1.8574,-1.8769,0.0,0.0,0.0,0.0,0.0,0.0,0.0,0.0,0.0,0.0,0.0,0.0,0.0,0.0,0.0,0.0,0.0,0.0,0.0,0.0,0.0,0.0,0.0,0.0,0.0,0.0,0.0,0.0,0.0,0.0,0.0,0.0,0.0,0.0,0.0,0.0,0.0,0.0,0.0,0.0,0.0,0.0,0.0,0.0,0.0,0.0,0.0,0.0,0.0,0.0,0.0,0.0,0.0,0.0,0.0,0.0,0.0,0.0,0.0,0.0,0.0,0.0,0.0,0.0,0.0,0.0,0.0,0.0,0.0,0.0,0.0,0.0,0.0,0.0,0.0,0.0,0.0,0.0,0.0,0.0,0.0,0.0,0.0,0.0,0.0,0.0,0.0,0.0,0.0,0.0,0.0,0.0,0.0,0.0,0.0,0.0,0.0,0.0,0.0,0.0,0.0,0.0,0.0,0.0,0.0,0.0,0.0,0.0,-2.0019,-2.0878,-2.0917,-2.0117,-1.959,-1.8965,0.0,0.0,0.0,0.0,0.0,0.0,0.0,0.0,0.0,0.0,0.0,0.0,0.0,0.0,0.0,0.0,0.0,0.0,0.0,0.0,0.0,0.0,0.0,0.0,0.0,0.0,0.0,0.0,0.0,0.0,0.0,0.0,0.0,0.0,0.0,0.0,0.0,0.0,0.0,0.0,0.0,0.0,0.0,0.0,0.0,0.0,0.0,0.0,0.0,0.0,0.0,0.0,0.0,0.0,0.0,0.0,0.0,0.0,0.0,0.0,0.0,0.0,0.0,0.0,0.0,0.0,0.0,0.0,0.0,0.0,0.0,0.0,0.0,0.0,0.0,0.0,0.0,0.0,0.0,0.0,0.0,0.0,0.0,0.0,0.0,0.0,0.0,0.0,0.0,0.0,0.0,0.0,0.0,0.0,0.0,0.0,0.0,0.0,0.0,0.0,0.0,0.0,0.0,0.0,0.0,0.0,0.0,0.0,0.0,-2.1406,-2.2519,-2.2695,-2.1836,-2.0488,-1.9805,0.0,0.0,0.0,0.0,0.0,0.0,0.0,0.0,0.0,0.0,0.0,0.0,0.0,0.0,0.0,0.0,0.0,0.0,0.0,0.0,0.0,0.0,0.0,0.0,0.0,0.0,0.0,0.0,0.0,0.0,0.0,0.0,0.0,0.0,0.0,0.0,0.0,0.0,0.0,0.0,0.0,0.0,0.0,0.0,0.0,0.0,0.0,0.0,0.0,0.0,0.0,0.0,0.0,0.0,0.0,0.0,0.0,0.0,0.0,0.0,0.0,0.0,0.0,0.0,0.0,0.0,0.0,0.0,0.0,0.0,0.0,0.0,0.0,0.0,0.0,0.0,0.0,0.0,0.0,0.0,0.0,0.0,0.0,0.0,0.0,0.0,0.0,0.0,0.0,0.0,0.0,0.0,0.0,0.0,0.0,0.0,0.0,0.0,0.0,0.0,0.0,0.0,0.0,0.0,0.0,0.0,0.0,0.0,-2.1973,-2.293,-2.3672,-2.3906,-2.3594,-2.209,-2.1055,0.0,0.0,0.0,0.0,0.0,0.0,0.0,0.0,0.0,0.0,0.0,0.0,0.0,0.0,0.0,0.0,0.0,0.0,0.0,0.0,0.0,0.0,0.0,0.0,0.0,0.0,0.0,0.0,0.0,0.0,0.0,0.0,0.0,0.0,0.0,0.0,0.0,0.0,0.0,0.0,0.0,0.0,0.0,0.0,0.0,0.0,0.0,0.0,0.0,0.0,0.0,0.0,0.0,0.0,0.0,0.0,0.0,0.0,0.0,0.0,0.0,0.0,0.0,0.0,0.0,0.0,0.0,0.0,0.0,0.0,0.0,0.0,0.0,0.0,0.0,0.0,0.0,0.0,0.0,0.0,0.0,0.0,0.0,0.0,0.0,0.0,0.0,0.0,0.0,0.0,0.0,0.0,0.0,0.0,0.0,0.0,0.0,0.0,0.0,0.0,0.0,0.0,0.0,0.0,0.0,0.0,0.0,0.0,-2.2793,-2.4375,-2.4492,-2.4707,-2.4988,-2.3814,-2.2324,0.0,0.0,0.0,0.0,0.0,0.0,0.0,0.0,0.0,0.0,0.0,0.0,0.0,0.0,0.0,0.0,0.0,0.0,0.0,0.0,0.0,0.0,0.0,0.0,0.0,0.0,0.0,0.0,0.0,0.0,0.0,0.0,0.0,0.0,0.0,0.0,0.0,0.0,0.0,0.0,0.0,0.0,0.0,0.0,0.0,0.0,0.0,0.0,0.0,0.0,0.0,0.0,0.0,0.0,0.0,0.0,0.0,0.0,0.0,0.0,0.0,0.0,0.0,0.0,0.0,0.0,0.0,0.0,0.0,0.0,0.0,0.0,0.0,0.0,0.0,0.0,0.0,0.0,0.0,0.0,0.0,0.0,0.0,0.0,0.0,0.0,0.0,0.0,0.0,0.0,0.0,0.0,0.0,0.0,0.0,0.0,0.0,0.0,0.0,0.0,0.0,0.0,0.0,0.0,0.0,0.0,0.0,0.0,-2.3359,-2.4394,-2.505,-2.5156,-2.457,-2.332,-2.2168,0.0,0.0,0.0,0.0,0.0,0.0,0.0,0.0,0.0,0.0,0.0,0.0,0.0,0.0,0.0,0.0,0.0,0.0,0.0,0.0,0.0,0.0,0.0,0.0,0.0,0.0,0.0,0.0,0.0,0.0,0.0,0.0,0.0,0.0,0.0,0.0,0.0,0.0,0.0,0.0,0.0,0.0,0.0,0.0,0.0,0.0,0.0,0.0,-1.3467,0.0,0.0,0.0,0.0,0.0,0.0,0.0,0.0,0.0,0.0,0.0,0.0,0.0,0.0,0.0,0.0,0.0,0.0,0.0,0.0,0.0,0.0,0.0,0.0,0.0,0.0,0.0,0.0,0.0,0.0,0.0,0.0,0.0,0.0,0.0,0.0,0.0,0.0,0.0,0.0,0.0,0.0,0.0,0.0,0.0,0.0,0.0,0.0,0.0,0.0,0.0,0.0,0.0,0.0,0.0,0.0,0.0,0.0,0.0,-2.3965,-2.4953,-2.546,-2.541,-2.4727,-2.3867,-2.2832,0.0,0.0,0.0,0.0,0.0,0.0,0.0,0.0,0.0,0.0,0.0,0.0,0.0,0.0,0.0,0.0,0.0,0.0,0.0,0.0,0.0,0.0,0.0,0.0,0.0,0.0,0.0,0.0,0.0,0.0,0.0,0.0,0.0,0.0,0.0,0.0,0.0,0.0,0.0,0.0,0.0,0.0,0.0,0.0,0.0,0.0,0.0,0.0,0.0,0.0,0.0,0.0,0.0,0.0,0.0,0.0,0.0,0.0,0.0,0.0,0.0,0.0,0.0,0.0,0.0,0.0,0.0,0.0,0.0,0.0,0.0,0.0,0.0,0.0,0.0,0.0,0.0,0.0,0.0,0.0,0.0,0.0,0.0,0.0,0.0,0.0,0.0,0.0,0.0,0.0,0.0,0.0,0.0,0.0,0.0,0.0,0.0,0.0,0.0,0.0,0.0,0.0,0.0,0.0,0.0,0.0,0.0,-2.2969,-2.4355,-2.5615,-2.5674,-2.5488,-2.5028,-2.4609,-2.3613,-2.1953,0.0,0.0,0.0,0.0,0.0,0.0,0.0,0.0,0.0,0.0,0.0,0.0,0.0,0.0,0.0,0.0,0.0,0.0,0.0,0.0,0.0,0.0,0.0,0.0,0.0,0.0,0.0,0.0,0.0,0.0,0.0,0.0,0.0,0.0,0.0,0.0,0.0,0.0,-1.3677,-1.4296,0.0,0.0,0.0,0.0,0.0,0.0,0.0,0.0,-1.4321,0.0,0.0,0.0,0.0,0.0,0.0,0.0,0.0,0.0,0.0,0.0,0.0,0.0,0.0,0.0,0.0,0.0,0.0,0.0,0.0,0.0,0.0,0.0,0.0,0.0,0.0,0.0,0.0,0.0,0.0,0.0,0.0,0.0,0.0,0.0,0.0,0.0,0.0,0.0,0.0,0.0,0.0,0.0,0.0,0.0,0.0,0.0,0.0,0.0,0.0,0.0,0.0,0.0,0.0,0.0,0.0,-2.275,-2.3062,-2.3997,-2.5635,-2.5674,-2.5304,-2.457,-2.4453,-2.3613,-2.1992,0.0,0.0,0.0,0.0,0.0,0.0,0.0,0.0,0.0,0.0,0.0,0.0,0.0,0.0,0.0,0.0,0.0,0.0,0.0,0.0,0.0,0.0,0.0,0.0,0.0,0.0,0.0,0.0,0.0,0.0,0.0,0.0,0.0,0.0,0.0,0.0,0.0,0.0,0.0,-1.686,-1.776,0.0,0.0,0.0,0.0,0.0,0.0,0.0,0.0,-1.4805,0.0,0.0,0.0,0.0,0.0,0.0,0.0,0.0,0.0,0.0,0.0,0.0,0.0,0.0,0.0,0.0,0.0,0.0,0.0,0.0,0.0,0.0,0.0,0.0,0.0,0.0,0.0,0.0,0.0,0.0,0.0,0.0,0.0,0.0,0.0,0.0,0.0,0.0,0.0,0.0,0.0,0.0,0.0,0.0,0.0,0.0,0.0,0.0,0.0,0.0,0.0,0.0,0.0,0.0,0.0,-2.3505,-2.4051,-2.4671,-2.5332,-2.5176,-2.4746,-2.4102,-2.3457,-2.2715,0.0,0.0,0.0,0.0,0.0,0.0,0.0,0.0,0.0,0.0,0.0,0.0,0.0,0.0,0.0,0.0,0.0,0.0,0.0,0.0,0.0,0.0,0.0,0.0,0.0,0.0,0.0,0.0,0.0,0.0,0.0,0.0,0.0,0.0,0.0,0.0,0.0,0.0,0.0,0.0,-1.7816,-1.827,-1.8244,0.0,0.0,0.0,0.0,0.0,0.0,-1.6447,-1.6252,0.0,0.0,0.0,0.0,0.0,0.0,0.0,0.0,0.0,0.0,0.0,0.0,0.0,0.0,0.0,0.0,0.0,0.0,0.0,0.0,0.0,0.0,0.0,0.0,0.0,0.0,0.0,0.0,0.0,0.0,0.0,0.0,0.0,0.0,0.0,0.0,0.0,0.0,0.0,0.0,0.0,0.0,0.0,0.0,0.0,0.0,0.0,0.0,0.0,0.0,0.0,0.0,0.0,0.0,0.0,-2.4341,-2.519,-2.5547,-2.5451,-2.5,-2.4427,-2.3789,-2.2715,-2.2051,0.0,0.0,0.0,0.0,0.0,0.0,0.0,0.0,0.0,0.0,0.0,0.0,0.0,0.0,0.0,0.0,0.0,0.0,0.0,0.0,0.0,0.0,0.0,0.0,0.0,0.0,0.0,0.0,0.0,0.0,0.0,0.0,0.0,0.0,0.0,0.0,0.0,0.0,0.0,0.0,0.0,-1.9152,-1.9093,-1.9006,0.0,0.0,0.0,0.0,-1.8001,-1.7994,0.0,0.0,0.0,0.0,0.0,0.0,0.0,0.0,0.0,0.0,0.0,0.0,0.0,0.0,0.0,0.0,0.0,0.0,0.0,0.0,0.0,0.0,0.0,0.0,0.0,0.0,0.0,0.0,0.0,0.0,0.0,0.0,0.0,0.0,0.0,0.0,0.0,0.0,0.0,0.0,0.0,0.0,0.0,0.0,0.0,0.0,0.0,0.0,0.0,0.0,0.0,0.0,0.0,0.0,0.0,0.0,-2.5579,-2.6117,-2.6497,-2.6643,-2.6173,-2.5243,-2.3834,-2.3262,-2.2656,0.0,0.0,0.0,0.0,0.0,0.0,0.0,0.0,0.0,0.0,0.0,0.0,0.0,0.0,0.0,0.0,0.0,0.0,0.0,0.0,0.0,0.0,0.0,0.0,0.0,0.0,0.0,0.0,0.0,0.0,0.0,0.0,0.0,0.0,0.0,0.0,0.0,0.0,0.0,0.0,0.0,-2.2736,-2.1636,-2.1771,-2.1828,0.0,0.0,-2.0655,-2.0357,-2.0422,0.0,0.0,0.0,0.0,0.0,0.0,0.0,0.0,0.0,0.0,0.0,0.0,0.0,0.0,0.0,0.0,0.0,0.0,0.0,0.0,0.0,0.0,0.0,0.0,0.0,0.0,0.0,0.0,0.0,0.0,0.0,0.0,0.0,0.0,0.0,0.0,0.0,0.0,0.0,0.0,0.0,0.0,0.0,0.0,0.0,0.0,0.0,0.0,0.0,0.0,0.0,0.0,0.0,0.0,0.0,-2.5846,-2.6949,-2.7545,-2.744,-2.6605,-2.607,-2.4933,-2.3129,-2.1934,-2.149,0.0,0.0,0.0,0.0,0.0,0.0,0.0,0.0,0.0,0.0,0.0,0.0,0.0,0.0,0.0,0.0,0.0,0.0,0.0,0.0,0.0,0.0,0.0,0.0,0.0,0.0,0.0,0.0,0.0,0.0,0.0,0.0,0.0,0.0,0.0,0.0,0.0,0.0,0.0,0.0,0.0,0.0,-2.2324,-2.2617,0.0,0.0,0.0,-2.2272,-2.2125,0.0,0.0,0.0,0.0,0.0,0.0,0.0,0.0,0.0,0.0,0.0,0.0,0.0,0.0,0.0,0.0,0.0,0.0,0.0,0.0,0.0,0.0,0.0,0.0,0.0,0.0,0.0,0.0,0.0,0.0,0.0,0.0,0.0,0.0,0.0,0.0,0.0,0.0,0.0,0.0,0.0,0.0,0.0,0.0,0.0,0.0,0.0,0.0,0.0,0.0,0.0,0.0,0.0,0.0,0.0,0.0,0.0,-2.8362,-2.8996,-2.8482,-2.6798,-2.6541,-2.5296,-2.2966,-2.1648,0.0,0.0,0.0,0.0,0.0,0.0,0.0,0.0,0.0,0.0,0.0,0.0,0.0,0.0,0.0,0.0,0.0,0.0,0.0,0.0,0.0,0.0,0.0,0.0,0.0,0.0,0.0,-1.9569,0.0,0.0,0.0,0.0,0.0,0.0,0.0,0.0,0.0,0.0,0.0,0.0,0.0,0.0,-2.316,-2.3103,-2.3201,-2.3325,0.0,0.0,-2.3413,-2.3477,-2.3717,-2.3477,0.0,0.0,0.0,0.0,0.0,0.0,0.0,0.0,0.0,0.0,0.0,0.0,0.0,0.0,0.0,0.0,0.0,0.0,0.0,0.0,0.0,0.0,0.0,0.0,0.0,0.0,0.0,0.0,0.0,0.0,0.0,0.0,0.0,0.0,0.0,0.0,0.0,0.0,0.0,0.0,0.0,0.0,0.0,0.0,0.0,0.0,0.0,0.0,0.0,0.0,0.0,0.0,0.0,0.0,0.0,-2.9613,-3.0213,-2.9673,-2.8025,-2.8421,-2.7186,-2.4033,-2.3898,-2.3949,0.0,0.0,0.0,0.0,0.0,0.0,0.0,0.0,0.0,0.0,0.0,0.0,0.0,0.0,0.0,0.0,0.0,0.0,0.0,0.0,0.0,0.0,0.0,0.0,0.0,0.0,0.0,0.0,0.0,0.0,0.0,0.0,0.0,0.0,0.0,0.0,0.0,0.0,0.0,0.0,0.0,-2.4989,-2.4681,-2.4142,-2.4069,0.0,0.0,-2.4336,-2.4336,-2.4972,-2.4746,-2.2324,0.0,0.0,0.0,0.0,0.0,0.0,0.0,0.0,0.0,0.0,0.0,0.0,0.0,0.0,0.0,0.0,0.0,0.0,0.0,0.0,0.0,0.0,0.0,0.0,0.0,0.0,0.0,0.0,0.0,0.0,0.0,0.0,0.0,0.0,0.0,0.0,0.0,0.0,0.0,0.0,0.0,0.0,0.0,0.0,0.0,0.0,0.0,0.0,0.0,0.0,0.0,0.0,0.0,-2.7806,-2.9754,-3.0331,-3.0106,-2.9207,-2.8988,-2.7516,-2.4683,-2.4393,-2.4062,0.0,0.0,0.0,0.0,0.0,0.0,0.0,0.0,0.0,0.0,0.0,0.0,0.0,0.0,0.0,0.0,0.0,0.0,0.0,0.0,0.0,0.0,0.0,0.0,0.0,0.0,0.0,0.0,-2.2356,-2.2966,-2.3594,0.0,0.0,0.0,0.0,0.0,0.0,0.0,0.0,0.0,0.0,-2.6125,-2.6319,-2.6649,0.0,0.0,-2.6294,-2.6094,-2.533,-2.5273,-2.4805,-2.3301,-2.2754,0.0,0.0,0.0,0.0,0.0,0.0,0.0,0.0,0.0,0.0,0.0,0.0,0.0,0.0,0.0,0.0,0.0,0.0,0.0,0.0,0.0,0.0,0.0,0.0,0.0,0.0,0.0,0.0,0.0,0.0,0.0,0.0,0.0,0.0,0.0,0.0,0.0,0.0,0.0,0.0,0.0,0.0,0.0,0.0,0.0,0.0,0.0,0.0,0.0,0.0,0.0,0.0,-2.7605,-2.9754,-3.0331,-3.035,-2.9803,-2.955,-2.8203,-2.5799,-2.5399,-2.4978,0.0,0.0,0.0,0.0,0.0,0.0,0.0,0.0,0.0,0.0,0.0,0.0,0.0,0.0,0.0,0.0,0.0,0.0,0.0,0.0,0.0,0.0,0.0,0.0,0.0,0.0,0.0,0.0,-2.3753,-2.4431,-2.546,0.0,0.0,0.0,0.0,0.0,0.0,0.0,0.0,0.0,0.0,-2.7364,-2.7908,-2.8155,-2.8122,-2.7656,-2.7626,-2.7387,-2.6662,-2.6013,-2.5179,-2.4087,0.0,0.0,0.0,0.0,0.0,0.0,0.0,0.0,0.0,0.0,0.0,0.0,0.0,0.0,0.0,0.0,0.0,0.0,0.0,0.0,0.0,0.0,0.0,0.0,0.0,0.0,0.0,0.0,0.0,0.0,-2.6499,0.0,0.0,0.0,0.0,0.0,0.0,0.0,0.0,0.0,0.0,0.0,0.0,0.0,0.0,0.0,0.0,0.0,0.0,0.0,0.0,0.0,0.0,-2.7605,-2.9754,-3.0306,-3.035,-2.9864,-3.0294,-2.948,-2.7362,-2.7238,-2.7233,-2.7132,0.0,0.0,0.0,0.0,0.0,0.0,0.0,0.0,0.0,0.0,0.0,0.0,0.0,0.0,0.0,0.0,0.0,0.0,0.0,0.0,0.0,0.0,0.0,0.0,0.0,0.0,-2.3954,-2.4004,-2.4456,0.0,0.0,0.0,0.0,0.0,0.0,0.0,0.0,0.0,0.0,-2.8536,-2.8935,-2.9474,-2.8218,-2.7827,-2.899,-2.8366,-2.7921,-2.8455,-2.746,-2.6121,0.0,0.0,0.0,0.0,0.0,0.0,0.0,0.0,0.0,0.0,0.0,0.0,0.0,0.0,0.0,0.0,0.0,0.0,0.0,0.0,0.0,0.0,0.0,0.0,0.0,0.0,0.0,-2.7821,-2.777,0.0,0.0,0.0,0.0,0.0,0.0,0.0,0.0,0.0,0.0,0.0,-2.8423,-2.9151,0.0,0.0,0.0,0.0,0.0,0.0,0.0,0.0,0.0,0.0,0.0,0.0,-2.7745,-2.9151,-2.9779,-3.0173,-3.035,-3.0173,-2.9524,-2.8409,-2.8014,-2.7494,-2.6801,0.0,0.0,0.0,0.0,0.0,0.0,0.0,0.0,0.0,0.0,0.0,0.0,0.0,0.0,0.0,0.0,0.0,0.0,0.0,0.0,0.0,0.0,0.0,0.0,0.0,-2.4449,0.0,0.0,0.0,0.0,0.0,0.0,0.0,0.0,0.0,0.0,0.0,-2.8521,-2.8656,-2.9431,-3.0195,-3.0713,-3.0961,-3.112,0.0,0.0,0.0,0.0,0.0,0.0,0.0,0.0,0.0,0.0,0.0,0.0,0.0,0.0,-2.5956,-2.3364,-2.261,-2.2034,-2.0675,0.0,0.0,0.0,0.0,0.0,0.0,0.0,0.0,0.0,0.0,0.0,0.0,0.0,0.0,-2.88,0.0,-2.7996,0.0,0.0,0.0,0.0,0.0,0.0,0.0,0.0,-3.0231,-3.0633,-3.0066,-3.0633,-3.0507,0.0,-2.9227,-2.8222,0.0,0.0,0.0,0.0,0.0,0.0,0.0,0.0,-2.7821,-2.8863,-2.9503,-3.0055,-3.0557,-3.008,-2.9603,-2.9189,-2.8499,-2.7595,-2.6524,-2.5762,-2.546,0.0,0.0,0.0,0.0,0.0,0.0,0.0,0.0,0.0,0.0,0.0,0.0,0.0,0.0,0.0,0.0,0.0,0.0,0.0,0.0,0.0,0.0,0.0,-2.5234,0.0,0.0,0.0,0.0,0.0,0.0,0.0,0.0,0.0,-2.8699,-2.9327,-2.993,-3.0331,-3.0834,-3.1361,-3.1888,0.0,0.0,0.0,0.0,0.0,0.0,0.0,-2.9261,-2.8984,-2.7803,-2.6671,-2.6054,-2.6445,-2.6836,-2.6887,0.0,0.0,-2.5399,-2.4823,-2.435,-2.3095,-2.3161,-2.3256,-2.257,-2.1751,-2.1283,0.0,0.0,0.0,0.0,0.0,0.0,0.0,0.0,-2.9955,-3.0181,0.0,-2.8875,0.0,0.0,0.0,0.0,0.0,-2.9829,0.0,0.0,-3.2131,-3.2792,-3.2215,-3.1738,-3.1461,-3.1411,-3.0899,-3.0069,-2.8863,-2.6826,0.0,0.0,0.0,0.0,0.0,0.0,-2.7846,-2.8863,-2.9503,-3.0055,-3.0532,-3.008,-2.9779,-2.9729,-2.8699,-2.762,-2.66,-2.6524,-2.6248,-2.5686,-2.6666,0.0,0.0,0.0,0.0,0.0,0.0,0.0,0.0,0.0,0.0,0.0,0.0,0.0,0.0,0.0,0.0,0.0,0.0,0.0,0.0,-2.5996,0.0,0.0,0.0,0.0,0.0,0.0,0.0,0.0,0.0,0.0,-2.993,-3.0783,-3.1838,-3.2935,0.0,0.0,0.0,0.0,-3.1913,-3.3043,-3.2692,-3.2699,-3.3753,-3.2893,-3.1931,-3.1502,0.0,0.0,-2.6814,-2.7251,-2.7819,-2.7787,-2.8105,-2.834,-2.832,-2.7289,-2.6859,-2.7684,-2.5698,-2.4721,-2.674,-2.5289,-2.4065,-3.5403,0.0,0.0,0.0,0.0,-3.3294,-3.347,-3.3778,-3.2641,-3.1763,-3.1085,-2.9854,0.0,0.0,0.0,0.0,0.0,0.0,-3.116,-3.2164,-3.3237,-3.3571,-3.342,-3.3244,-3.2968,-3.2608,-3.2401,-3.1576,-3.0119,-2.9434,-2.8333,-2.6851,0.0,0.0,0.0,0.0,-2.8222,-2.8863,-2.9503,-2.988,-3.003,-2.988,-2.9603,-2.9202,-2.8875,-2.8172,-2.7128,-2.7077,-2.7002,-2.6816,-2.7118,0.0,0.0,0.0,0.0,0.0,0.0,0.0,0.0,0.0,0.0,0.0,0.0,0.0,0.0,0.0,0.0,0.0,0.0,0.0,-2.6474,-2.6348,-2.6399,0.0,0.0,0.0,0.0,0.0,0.0,0.0,0.0,0.0,-3.1913,-3.2039,-3.2265,0.0,0.0,-3.3018,-3.3571,-3.3721,-3.4022,-3.468,-3.4655,0.0,0.0,-3.4085,-3.3269,-3.2956,-3.1925,-3.0838,-2.987,-2.9899,-2.9868,-2.9183,-2.9375,-2.9648,-2.9609,-2.8865,-2.8041,-2.7399,-2.7642,-2.8033,-2.7882,-2.7329,-2.7039,-3.8015,-3.6107,-3.5127,-3.4826,-3.4981,-3.4926,-3.5002,-3.5132,-3.4399,-3.3671,-3.2968,-3.1888,-3.116,-3.0708,-3.0739,0.0,0.0,0.0,-3.3945,-3.5136,-3.5192,-3.5624,-3.6201,-3.5579,-3.5166,-3.5041,-3.4753,-3.39,-3.2503,-3.2455,-3.1566,-2.9872,0.0,0.0,-2.8543,-2.9083,-2.9729,-3.0435,-3.1011,-3.1005,-3.0343,-3.0011,-2.9628,-2.9277,-2.9013,-2.8587,-2.7971,-2.7519,-2.7394,-2.7595,-2.7595,-2.762,0.0,0.0,0.0,0.0,0.0,0.0,0.0,0.0,0.0,0.0,0.0,-2.6122,-2.6474,0.0,0.0,0.0,-2.6675,-2.6826,-2.6826,-2.7002,0.0,0.0,0.0,0.0,0.0,0.0,0.0,-3.0306,-3.0809,-3.1662,-3.3194,-3.3294,-3.342,-3.3997,-3.3872,-3.3947,-3.4474,0.0,-3.4881,-3.5433,-3.5483,-3.5583,-3.583,-3.5328,-3.4739,-3.4246,-3.377,-3.3226,-3.2541,-3.1976,-3.1462,-3.1066,-3.073,-3.0469,-3.0469,-3.0039,-2.9463,-2.8615,-2.9451,-3.0084,-2.9291,-2.9303,-2.9338,-3.9923,-3.9747,-3.8216,-3.691,-3.5834,-3.6358,-3.5981,-3.5102,-3.5508,-3.5633,-3.5483,-3.45,-3.4293,-3.4754,-3.4884,0.0,-3.5139,-3.6715,-3.7729,-3.8311,-3.7752,-3.8361,-3.977,-3.8209,-3.7617,-3.7993,-3.7577,-3.669,-3.5477,-3.5471,-3.4964,-3.3854,-3.0377,-2.9357,-3.0707,-3.1276,-3.1973,-3.2957,-3.3365,-3.2837,-3.1341,-3.0546,-3.01,-3.0024,-2.9404,-2.9101,-2.91,-2.8019,-2.7656,-2.8181,-2.8133,-2.8122,-2.8122,0.0,0.0,0.0,0.0,0.0,0.0,0.0,0.0,0.0,0.0,0.0,0.0,0.0,0.0,0.0,-2.7042,0.0,-2.7379,-2.7795,0.0,0.0,0.0,-2.8712,-2.9883,-2.9982,-3.0346,-3.1458,0.0,0.0,-3.3897,-3.4514,-3.5067,-3.5529,-3.5082,-3.4931,-3.5483,-3.5132,-3.5027,-3.5533,-3.5558,-3.578,-3.6279,-3.6304,-3.6051,-3.5476,-3.5372,-3.5152,-3.4736,-3.3726,-3.3031,-3.3156,-3.2092,-3.1092,-3.1112,-3.0975,-3.0879,-3.0704,-3.0723,-3.0801,-3.0704,-3.0626,-3.0587,-4.1957,-4.153,-4.1182,-3.9848,-3.809,-3.8216,-3.819,-3.7864,-3.7563,-3.6935,-3.6132,-3.5454,-3.522,-3.5424,-3.5927,-3.6616,-3.7414,-3.7799,-3.8547,-3.9443,-3.9349,-3.9486,-3.9858,-3.8992,-3.8431,-3.8104,-3.8303,-3.7596,-3.6097,-3.642,-3.609,-3.5,-3.3694,-3.3055,-3.3009,-3.3147,-3.3523,-3.415,-3.378,-3.3165,-3.2326,-3.2554,-3.2471,-3.1938,-3.1109,-3.0781,-3.1072,-2.9434,-2.8704,-2.909,-2.8471,-2.8122,-2.8122,-2.8122,0.0,0.0,0.0,0.0,0.0,0.0,0.0,0.0,0.0,-2.7268,-2.767,0.0,-2.772,0.0,-2.7846,-2.7921,-2.7896,-2.8021,0.0,0.0,-2.9126,-2.9974,-3.1446,-3.1289,-3.1584,-3.3048,-3.3901,-3.4425,-3.4488,-3.5807,-3.6573,-3.6243,-3.568,-3.5508,-3.6081,-3.6128,-3.6006,-3.6132,-3.6157,-3.6254,-3.638,-3.6405,-3.6511,-3.6674,-3.67,-3.6628,-3.6242,-3.5934,-3.5512,-3.4847,-3.3586,-3.2701,-3.2587,-3.171,-3.0858,-3.0449,-3.0351,-3.0371,-3.0351,-3.0117,-2.998,-4.2489,-4.2187,-4.1907,-4.0953,-3.9597,-3.9597,-3.9471,-3.922,-3.8894,-3.8588,-3.835,-3.8292,-3.814,-3.8027,-3.9159,-3.9713,-3.9771,-4.0551,-4.106,-4.1337,-4.0901,-4.0916,-4.1378,-4.0547,-4.0107,-4.0026,-4.0275,-3.9751,-3.8572,-3.8827,-3.8681,-3.8055,-3.7748,-3.7477,-3.7168,-3.5894,-3.5707,-3.6704,-3.5386,-3.434,-3.3677,-3.3629,-3.3301,-3.2621,-3.1811,-3.1477,-3.1709,-3.0174,-2.9636,-3.0357,-2.9689,-2.9547,-3.0082,-2.9872,-2.9562,0.0,0.0,0.0,0.0,0.0,0.0,0.0,0.0,0.0,0.0,0.0,-2.8912,-2.9346,-2.8809,-2.8658,-2.9108,-2.9645,-3.0057,-3.0328,-3.1301,-3.2387,-3.3511,-3.3356,-3.3635,-3.4753,-3.5669,-3.627,-3.6253,-3.7527,-3.8318,-3.799,-3.7689,-3.7202,-3.6518,-3.6405,-3.6405,-3.6405,-3.6405,-3.6405,-3.6405,-3.6405,-3.6606,-3.7061,-3.7186,-3.7293,-3.7555,-3.7132,-3.6596,-3.6241,-3.489,-3.3775,-3.3948,-3.2684,-3.1422,-3.1144,-3.0472,-2.9978,-2.9922,-2.9746,-2.9648,-4.2313,-4.2263,-4.1893,-4.1446,-4.0864,-4.1049,-4.0615,-3.9697,-3.9878,-4.0359,-4.1186,-4.1856,-4.1775,-4.1374,-4.3069,-4.3168,-4.2196,-4.3642,-4.3977,-4.3369,-4.2333,-4.2316,-4.325,-4.2304,-4.2034,-4.2372,-4.2381,-4.2051,-4.1422,-4.1422,-4.1422,-4.1422,-4.1422,-4.1414,-4.1414,-3.8876,-3.8201,-3.9343,-3.7403,-3.6077,-3.5317,-3.4512,-3.3772,-3.3086,-3.2243,-3.1875,-3.2034,-3.0693,-3.0516,-3.1702,-3.1197,-3.1357,-3.24,-3.2055,-3.1486,0.0,-3.1144,0.0,0.0,0.0,0.0,0.0,0.0,0.0,0.0,-2.9369,-3.0258,-3.1148,-3.0102,-2.9774,-3.0705,-3.1782,-3.2395,-3.2539,-3.382,-3.4927,-3.5502,-3.5526,-3.5737,-3.6314,-3.7519,-3.8297,-3.8103,-3.9267,-4.0102,-3.9798,-3.9683,-3.8979,-3.7381,-3.6989,-3.7036,-3.6849,-3.6709,-3.6756,-3.6709,-3.6521,-3.6606,-3.7036,-3.7186,-3.7563,-3.8492,-3.7704,-3.7028,-3.7254,-3.5885,-3.4809,-3.5292,-3.3726,-3.2369,-3.2099,-3.0892,-2.9826,-2.9528,-2.9394,-2.9434,-4.2866,-4.2897,-4.3896,-4.3676,-4.2762,-4.3913,-4.2618,-3.98,-4.0794,-4.1856,-4.2998,-4.3669,-4.3824,-4.3799,-4.4624,-4.4834,-4.4596,-4.4415,-4.4257,-4.4067,-4.3328,-4.3061,-4.329,-4.3061,-4.2773,-4.241,-4.2381,-4.2051,-4.1422,-4.1422,-4.1422,-4.1422,-4.1422,-4.1692,-4.2141,0.0,0.0,0.0,-3.896,-3.8175,-3.6981,-3.6783,-3.6389,-3.5735,-3.3826,0.0,-3.4574,-3.2103,-3.1333,-3.2739,-3.1668,0.0,0.0,0.0,0.0,0.0,0.0,0.0,0.0,0.0,0.0,0.0,-3.2856,-3.2437,-3.0813,-3.1478,-3.2085,-3.2262,-3.2053,-3.2218,-3.2937,-3.3184,-3.3578,-3.4138,-3.483,-3.5627,-3.6559,-3.6322,-3.6415,-3.7396,-3.8664,-3.9114,-3.8491,-3.9914,-4.0887,-4.0189,-3.9885,-3.9711,-3.9316,-3.9183,-3.9183,-3.921,-3.8334,-3.7815,-3.7789,-3.701,-3.6676,-3.7036,-3.7186,-3.7437,-3.7965,-3.8016,-3.7742,-3.7866,-3.6606,-3.5559,-3.5699,-3.4411,-3.2984,-3.155,-3.1016,-3.0417,-2.9297,-2.8769,-2.8633,-4.3406,0.0,-4.4752,-4.489,0.0,-4.5139,-4.4063,-4.2113,-4.2387,-4.3266,-4.4489,-4.543,-4.5654,-4.5361,-4.6007,-4.5753,-4.4825,-4.4796,-4.4616,-4.4287,-4.3917,-4.3768,-4.3768,-4.3768,-4.3479,-4.2851,-4.2851,-4.2671,-4.2372,-4.2342,-4.2342,-4.2342,-4.2342,-4.2521,-4.2821,-4.2192,-4.1384,-4.0397,-4.0068,-3.9373,-3.8422,-3.7734,-3.7105,-3.6477,0.0,0.0,0.0,0.0,0.0,0.0,0.0,0.0,0.0,0.0,0.0,-3.3331,-3.4211,-3.4312,-3.3463,-3.4643,-3.4872,-3.3429,-3.3739,-3.3602,-3.2629,-3.2621,-3.3157,-3.437,-3.367,-3.3565,-3.4659,-3.5071,-3.541,-3.5787,-3.6756,-3.7643,-3.804,-3.7941,-3.8147,-3.9007,-3.998,-4.0451,-4.0296,-4.1459,-4.2164,-4.1699,-4.1574,-4.1532,-4.1491,-4.0603,-3.9885,-3.9885,-3.9475,-3.9006,-3.8917,-3.7997,-3.732,-3.7556,-3.7188,-3.7059,-3.7513,-3.7588,-3.7688,-3.784,-3.7171,-3.6576,-3.672,-3.549,-3.4034,-3.3241,-3.2501,-3.1736,-3.0674,-2.9412,-2.834,-4.4155,-4.5395,-4.5661,-4.6041,-4.6389,-4.6161,-4.5613,-4.4939,0.0,0.0,0.0,-4.6844,-4.701,-4.6531,-4.707,-4.6411,-4.4915,-4.5274,-4.5185,-4.4646,-4.4407,-4.4317,-4.4317,-4.4197,-4.3868,-4.3319,-4.329,-4.329,-4.329,-4.329,-4.329,-4.329,-4.329,-4.329,-4.326,-4.2791,-4.2261,-4.1602,-4.0786,-4.0127,-3.9589,-3.8272,-3.7285,-3.6656,-3.5372,-3.4683,-3.4683,-3.4023,-3.3963,-3.4653,-3.4683,-3.4921,-3.5459,-3.5489,-3.5133,-3.438,-3.5037,-3.5133,-3.4346,-3.5034,-3.5133,-3.4312,-3.4395,-3.4395,-3.4308,-3.3567,-3.406,-3.6317,-3.5062,-3.4754,-3.6251,-3.6903,-3.7281,-3.7434,-3.8618,-3.9373,-3.9373,-3.9403,-3.951,-4.0187,-4.0719,-4.1444,-4.2004,-4.2623,-4.321,-4.326,-4.313,-4.329,-4.309,-4.174,-4.0703,-4.0731,-4.0447,-4.0189,-4.0059,-3.9183,-3.8424,-3.8043,-3.7315,-3.6839,-3.6981,-3.7036,-3.7211,-3.7538,-3.7337,-3.7213,-3.7465,-3.6333,-3.5276,-3.5103,-3.4129,-3.3028,-3.2313,-3.0566,-2.9112,-4.5555,-4.6888,-4.8088,-4.8032,-4.7167,-4.8265,-4.8014,-4.683,-4.5627,-4.5824,-4.7062,-4.7222,-4.7249,-4.7189,-4.7279,-4.716,-4.686,-4.6381,-4.607,0.0,-4.4855,-4.4317,-4.4287,-4.3708,-4.3379,-4.329,-4.329,-4.329,-4.329,-4.329,-4.329,-4.329,-4.329,-4.329,-4.329,-4.32,-4.288,-4.2261,-4.1025,-4.0367,-4.0247,-3.896,-3.7943,-3.7255,-3.6028,-3.537,-3.534,-3.4711,-3.4683,-3.531,-3.537,-3.54,-3.5489,-3.5489,-3.5424,-3.5326,-3.5424,-3.5424,-3.5294,-3.5424,-3.5454,-3.5356,-3.5833,-3.5922,-3.5353,-3.5166,-3.5495,-3.6417,-3.6208,-3.6649,-3.7888,-3.8121,-3.8383,-3.8924,-3.9241,-3.9403,-3.9403,-3.9403,-3.9433,-3.9649,-4.0127,-4.0816,-4.1504,-4.2141,-4.2701,-4.311,-4.308,-4.323,-4.319,-4.305,-4.282,-4.267,-4.1988,-4.1462,-4.1253,-4.0404,-3.9376,-3.8243,-3.8043,-3.7474,-3.6814,-3.6628,-3.6631,-3.6656,-3.6656,-3.6631,-3.6659,-3.6438,-3.5767,-3.4992,-3.4381,-3.3866,-3.2833,-3.2028,-3.1316,-4.694,-4.8239,-4.8936,-4.903,-4.8845,-4.879,-4.8177,-4.7296,-4.6682,-4.6726,-4.7266,-4.7309,-4.7309,-4.7309,-4.7309,-4.71,-4.677,-4.6429,-4.6279,-4.6219,-4.5304,-4.4855,-4.4796,-4.4167,-4.3648,-4.3319,-4.329,-4.329,-4.329,-4.329,-4.329,-4.329,-4.329,-4.329,-4.329,-4.329,-4.318,-4.288,-4.1594,-4.0756,-4.0397,-3.908,-3.8242,-3.7943,-3.7015,-3.6387,-3.6028,-3.5729,-3.5549,-3.5489,-3.5489,-3.5489,-3.5489,-3.5489,-3.5489,-3.5519,-3.5848,-3.5878,-3.5519,-3.5489,-3.5669,-3.5998,-3.5968,-3.6148,-3.6507,-3.6237,-3.6297,-3.6896,-3.6985,-3.7524,-3.8781,-3.896,-3.908,-3.9379,-3.9403,-3.9403,-3.9403,-3.9403,-3.9523,-3.9888,-4.0217,-4.0636,-4.1294,-4.1692,-4.1931,-4.2222,-4.2282,-4.2402,-4.2731,-4.2491,-4.2551,-4.3071,-4.286,-4.2589,-4.2467,-4.1545,-4.0632,-4.0074,-3.889,-3.8017,-3.7335,-3.6917,-3.6452,-3.6405,-3.6405,-3.6405,-3.6405,-3.6405,-3.6073,-3.5763,-3.5475,-3.5114,-3.4605,-3.3995,-3.2705,-4.8304,-4.9398,-4.9398,-4.9563,-4.9657,-4.8566,-4.7758,-4.7339,-4.7309,-4.7309,-4.7309,-4.7309,-4.7309,-4.7309,-4.7309,-4.704,-4.6591,-4.6561,-4.6518,-4.6471,-4.5843,-4.5454,-4.5244,-4.4616,-4.3958,-4.3349,-4.329,-4.329,-4.329,-4.329,-4.329,-4.329,-4.329,-4.329,-4.329,-4.329,-4.323,-4.306,-4.2132,-4.1294,-4.0606,-3.9469,-3.8721,-3.8362,-3.7913,-3.7345,-3.6746,-3.6567,-3.6237,-3.5759,-3.5579,-3.5489,-3.5489,-3.5489,-3.5579,-3.5759,-3.6207,-3.6327,-3.5968,-3.5938,-3.6148,-3.6626,-3.6357,-3.6507,-3.7225,-3.7135,-3.7105,-3.7524,-3.7464,-3.7943,-3.911,-3.9409,-3.9403,-3.9403,-3.9403,-3.9403,-3.9403,-3.9403,-3.9589,-4.0098,-4.0187,-4.0397,-4.0965,-4.1145,-4.1362,-4.1662,-4.1512,-4.1692,-4.2171,-4.1841,-4.1893,-4.2551,-4.3,-4.2981,-4.3041,-4.2353,-4.1645,-4.1468,-3.9938,-3.8772,-3.8137,-3.7263,-3.6662,-3.6546,-3.6405,-3.6405,-3.6405,-3.6405,-3.6358,-3.6263,-3.6216,-3.631,-3.6168,-3.5114,-3.3674,-4.9426,-5.0084,-5.01,-4.9447,-4.8476,-4.7728,-4.7369,-4.7309,-4.7309,-4.7309,-4.7309,-4.7309,-4.7309,-4.7309,-4.7309,-4.7249,-4.7189,-4.7219,-4.7189,-4.713,-4.6531,-4.5903,-4.5304,-4.4646,-4.3988,-4.3379,-4.329,-4.329,-4.329,-4.329,-4.329,-4.329,-4.329,-4.329,-4.329,-4.329,-4.306,-4.25,-4.2381,-4.1991,-4.1332,-4.0576,-3.9649,-3.8422,-3.8332,-3.8003,-3.7345,-3.6776,-3.6477,-3.6357,-3.5848,-3.5519,-3.5519,-3.5519,-3.5789,-3.6357,-3.6477,-3.6686,-3.7165,-3.7225,-3.7225,-3.7345,-3.7764,-3.7823,-3.7524,-3.7883,-3.8212,-3.8212,-3.7764,-3.8033,-3.923,-3.9403,-3.9403,-3.9403,-3.9403,-3.9403,-3.9403,-3.9403,-3.9403,-3.9433,-3.9589,-3.9768,-4.0367,-4.0487,-4.0935,-4.1782,-4.1414,-4.1422,-4.1991,-4.1632,-4.1324,-4.1654,-4.2043,-4.244,-4.2432,-4.2462,-4.1853,-4.0995,-4.0519,-3.962,-3.8627,-3.7975,-3.7678,-3.6697,-3.6405,-3.6405,-3.6405,-3.6405,-3.6405,-3.6405,-3.6405,-3.6405,-3.6263,-3.5427,-3.397,-5.0312,-5.0196,-5.0196,-4.9494,-4.8267,-4.7578,-4.7309,-4.7309,-4.7309,-4.7309,-4.7309,-4.7309,-4.7309,-4.7309,-4.7309,-4.7309,-4.7309,-4.7309,-4.7309,-4.7249,-4.6578,-4.6172,-4.5813,-4.4796,-4.4167,-4.3828,-4.3469,-4.329,-4.329,-4.329,-4.329,-4.329,-4.329,-4.329,-4.329,-4.329,-4.317,-4.294,-4.294,-4.2641,-4.2021,-4.1362,-4.0546,-3.9709,-3.9589,-3.905,-3.8093,-3.7734,-3.7434,-3.7045,-3.6746,-3.6626,-3.6626,-3.6626,-3.6746,-3.7015,-3.7045,-3.7315,-3.7943,-3.7644,-3.7584,-3.7973,-3.7853,-3.7973,-3.8512,-3.8123,-3.8123,-3.8781,-3.8392,-3.8392,-3.9224,-3.9403,-3.9403,-3.9403,-3.9403,-3.9403,-3.9403,-3.9403,-3.9403,-3.9403,-3.9403,-3.9463,-3.9738,-3.9828,-4.0038,-4.0546,-4.0367,-4.0576,-4.1055,-4.0636,-4.0636,-4.1145,-4.1324,-4.1422,-4.1722,-4.1811,-4.1543,-4.1096,-4.0437,-3.9543,-3.9173,-3.7997,-3.7292,-3.689,-3.6646,-3.6474,-3.6405,-3.6405,-3.6405,-3.6405,-3.6405,-3.6405,-3.6405,-3.5978,-3.5307,-5.0405,-4.9687,-4.9478,-4.8895,-4.7997,-4.7519,-4.7309,-4.7309,-4.7309,-4.7309,-4.7309,-4.7309,-4.7309,-4.7309,-4.7309,-4.7309,-4.7309,-4.7309,-4.7309,-4.7249,-4.68,-4.6369,-4.5963,-4.5095,-4.4377,-4.4018,-4.3499,-4.3379,-4.3529,-4.3559,-4.3648,-4.3768,-4.3648,-4.3559,-4.3559,-4.3409,-4.329,-4.329,-4.329,-4.309,-4.268,-4.2162,-4.1534,-4.0756,-4.0666,-4.0127,-3.902,-3.8751,-3.8362,-3.7704,-3.7494,-3.7404,-3.7404,-3.7404,-3.7494,-3.7674,-3.7853,-3.8153,-3.8631,-3.8212,-3.8153,-3.8571,-3.8212,-3.8362,-3.902,-3.8512,-3.8422,-3.9134,-3.896,-3.8901,-3.932,-3.9403,-3.9403,-3.9403,-3.9403,-3.9403,-3.9403,-3.9403,-3.9403,-3.9403,-3.9403,-3.9403,-3.9403,-3.9433,-3.9559,-3.9798,-3.9649,-3.9679,-4.0157,-3.9948,-3.9828,-4.0666,-4.0427,-4.0546,-4.1175,-4.1482,-4.1422,-4.127,-4.0626,-4.0157,-3.9812,-3.8545,-3.7414,-3.7429,-3.7051,-3.6658,-3.6452,-3.6405,-3.6355,-3.6355,-3.6304,-3.6279,-3.638,-3.6358,-3.6358,-4.9523,-4.8386,-4.7698,-4.7489,-4.7369,-4.7339,-4.7309,-4.7309,-4.7309,-4.7309,-4.7309,-4.7309,-4.7309,-4.7309,-4.7309,-4.7309,-4.7309,-4.7309,-4.7309,-4.7309,-4.7249,-4.6561,-4.5394,-4.5244,-4.4646,-4.3738,-4.3559,-4.3748,-4.4257,-4.4257,-4.4586,-4.5095,-4.4526,-4.4227,-4.4137,-4.3618,-4.329,-4.329,-4.329,-4.329,-4.323,-4.32,-4.2581,-4.1534,-4.1392,-4.0995,-4.0307,-3.9709,-3.905,-3.8392,-3.7823,-3.7464,-3.7464,-3.7464,-3.7764,-3.8332,-3.8931,-3.9254,-3.9284,-3.9224,-3.9224,-3.9284,-3.923,-3.9284,-3.9343,-3.9224,-3.9194,-3.9373,-3.9313,-3.9313,-3.9373,-3.9403,-3.9403,-3.9403,-3.9403,-3.9403,-3.9403,-3.9403,-3.9403,-3.9403,-3.9403,-3.9403,-3.9403,-3.9403,-3.9679,-3.9948,-3.9768,-3.9619,-4.0038,-3.9798,-3.9553,-3.9553,-3.9642,-3.9918,-4.1055,-4.1085,-4.1145,-4.1077,-4.071,-4.0719,-4.0353,-3.9703,-3.874,-3.7967,-3.7598,-3.7163,-3.6633,-3.6355,-3.6279,-3.6132,-3.5881,-3.5855,-3.6282,-3.6405,-3.6405,-4.9464,-4.8237,-4.7578,-4.7309,-4.7309,-4.7309,-4.7309,-4.7309,-4.7309,-4.7309,-4.7309,-4.7309,-4.7309,-4.7309,-4.7309,-4.7309,-4.7309,-4.7309,-4.7309,-4.7309,-4.7309,-4.704,-4.6591,-4.6172,-4.5753,-4.5274,-4.4796,-4.4706,-4.4825,-4.4526,-4.4646,-4.5095,-4.4646,-4.4317,-4.4287,-4.4077,-4.3708,-4.3349,-4.329,-4.329,-4.329,-4.329,-4.305,-4.2641,-4.2222,-4.1722,-4.1055,-4.0397,-3.9918,-3.9679,-3.905,-3.8656,-3.8691,-3.8691,-3.8781,-3.905,-3.929,-3.9403,-3.9403,-3.9403,-3.9403,-3.9403,-3.9403,-3.9403,-3.9403,-3.9403,-3.9403,-3.9403,-3.9403,-3.9403,-3.9403,-3.9403,-3.9403,-3.9403,-3.9403,-3.9403,-3.9403,-3.9403,-3.9403,-3.9403,-3.9403,-3.9403,-3.9403,-3.9403,-3.9493,-3.9672,-3.9559,-3.9523,-3.9649,-3.9529,-3.9403,-3.9403,-3.9403,-3.9672,-4.0546,-4.0337,-4.0127,-4.0098,-3.9994,-3.995,-3.9681,-3.946,-3.8617,-3.8283,-3.7954,-3.7246,-3.6548,-3.5658,-3.5663,-3.583,-3.5533,-3.5705,-3.6304,-3.638,-3.6405,-4.8775,-4.7967,-4.7489,-4.7309,-4.7309,-4.7309,-4.7309,-4.7309,-4.7309,-4.7309,-4.7309,-4.7309,-4.7309,-4.7309,-4.7309,-4.7309,-4.7309,-4.7309,-4.7309,-4.7309,-4.7309,-4.7189,-4.695,-4.6531,-4.616,-4.5933,-4.5544,-4.5394,-4.5574,-4.5185,-4.5304,-4.5873,-4.5274,-4.4825,-4.4646,-4.4436,-4.3947,-4.3409,-4.329,-4.329,-4.329,-4.329,-4.329,-4.323,-4.291,-4.241,-4.1752,-4.1265,-4.0905,-4.0696,-4.0277,-3.9948,-3.9768,-3.9738,-3.9649,-3.9433,-3.9373,-3.9403,-3.9403,-3.9403,-3.9403,-3.9403,-3.9403,-3.9403,-3.9403,-3.9403,-3.9403,-3.9403,-3.9403,-3.9403,-3.9403,-3.9403,-3.9403,-3.9403,-3.9403,-3.9403,-3.9403,-3.9403,-3.9403,-3.9403,-3.9403,-3.9403,-3.9403,-3.9403,-3.9403,-3.9403,-3.9403,-3.9403,-3.9403,-3.9403,-3.9403,-3.9403,-3.9403,-3.9553,-3.9978,-3.9828,-3.9948,-3.9978,-3.9948,-3.9709,-3.9384,-3.917,-3.89,-3.8617,-3.8038,-3.7202,-3.6253,-3.5212,-3.5097,-3.5399,-3.5332,-3.5378,-3.5881,-3.6405,-3.6405,-4.7369,-4.7369,-4.7309,-4.7309,-4.7309,-4.7309,-4.7309,-4.7309,-4.7309,-4.7309,-4.7309,-4.7309,-4.7309,-4.7309,-4.7309,-4.7309,-4.7309,-4.7309,-4.7309,-4.7309,-4.7309,-4.701,-4.6459,-4.6471,-4.6142,-4.5633,-4.5394,-4.5723,-4.6292,-4.616,-4.6471,-4.698,-4.6381,-4.5693,-4.5244,-4.4616,-4.3947,-4.3439,-4.329,-4.329,-4.329,-4.329,-4.329,-4.329,-4.323,-4.297,-4.241,-4.2321,-4.1961,-4.1444,-4.1332,-4.1055,-4.0487,-4.0397,-4.0127,-3.9679,-3.9493,-3.9463,-3.9463,-3.9493,-3.9493,-3.9493,-3.9433,-3.9403,-3.9403,-3.9403,-3.9403,-3.9403,-3.9403,-3.9403,-3.9403,-3.9403,-3.9403,-3.9403,-3.9403,-3.9403,-3.9403,-3.9403,-3.9403,-3.9403,-3.9403,-3.9403,-3.9403,-3.9403,-3.9403,-3.9403,-3.9403,-3.9403,-3.9403,-3.9403,-3.9403,-3.9403,-3.9403,-3.9493,-3.9463,-3.9433,-3.9858,-4.0127,-4.0098,-3.9948,-3.9649,-3.9358,-3.9245,-3.8975,-3.8581,-3.7727,-3.5939,-3.5037,-3.4876,-3.5012,-3.4992,-3.5203,-3.5881,-3.6405,-3.6405,-4.7309,-4.7309,-4.7309,-4.7309,-4.7309,-4.7309,-4.7309,-4.7309,-4.7309,-4.7309,-4.7309,-4.7309,-4.7309,-4.7309,-4.7309,-4.7309,-4.7309,-4.7309,-4.7309,-4.7309,-4.7309,-4.7189,-4.704,-4.698,-4.689,-4.6711,-4.6681,-4.677,-4.686,-4.6518,-4.6651,-4.698,-4.6202,-4.5544,-4.5304,-4.4646,-4.3988,-4.3379,-4.329,-4.329,-4.329,-4.329,-4.329,-4.329,-4.329,-4.317,-4.303,-4.265,-4.2321,-4.2081,-4.1662,-4.1332,-4.1153,-4.1085,-4.0995,-4.0816,-4.0786,-4.0756,-4.0726,-4.0337,-4.0098,-4.0008,-3.9709,-3.9403,-3.9403,-3.9403,-3.9403,-3.9403,-3.9403,-3.9403,-3.9403,-3.9403,-3.9403,-3.9403,-3.9403,-3.9403,-3.9403,-3.9403,-3.9403,-3.9403,-3.9403,-3.9403,-3.9403,-3.9403,-3.9403,-3.9403,-3.9403,-3.9403,-3.9403,-3.9403,-3.9403,-3.9403,-3.9403,-3.9403,-3.9403,-3.9403,-3.9582,-3.9828,-3.9858,-3.9918,-3.9679,-3.9553,-3.9446,-3.9202,-3.8821,-3.7805,-3.6006,-3.5034,-3.4838,-3.4723,-3.4796,-3.5328,-3.6153,-3.6405,-3.6405,-4.7519,-4.7309,-4.7309,-4.7309,-4.7309,-4.7309,-4.7309,-4.7309,-4.7309,-4.7309,-4.7309,-4.7309,-4.7459,-4.7638,-4.7668,-4.7668,-4.7668,-4.7668,-4.7519,-4.7339,-4.7309,-4.7309,-4.7309,-4.7309,-4.7309,-4.7309,-4.7309,-4.7309,-4.7279,-4.692,-4.689,-4.707,-4.6441,-4.5933,-4.5693,-4.5244,-4.4646,-4.3828,-4.3678,-4.3529,-4.3349,-4.329,-4.329,-4.329,-4.329,-4.329,-4.326,-4.294,-4.2731,-4.2671,-4.2312,-4.2013,-4.1841,-4.1782,-4.1692,-4.1452,-4.1422,-4.1392,-4.1392,-4.0965,-4.0756,-4.0666,-4.0157,-3.9798,-3.9738,-3.9582,-3.9403,-3.9403,-3.9403,-3.9403,-3.9403,-3.9403,-3.9403,-3.9403,-3.9403,-3.9403,-3.9403,-3.9403,-3.9403,-3.9403,-3.9403,-3.9403,-3.9403,-3.9403,-3.9403,-3.9403,-3.9403,-3.9403,-3.9403,-3.9403,-3.9403,-3.9403,-3.9403,-3.9403,-3.9403,-3.9403,-3.9403,-3.9433,-3.9493,-3.9523,-3.9463,-3.9433,-3.9377,-3.9121,-3.8764,-3.7709,-3.6075,-3.5151,-3.4721,-3.4666,-3.4665,-3.5177,-3.578,-3.6279,-3.638,-4.7967,-4.7399,-4.7369,-4.7369,-4.7309,-4.7309,-4.7309,-4.7309,-4.7309,-4.7309,-4.7309,-4.7309,-4.7638,-4.8147,-4.8087,-4.8087,-4.8327,-4.8207,-4.7997,-4.7638,-4.7489,-4.7429,-4.7309,-4.7309,-4.7309,-4.7309,-4.7309,-4.7309,-4.7309,-4.7249,-4.7309,-4.7279,-4.707,-4.689,-4.6219,-4.6219,-4.5454,-4.4526,-4.4287,-4.3917,-4.3439,-4.3319,-4.329,-4.329,-4.329,-4.329,-4.329,-4.323,-4.323,-4.329,-4.314,-4.291,-4.256,-4.244,-4.2171,-4.1713,-4.1572,-4.1624,-4.1564,-4.1504,-4.1444,-4.1384,-4.0846,-4.0427,-4.0277,-3.9888,-3.9582,-3.9553,-3.9469,-3.9433,-3.9463,-3.9403,-3.9433,-3.9463,-3.9463,-3.9403,-3.9403,-3.9403,-3.9403,-3.9403,-3.9403,-3.9403,-3.9403,-3.9403,-3.9403,-3.9403,-3.9403,-3.9403,-3.9403,-3.9403,-3.9403,-3.9403,-3.9403,-3.9403,-3.9403,-3.9403,-3.9403,-3.9403,-3.9403,-3.9403,-3.9403,-3.9403,-3.9403,-3.9119,-3.876,-3.7587,-3.6593,-3.5762,-3.4971,-3.471,-3.4819,-3.5037,-3.5403,-3.5906,-3.6304,-4.8626,-4.8027,-4.8027,-4.7758,-4.7339,-4.7309,-4.7309,-4.7309,-4.7339,-4.7399,-4.7339,-4.7309,-4.7758,-4.8207,-4.7848,-4.8057,-4.8745,-4.8536,-4.861,-4.8656,-4.8237,-4.7758,-4.7399,-4.7309,-4.7309,-4.7309,-4.7309,-4.7309,-4.7309,-4.7309,-4.7309,-4.7279,-4.686,-4.6518,-4.6292,-4.5903,-4.5424,-4.5005,-4.4526,-4.4287,-4.4047,-4.3529,-4.329,-4.329,-4.329,-4.329,-4.329,-4.329,-4.329,-4.329,-4.329,-4.323,-4.306,-4.303,-4.291,-4.2761,-4.2761,-4.2791,-4.2701,-4.2342,-4.2171,-4.2081,-4.1542,-4.0905,-4.0427,-4.0247,-4.0157,-4.0068,-3.9768,-3.9649,-3.9948,-3.9738,-3.9709,-4.0008,-3.9768,-3.9433,-3.9433,-3.9403,-3.9403,-3.9403,-3.9403,-3.9403,-3.9403,-3.9403,-3.9403,-3.9403,-3.9433,-3.9403,-3.9403,-3.9493,-3.9553,-3.9433,-3.9403,-3.9403,-3.9403,-3.9403,-3.9403,-3.9403,-3.9403,-3.9403,-3.9403,-3.9403,-3.9403,-3.9301,-3.9192,-3.8331,-3.7444,-3.6632,-3.5845,-3.4982,-3.4656,-3.4762,-3.5198,-3.5683,-3.6006,-4.9134,-4.8327,-4.8596,-4.8147,-4.7429,-4.7878,-4.7967,-4.7818,-4.8027,-4.8117,-4.8117,-4.8117,-4.8506,-4.9015,-4.8745,-4.8955,-4.9553,-4.9284,-4.9194,-4.9179,-4.891,-4.8207,-4.7519,-4.7309,-4.7309,-4.7309,-4.7309,-4.7309,-4.7309,-4.7309,-4.7309,-4.7249,-4.692,-4.6741,-4.677,-4.6381,-4.5963,-4.5723,-4.5304,-4.4994,-4.4706,-4.4037,-4.3768,-4.3648,-4.3469,-4.329,-4.329,-4.329,-4.329,-4.329,-4.329,-4.329,-4.329,-4.329,-4.329,-4.329,-4.329,-4.329,-4.323,-4.294,-4.2791,-4.2641,-4.2162,-4.1683,-4.1265,-4.0995,-4.0816,-4.0756,-4.0187,-4.0217,-4.0576,-4.0457,-4.0457,-4.0666,-4.0247,-3.9858,-3.9828,-3.9822,-3.9642,-3.9493,-3.9403,-3.9403,-3.9403,-3.9403,-3.9403,-3.9463,-3.9738,-3.9619,-3.9463,-3.9612,-3.9642,-3.9463,-3.9403,-3.9403,-3.9403,-3.9403,-3.9403,-3.9403,-3.9403,-3.9403,-3.9403,-3.9403,-3.9403,-3.9403,-3.9403,-3.9119,-3.8144,-3.7204,-3.6338,-3.5544,-3.4914,-3.4714,-3.5187,-3.5882,-3.6095,-4.9613,-4.8536,-4.9179,-4.8656,-4.7818,-4.8745,-4.891,-4.8566,-4.894,-4.9179,-4.9179,-4.9269,-4.9434,-5.0196,-4.9763,-5.0076,-5.0255,-5.0076,-4.9823,-4.9553,-4.9284,-4.8745,-4.7608,-4.7549,-4.7429,-4.7339,-4.7309,-4.7309,-4.7309,-4.7309,-4.7309,-4.7279,-4.7279,-4.7279,-4.7189,-4.7189,-4.695,-4.6501,-4.6202,-4.5873,-4.5364,-4.4766,-4.4436,-4.4347,-4.3768,-4.3439,-4.3349,-4.329,-4.3369,-4.3488,-4.3369,-4.329,-4.329,-4.329,-4.329,-4.329,-4.329,-4.329,-4.329,-4.323,-4.323,-4.311,-4.2731,-4.244,-4.2201,-4.1782,-4.1444,-4.1302,-4.0756,-4.0636,-4.0995,-4.1272,-4.1482,-4.1444,-4.0995,-4.0786,-4.0576,-4.0427,-4.0098,-3.9582,-3.9463,-3.9403,-3.9493,-3.9493,-3.9523,-3.9858,-4.0038,-4.0038,-3.9888,-3.9858,-3.9738,-3.9433,-3.9403,-3.9403,-3.9403,-3.9403,-3.9403,-3.9403,-3.9403,-3.9403,-3.9403,-3.9403,-3.9403,-3.9403,-3.9403,-3.9119,-3.8509,-3.7615,-3.6805,-3.6258,-3.5722,-3.5414,-3.544,-3.6207,-3.6705,-5.0495,-4.9777,-4.9927,-4.9583,-4.8955,-4.9179,-4.9239,-4.912,-4.9269,-4.9419,-4.9329,-4.9329,-4.9673,-5.0196,-4.9912,-5.0002,-5.0764,-5.0465,-5.0106,-5.0046,-4.9986,-4.9284,-4.8341,-4.8175,-4.7875,-4.7502,-4.7309,-4.7309,-4.7309,-4.7309,-4.7309,-4.7309,-4.7439,-4.7309,-4.7396,-4.7538,-4.7249,-4.701,-4.6664,-4.6364,-4.6052,-4.5507,-4.5199,-4.515,-4.4569,-4.3908,-4.3409,-4.329,-4.3654,-4.4082,-4.3849,-4.3566,-4.3527,-4.3488,-4.3527,-4.3497,-4.3448,-4.3409,-4.3329,-4.3448,-4.3329,-4.3379,-4.3189,-4.291,-4.244,-4.2321,-4.1931,-4.1482,-4.0786,-4.0666,-4.0876,-4.1662,-4.2081,-4.2201,-4.2312,-4.2312,-4.1833,-4.0606,-4.0008,-3.9978,-3.9672,-3.9582,-4.0068,-4.0038,-4.0098,-4.0247,-4.0367,-4.0487,-4.0337,-4.0157,-3.9888,-3.9553,-3.9403,-3.9403,-3.9403,-3.9403,-3.9403,-3.9403,-3.9403,-3.9403,-3.9403,-3.9403,-3.9403,-3.9403,-3.9403,-3.9017,-3.8694,-3.8256,-3.7539,-3.7028,-3.6563,-3.6443,-3.6469,-3.6983,-3.7347,-5.0794,-5.0255,-5.0524,-5.0152,-4.9509,-4.9883,-5.0002,-4.9823,-5.0062,-5.0182,-5.0182,-5.0182,-5.0391,-5.0614,-5.0361,-5.0631,-5.099,-5.09,-5.0674,-5.0829,-5.1091,-5.0638,-4.9658,-4.9652,-4.9431,-4.7731,-4.7309,-4.7309,-4.7309,-4.7352,-4.7309,-4.7396,-4.7764,-4.803,-4.8157,-4.8418,-4.8501,-4.8054,-4.7684,-4.7262,-4.6779,-4.6626,-4.6637,-4.6708,-4.6346,-4.5858,-4.5135,-4.5133,-4.5194,-4.5146,-4.4892,-4.4668,-4.4668,-4.4637,-4.4637,-4.4637,-4.4637,-4.4637,-4.4637,-4.4282,-4.4043,-4.3927,-4.3576,-4.3189,-4.291,-4.2821,-4.2701,-4.2252,-4.1803,-4.1354,-4.1384,-4.2162,-4.2731,-4.2791,-4.2821,-4.2851,-4.2551,-4.1354,-4.0277,-4.0307,-3.9828,-3.9888,-4.0098,-4.0307,-4.0576,-4.0696,-4.0935,-4.0995,-4.0606,-4.0397,-4.0127,-3.9828,-3.9523,-3.9403,-3.9403,-3.9403,-3.9403,-3.9403,-3.9403,-3.9403,-3.9403,-3.9403,-3.9403,-3.9403,-3.9403,-3.9403,-3.9053,-3.862,-3.8219,-3.7615,-3.7286,-3.7326,-3.7451,-3.7579,-3.7973,-5.0853,-5.0405,-5.099,-5.0571,-4.9868,-5.072,-5.087,-5.0465,-5.0913,-5.105,-5.1199,-5.1229,-5.1079,-5.1169,-5.1139,-5.1199,-5.1199,-5.1199,-5.1156,-5.1606,-5.2273,-5.1765,-5.1059,-5.1278,-5.0743,-4.8013,-4.8019,-4.7934,-4.7722,-4.7722,-4.8157,-4.803,-4.8625,-4.9044,-4.9256,-4.9813,-4.9813,-4.9135,-4.8982,-4.8666,-4.8118,-4.81,-4.8333,-4.8269,-4.8291,-4.7801,-4.7132,-4.705,-4.7061,-4.6398,-4.6598,-4.674,-4.6719,-4.6276,-4.6208,-4.6138,-4.5961,-4.571,-4.5452,-4.5227,-4.4893,-4.4699,-4.4082,-4.3488,-4.3309,-4.32,-4.309,-4.291,-4.2491,-4.2201,-4.241,-4.2851,-4.317,-4.317,-4.2791,-4.2821,-4.294,-4.2192,-4.1175,-4.0606,-4.0008,-3.9798,-4.0187,-4.0487,-4.0846,-4.1175,-4.1414,-4.1444,-4.1055,-4.0696,-4.0457,-4.0008,-3.9642,-3.9403,-3.9403,-3.9403,-3.9403,-3.9403,-3.9403,-3.9403,-3.9403,-3.9403,-3.9403,-3.9403,-3.9403,-3.9403,-3.9403,-3.9156,-3.8657,-3.8144,-3.8138,-3.8275,-3.8239,-3.8162,-3.8751,-5.1122,-5.1079,-5.1122,-5.1079,-5.093,-5.1139,-5.1139,-5.1079,-5.1139,-5.1229,-5.1229,-5.1229,-5.1229,-5.1229,-5.1229,-5.1229,-5.1293,-5.1572,-5.188,-5.253,-5.3015,-5.2617,-5.2418,-5.2692,-5.1718,-5.0398,-4.9947,-4.9684,-4.9025,-4.9376,-4.9739,-4.9908,-5.0073,-5.019,-5.026,-5.0358,-5.055,-5.0204,-5.0126,-4.9931,-4.9671,-4.974,-4.9777,-4.9586,-4.9595,-4.9116,-4.8482,-4.8295,-4.8458,-4.9029,-4.9176,-4.9258,-4.8895,-4.7496,-4.6649,-4.6486,-4.6585,-4.6509,-4.5941,-4.5877,-4.5042,-4.4205,-4.4197,-4.412,-4.3654,-4.3379,-4.3434,-4.2908,-4.2659,-4.244,-4.241,-4.297,-4.323,-4.326,-4.32,-4.311,-4.2991,-4.2312,-4.1474,-4.1175,-4.0397,-3.9828,-4.0397,-4.0935,-4.1354,-4.1773,-4.2132,-4.1923,-4.1512,-4.1175,-4.0905,-4.0367,-3.9762,-3.9553,-3.9403,-3.9403,-3.9403,-3.9403,-3.9403,-3.9403,-3.9403,-3.9403,-3.9403,-3.9403,-3.9403,-3.9403,-3.9403,-3.9403,-3.9228,-3.8797,-3.8959,-3.9187,-3.9115,-3.9093,-3.9994,-5.1229,-5.1229,-5.1229,-5.1229,-5.1229,-5.1229,-5.1229,-5.1229,-5.1229,-5.1229,-5.1229,-5.1229,-5.1229,-5.1229,-5.1229,-5.1479,-5.2018,-5.2767,-5.3221,-5.3828,-5.4284,-5.4176,-5.3842,-5.4248,-5.3526,-5.276,-5.2633,-5.1961,-5.0454,-5.1081,-5.1545,-5.1584,-5.1668,-5.1745,-5.1764,-5.1973,-5.1623,-5.1373,-5.1187,-5.0925,-5.0589,-5.0855,-5.1149,-5.149,-5.1394,-5.1054,-5.0399,-5.0371,-5.0342,-5.0345,-5.0424,-5.0558,-5.0221,-4.9591,-4.8397,-4.7869,-4.7935,-4.7999,-4.7454,-4.7659,-4.7033,-4.6326,-4.5886,-4.5337,-4.4974,-4.4794,-4.4332,-4.3724,-4.3007,-4.2851,-4.291,-4.314,-4.326,-4.329,-4.329,-4.329,-4.308,-4.2402,-4.2013,-4.1752,-4.0876,-4.0546,-4.0995,-4.1474,-4.1923,-4.2342,-4.2761,-4.2432,-4.1901,-4.1422,-4.1025,-4.0397,-3.9762,-3.9553,-3.9403,-3.9403,-3.9403,-3.9403,-3.9403,-3.9403,-3.9403,-3.9403,-3.9403,-3.9403,-3.9403,-3.9403,-3.9403,-3.9403,-3.9403,-3.9403,-3.9324,-3.9377,-3.9719,-4.021,-4.0756,-5.1229,-5.1229,-5.1229,-5.1229,-5.1229,-5.1229,-5.1229,-5.1229,-5.1229,-5.1229,-5.1229,-5.1229,-5.1229,-5.1229,-5.1339,-5.1819,-5.29,-5.3785,-5.4253,-5.5011,-5.5578,-5.5593,-5.5614,-5.5852,-5.5662,-5.4273,-5.4941,-5.4556,-5.2616,-5.2915,-5.3201,-5.3346,-5.3478,-5.3536,-5.3615,-5.3738,-5.3268,-5.279,-5.2404,-5.1937,-5.148,-5.1813,-5.2592,-5.3416,-5.3518,-5.294,-5.2186,-5.2199,-5.1966,-5.1662,-5.1564,-5.1624,-5.1455,-5.1388,-5.0779,-4.983,-5.0033,-5.0071,-4.9385,-4.9324,-4.8462,-4.7378,-4.7114,-4.6679,-4.6103,-4.5782,-4.5638,-4.4856,-4.4174,-4.3437,-4.3289,-4.329,-4.329,-4.329,-4.329,-4.326,-4.311,-4.2761,-4.2381,-4.1901,-4.1205,-4.1235,-4.1692,-4.1871,-4.2222,-4.2491,-4.288,-4.262,-4.2021,-4.1265,-4.0786,-4.0217,-3.9732,-3.9493,-3.9403,-3.9403,-3.9403,-3.9403,-3.9403,-3.9403,-3.9403,-3.9403,-3.9403,-3.9403,-3.9403,-3.9403,-3.9403,-3.9403,-3.9403,-3.9403,-3.9403,-3.9463,-3.9642,-3.9858,-4.0217,-5.1229,-5.1229,-5.1229,-5.1229,-5.1229,-5.1229,-5.1229,-5.1229,-5.1229,-5.1229,-5.1229,-5.1229,-5.1229,-5.1339,-5.1386,-5.1972,-5.2856,-5.3656,-5.4681,-5.5929,-5.6282,-5.6473,-5.6489,-5.6651,-5.6487,-5.5673,-5.6241,-5.5512,-5.4485,-5.4889,-5.5252,-5.5288,-5.5219,-5.5336,-5.5196,-5.5103,-5.5038,-5.436,-5.419,-5.3818,-5.3142,-5.311,-5.3314,-5.345,-5.3484,-5.3382,-5.3144,-5.318,-5.3045,-5.3078,-5.3079,-5.2841,-5.2334,-5.2164,-5.1758,-5.1185,-5.0816,-5.0186,-4.8992,-4.9422,-4.9227,-4.8193,-4.7791,-4.7454,-4.6957,-4.648,-4.6088,-4.4924,-4.4586,-4.4205,-4.3615,-4.3329,-4.329,-4.329,-4.329,-4.329,-4.32,-4.303,-4.2641,-4.256,-4.2043,-4.2043,-4.2321,-4.241,-4.25,-4.2731,-4.2851,-4.262,-4.2201,-4.1474,-4.0516,-3.9948,-3.9642,-3.9463,-3.9403,-3.9403,-3.9403,-3.9403,-3.9403,-3.9403,-3.9403,-3.9403,-3.9403,-3.9403,-3.9403,-3.9403,-3.9403,-3.9403,-3.9403,-3.9403,-3.9403,-3.9403,-3.9403,-3.9612,-3.9792,-5.1558,-5.1229,-5.1229,-5.1229,-5.1229,-5.1229,-5.1229,-5.1229,-5.1229,-5.1229,-5.1229,-5.1229,-5.1496,-5.2109,-5.2798,-5.3785,-5.4723,-5.5256,-5.6126,-5.6854,-5.7118,-5.7241,-5.7364,-5.7408,-5.7137,-5.7103,-5.7169,-5.7198,-5.6572,-5.6578,-5.6934,-5.6833,-5.6528,-5.6254,-5.6258,-5.5919,-5.5581,-5.514,-5.4803,-5.4228,-5.3687,-5.3518,-5.3518,-5.3518,-5.3518,-5.3518,-5.3518,-5.3518,-5.3518,-5.3518,-5.3518,-5.3382,-5.3078,-5.2942,-5.2638,-5.1961,-5.23,-5.1797,-5.0759,-5.1021,-5.0192,-4.9426,-4.9227,-4.8893,-4.8035,-4.7599,-4.7257,-4.6518,-4.5374,-4.4662,-4.4128,-4.3645,-4.3369,-4.3329,-4.3448,-4.3409,-4.3379,-4.318,-4.297,-4.294,-4.292,-4.2899,-4.2917,-4.3016,-4.3055,-4.3136,-4.3139,-4.288,-4.2432,-4.1863,-4.0756,-3.9582,-3.9463,-3.9403,-3.9403,-3.9403,-3.9403,-3.9403,-3.9403,-3.9403,-3.9403,-3.9403,-3.9403,-3.9403,-3.9403,-3.9403,-3.9403,-3.9403,-3.9403,-3.9403,-3.9403,-3.9403,-3.9403,-3.9403,-3.9702,-5.1678,-5.1259,-5.1558,-5.1708,-5.1708,-5.1708,-5.1618,-5.1468,-5.1498,-5.1379,-5.1323,-5.1496,-5.2124,-5.2989,-5.3956,-5.4929,-5.6093,-5.7076,-5.7628,-5.7808,-5.7881,-5.7811,-5.778,-5.7814,-5.7949,-5.8186,-5.8118,-5.818,-5.8318,-5.822,-5.8017,-5.7881,-5.7306,-5.7103,-5.6934,-5.663,-5.6224,-5.5581,-5.4938,-5.4228,-5.3653,-5.3518,-5.3518,-5.3518,-5.3518,-5.3518,-5.3518,-5.3518,-5.3518,-5.3518,-5.3518,-5.3484,-5.3416,-5.3348,-5.3179,-5.2773,-5.3078,-5.301,-5.2369,-5.2199,-5.1928,-5.1319,-5.0845,-5.0178,-4.9944,-4.9491,-4.8695,-4.78,-4.6585,-4.5665,-4.5005,-4.4282,-4.3927,-4.3849,-4.381,-4.3693,-4.3693,-4.3728,-4.3706,-4.3667,-4.3667,-4.3494,-4.3542,-4.3642,-4.3672,-4.3633,-4.3446,-4.3169,-4.2569,-4.1948,-4.1003,-3.9738,-3.9433,-3.9403,-3.9403,-3.9403,-3.9403,-3.9403,-3.9403,-3.9403,-3.9403,-3.9403,-3.9403,-3.9403,-3.9403,-3.9403,-3.9403,-3.9403,-3.9403,-3.9403,-3.9403,-3.9403,-3.9403,-3.9433,-3.9672,-5.1259,-5.1319,-5.2516,-5.2965,-5.2935,-5.3025,-5.2636,-5.2127,-5.2127,-5.1798,-5.149,-5.2215,-5.2723,-5.3265,-5.4295,-5.5369,-5.6282,-5.6321,-5.7076,-5.7665,-5.7881,-5.7949,-5.7983,-5.8084,-5.8355,-5.8761,-5.8896,-5.9302,-5.9573,-5.9099,-5.8592,-5.7949,-5.7746,-5.778,-5.7679,-5.7408,-5.6765,-5.6021,-5.5243,-5.4499,-5.3923,-5.3653,-5.3585,-5.3551,-5.3551,-5.3518,-5.3518,-5.3518,-5.3518,-5.3518,-5.3518,-5.3518,-5.3518,-5.3518,-5.3348,-5.3348,-5.3348,-5.3382,-5.3179,-5.2739,-5.1995,-5.1488,-5.1217,-5.1251,-5.1185,-5.0509,-4.9687,-4.8829,-4.7761,-4.6959,-4.6195,-4.5342,-4.4743,-4.4668,-4.4668,-4.4668,-4.4668,-4.4668,-4.4637,-4.451,-4.4434,-4.4365,-4.4441,-4.4631,-4.4668,-4.46,-4.4051,-4.3746,-4.244,-4.167,-4.0965,-4.0104,-3.9619,-3.9433,-3.9403,-3.9403,-3.9403,-3.9403,-3.9403,-3.9403,-3.9403,-3.9403,-3.9403,-3.9403,-3.9403,-3.9403,-3.9403,-3.9403,-3.9403,-3.9403,-3.9433,-3.9709,-3.9732,-3.9762,-4.0098,-5.2067,-5.2456,-5.2995,-5.2965,-5.2576,-5.2576,-5.2665,-5.2785,-5.2785,-5.2426,-5.1815,-5.2565,-5.3296,-5.4084,-5.5093,-5.6204,-5.7114,-5.726,-5.7554,-5.7904,-5.8254,-5.8254,-5.8321,-5.8626,-5.9235,-5.9201,-5.9438,-5.9742,-5.9945,-5.981,-5.9268,-5.8693,-5.8287,-5.7915,-5.7881,-5.7848,-5.7239,-5.663,-5.6055,-5.5581,-5.4938,-5.4363,-5.416,-5.416,-5.3619,-5.3551,-5.3518,-5.3518,-5.3518,-5.3518,-5.3518,-5.3518,-5.3518,-5.3518,-5.3518,-5.3518,-5.3518,-5.3518,-5.3518,-5.3145,-5.2706,-5.2097,-5.1894,-5.186,-5.1961,-5.142,-5.1053,-5.0191,-4.9061,-4.813,-4.7756,-4.6532,-4.567,-4.567,-4.567,-4.567,-4.567,-4.567,-4.5634,-4.5561,-4.5525,-4.5457,-4.5561,-4.567,-4.567,-4.5602,-4.4961,-4.4184,-4.2959,-4.1876,-4.1358,-4.0507,-3.9948,-3.9582,-3.9523,-3.9463,-3.9403,-3.9409,-3.9409,-3.9445,-3.9481,-3.9439,-3.9439,-3.9439,-3.9403,-3.9403,-3.9403,-3.9403,-3.9433,-3.9523,-3.9888,-4.0247,-4.0247,-4.0187,-4.0606,-5.2396,-5.3114,-5.2965,-5.2995,-5.3054,-5.2875,-5.3054,-5.3384,-5.3234,-5.2665,-5.203,-5.3049,-5.3942,-5.4861,-5.6159,-5.7001,-5.7766,-5.8011,-5.8014,-5.822,-5.849,-5.849,-5.8558,-5.8896,-5.9438,-5.9471,-6.008,-6.0554,-6.0926,-6.0588,-6.0216,-5.9674,-5.893,-5.8524,-5.7881,-5.7848,-5.7509,-5.6968,-5.6765,-5.6461,-5.5683,-5.4972,-5.4566,-5.4431,-5.3856,-5.3551,-5.3518,-5.3518,-5.3518,-5.3518,-5.3518,-5.3518,-5.3518,-5.3518,-5.3518,-5.3518,-5.3518,-5.3518,-5.3518,-5.345,-5.3247,-5.2773,-5.2672,-5.2401,-5.2164,-5.2164,-5.1761,-5.1458,-5.0225,-4.936,-4.9161,-4.7859,-4.6888,-4.6789,-4.6625,-4.6625,-4.6592,-4.6592,-4.6592,-4.6592,-4.6419,-4.6138,-4.6763,-4.6831,-4.6555,-4.6523,-4.6255,-4.533,-4.3969,-4.2984,-4.2273,-4.1321,-4.0277,-3.9978,-3.9702,-3.9553,-3.9439,-3.9589,-3.9589,-3.9595,-3.9625,-3.9589,-3.9481,-3.9403,-3.9403,-3.9403,-3.9529,-3.9679,-3.9738,-3.9768,-4.0247,-4.0846,-4.0846,-4.0876,-4.1265,-5.2037,-5.3103,-5.2546,-5.3354,-5.476,-5.4401,-5.4181,-5.4288,-5.3754,-5.2959,-5.2381,-5.4335,-5.5165,-5.5401,-5.6977,-5.783,-5.8146,-5.866,-5.8727,-5.8524,-5.9066,-5.8693,-5.866,-5.9066,-6.0047,-6.025,-6.0858,-6.1569,-6.211,-6.1535,-6.1197,-6.0791,-6.0013,-5.9167,-5.8017,-5.7915,-5.7509,-5.6934,-5.69,-5.6528,-5.6021,-5.531,-5.5006,-5.4634,-5.4059,-5.3754,-5.3518,-5.3518,-5.3518,-5.3518,-5.3518,-5.3518,-5.3518,-5.3518,-5.3518,-5.3518,-5.3518,-5.3518,-5.3518,-5.3518,-5.3416,-5.3315,-5.3213,-5.3179,-5.3145,-5.2875,-5.2435,-5.2233,-5.146,-5.0752,-5.0054,-4.9259,-4.8497,-4.8133,-4.8034,-4.8001,-4.8067,-4.7836,-4.7869,-4.7836,-4.7033,-4.6592,-4.7506,-4.7999,-4.7572,-4.7373,-4.734,-4.6465,-4.5052,-4.4029,-4.3262,-4.1955,-4.0842,-4.0504,-4.0203,-3.9655,-3.9475,-3.9661,-3.9809,-3.992,-4.0025,-4.01,-3.992,-3.9625,-3.9811,-4.0147,-4.0082,-4.0014,-4.0337,-4.0756,-4.1025,-4.1452,-4.1452,-4.1572,-4.1931,-5.2366,-5.3144,-5.2935,-5.3743,-5.4999,-5.4491,-5.4847,-5.5862,-5.5689,-5.5475,-5.555,-5.6159,-5.6311,-5.6863,-5.7768,-5.8626,-5.8795,-5.937,-5.9471,-5.9471,-6.0047,-5.9945,-5.9844,-6.025,-6.096,-6.1129,-6.1637,-6.2009,-6.2347,-6.1941,-6.1637,-6.1264,-6.0655,-5.9607,-5.8896,-5.8558,-5.8287,-5.7679,-5.7509,-5.7374,-5.707,-5.6393,-5.5784,-5.5344,-5.46,-5.3991,-5.3585,-5.3585,-5.3518,-5.3518,-5.3518,-5.3518,-5.3518,-5.3518,-5.3518,-5.3518,-5.3518,-5.3518,-5.3518,-5.3518,-5.3518,-5.3518,-5.3518,-5.3518,-5.3416,-5.3315,-5.3145,-5.2942,-5.2367,-5.1826,-5.146,-5.0821,-5.0223,-5.0189,-5.0122,-5.0122,-5.0055,-4.9551,-4.9317,-4.9149,-4.8594,-4.8066,-4.845,-4.8545,-4.8225,-4.8161,-4.8161,-4.744,-4.6149,-4.5104,-4.424,-4.2654,-4.1523,-4.1176,-4.0806,-4.0543,-4.0379,-4.0532,-4.0539,-4.0447,-4.0519,-4.0851,-4.1016,-4.1106,-4.1013,-4.1014,-4.1102,-4.1273,-4.1565,-4.1901,-4.1991,-4.2051,-4.2081,-4.2201,-4.2372,-5.2984,-5.4074,-5.3699,-5.4428,-5.5538,-5.466,-5.5141,-5.6464,-5.6752,-5.7039,-5.7302,-5.7266,-5.7456,-5.8038,-5.8806,-5.9404,-5.9471,-6.0182,-6.0182,-6.0283,-6.0926,-6.0588,-6.0689,-6.1332,-6.1366,-6.1535,-6.1738,-6.2076,-6.2347,-6.211,-6.1907,-6.1637,-6.1129,-6.0622,-6.0013,-5.9573,-5.8829,-5.8254,-5.7949,-5.8084,-5.7679,-5.7137,-5.6528,-5.5919,-5.5175,-5.4363,-5.3957,-5.3687,-5.3518,-5.3518,-5.3518,-5.3518,-5.3518,-5.3518,-5.3518,-5.3518,-5.3518,-5.3518,-5.3518,-5.3518,-5.3518,-5.3518,-5.3518,-5.3518,-5.3518,-5.345,-5.345,-5.3281,-5.2942,-5.2604,-5.2266,-5.1725,-5.1557,-5.1455,-5.1252,-5.1186,-5.1017,-5.0479,-5.0004,-4.9866,-4.9461,-4.9221,-4.9018,-4.8987,-4.8798,-4.8861,-4.8923,-4.8082,-4.7206,-4.6289,-4.5319,-4.3913,-4.2878,-4.2762,-4.2326,-4.1731,-4.1588,-4.1541,-4.1547,-4.1551,-4.1808,-4.2263,-4.2427,-4.2588,-4.2604,-4.2601,-4.2509,-4.264,-4.2591,-4.2543,-4.2521,-4.2581,-4.271,-4.2761,-4.2821,-5.3749,-5.5672,-5.4801,-5.5457,-5.6597,-5.5378,-5.5298,-5.6295,-5.6965,-5.7277,-5.7259,-5.8971,-5.9124,-5.8913,-5.9732,-6.011,-6.0317,-6.0994,-6.0892,-6.0723,-6.1264,-6.0858,-6.0858,-6.1197,-6.1569,-6.1501,-6.1501,-6.1839,-6.2245,-6.2009,-6.1975,-6.2178,-6.2076,-6.1535,-6.0926,-6.0486,-5.9505,-5.8727,-5.8693,-5.8558,-5.7949,-5.7442,-5.7036,-5.6461,-5.5649,-5.4905,-5.4397,-5.4025,-5.3687,-5.3551,-5.3518,-5.3518,-5.3518,-5.3518,-5.3518,-5.3518,-5.3518,-5.3518,-5.3518,-5.3518,-5.3518,-5.3518,-5.3518,-5.3518,-5.3518,-5.3518,-5.3518,-5.3518,-5.3281,-5.2909,-5.2503,-5.2334,-5.2131,-5.1861,-5.1591,-5.1489,-5.1354,-5.0948,-5.0439,-4.9999,-4.9424,-4.912,-4.9018,-4.9018,-4.9018,-4.9018,-4.8987,-4.8668,-4.7893,-4.7473,-4.6514,-4.5617,-4.4822,-4.4601,-4.4022,-4.325,-4.3032,-4.3037,-4.3202,-4.3263,-4.349,-4.3524,-4.3781,-4.3976,-4.417,-4.4216,-4.4067,-4.3707,-4.3339,-4.3229,-4.2989,-4.2791,-4.2731,-4.303,-4.314,-5.4885,-5.6093,-5.7027,-5.7835,-5.8191,-5.768,-5.8178,-5.9285,-5.9858,-6.0255,-6.0772,-6.0141,-6.0147,-6.0505,-6.0844,-6.0921,-6.1231,-6.1603,-6.1839,-6.1873,-6.1806,-6.1839,-6.1839,-6.1873,-6.2042,-6.1839,-6.1704,-6.1637,-6.2212,-6.2042,-6.2042,-6.2347,-6.2415,-6.1941,-6.167,-6.1569,-6.0283,-5.9438,-5.9539,-5.8964,-5.8457,-5.8118,-5.7645,-5.69,-5.6393,-5.5615,-5.4769,-5.4465,-5.4093,-5.3585,-5.3551,-5.3518,-5.3518,-5.3518,-5.3518,-5.3518,-5.3518,-5.3518,-5.3518,-5.3518,-5.3518,-5.3518,-5.3518,-5.3518,-5.3518,-5.3518,-5.3518,-5.3518,-5.3518,-5.3179,-5.3044,-5.2909,-5.2807,-5.2638,-5.2435,-5.2401,-5.2198,-5.1555,-5.1014,-5.027,-4.9695,-4.9086,-4.9018,-4.9018,-4.9018,-4.9018,-4.8923,-4.8767,-4.8545,-4.8096,-4.7539,-4.6617,-4.6254,-4.5895,-4.5438,-4.4722,-4.4626,-4.4624,-4.4609,-4.4561,-4.4443,-4.4576,-4.5024,-4.539,-4.5632,-4.5664,-4.5585,-4.5074,-4.4254,-4.3524,-4.314,-4.297,-4.288,-4.315,-4.329,-5.621,-5.7465,-5.839,-5.9036,-5.9478,-5.9522,-6.0204,-6.1176,-6.1093,-6.1507,-6.2245,-6.1429,-6.1264,-6.1631,-6.1738,-6.1738,-6.1772,-6.2076,-6.2279,-6.2279,-6.2415,-6.2313,-6.2381,-6.2381,-6.211,-6.1907,-6.167,-6.1501,-6.1975,-6.2313,-6.2381,-6.2381,-6.2415,-6.2144,-6.1975,-6.1941,-6.1434,-6.0655,-6.0114,-5.9573,-5.9133,-5.8761,-5.8118,-5.7476,-5.707,-5.6122,-5.5243,-5.504,-5.4532,-5.3822,-5.3687,-5.3754,-5.3653,-5.3518,-5.3518,-5.3518,-5.3518,-5.3518,-5.3518,-5.3518,-5.3518,-5.3518,-5.3518,-5.3518,-5.3518,-5.3518,-5.3518,-5.3518,-5.3518,-5.3484,-5.3484,-5.3484,-5.3484,-5.345,-5.345,-5.345,-5.2909,-5.2266,-5.1488,-5.0676,-4.9965,-4.9255,-4.9018,-4.9018,-4.9018,-4.9018,-4.9018,-4.8923,-4.8829,-4.8608,-4.8115,-4.7428,-4.7238,-4.7076,-4.6583,-4.6255,-4.6216,-4.5974,-4.546,-4.538,-4.5327,-4.5424,-4.5775,-4.6438,-4.7111,-4.6848,-4.6322,-4.5822,-4.5102,-4.4167,-4.329,-4.314,-4.309,-4.318,-4.3299,-5.7611,-5.958,-5.9263,-5.9827,-6.0661,-6.0745,-6.1358,-6.2223,-6.1291,-6.1399,-6.2268,-6.2347,-6.2245,-6.2245,-6.2245,-6.2245,-6.2245,-6.2347,-6.2415,-6.2415,-6.2415,-6.2415,-6.2415,-6.2381,-6.2178,-6.167,-6.1366,-6.14,-6.1535,-6.1975,-6.2415,-6.2415,-6.2415,-6.2279,-6.2279,-6.2313,-6.1907,-6.1467,-6.1061,-6.0655,-5.9539,-5.9032,-5.8761,-5.8017,-5.734,-5.6596,-5.6021,-5.5581,-5.5141,-5.4465,-5.4126,-5.4329,-5.3923,-5.3518,-5.3518,-5.3518,-5.3518,-5.3518,-5.3518,-5.3518,-5.3518,-5.3518,-5.3518,-5.3518,-5.3518,-5.3518,-5.3518,-5.3518,-5.3518,-5.3518,-5.3518,-5.3518,-5.3518,-5.3518,-5.3518,-5.3518,-5.3247,-5.2435,-5.1454,-5.0676,-4.9932,-4.9289,-4.9018,-4.9018,-4.9018,-4.9018,-4.9018,-4.9018,-4.9021,-4.8894,-4.8661,-4.8192,-4.8073,-4.7952,-4.7845,-4.7611,-4.7765,-4.7443,-4.6701,-4.6435,-4.6492,-4.6511,-4.6452,-4.7241,-4.7964,-4.7341,-4.6765,-4.6138,-4.5269,-4.3935,-4.329,-4.329,-4.329,-4.326,-4.3299,-5.9334,-6.0439,-6.1209,-6.1716,-6.1951,-6.1991,-6.207,-6.2381,-6.211,-6.207,-6.2381,-6.2415,-6.2415,-6.2415,-6.2415,-6.2415,-6.2415,-6.2415,-6.2415,-6.2415,-6.2415,-6.2415,-6.2415,-6.2381,-6.2212,-6.2009,-6.1704,-6.1332,-6.1569,-6.2042,-6.2415,-6.2415,-6.2415,-6.2415,-6.2415,-6.2415,-6.2245,-6.1975,-6.1907,-6.1264,-6.008,-5.9742,-5.9471,-5.8727,-5.7983,-5.7205,-5.6731,-5.6461,-5.5987,-5.5446,-5.5378,-5.504,-5.4397,-5.3822,-5.3551,-5.3518,-5.3518,-5.3518,-5.3518,-5.3518,-5.3518,-5.3518,-5.3518,-5.3518,-5.3518,-5.3518,-5.3518,-5.3518,-5.3518,-5.3518,-5.3518,-5.3518,-5.3518,-5.3518,-5.3518,-5.3518,-5.3484,-5.2503,-5.142,-5.0642,-4.9898,-4.9492,-4.9187,-4.9018,-4.9018,-4.9018,-4.9018,-4.9052,-4.912,-4.9092,-4.9193,-4.8889,-4.8754,-4.8692,-4.868,-4.8578,-4.8511,-4.8511,-4.7909,-4.777,-4.7597,-4.7394,-4.7225,-4.8105,-4.8601,-4.7901,-4.7104,-4.6384,-4.5342,-4.4013,-4.329,-4.329,-4.329,-4.329,-4.329,-6.0291,-6.1406,-6.211,-6.2415,-6.2415,-6.2415,-6.2415,-6.2415,-6.2415,-6.2415,-6.2415,-6.2415,-6.2415,-6.2415,-6.2415,-6.2381,-6.2381,-6.2415,-6.2415,-6.2415,-6.2415,-6.2415,-6.2415,-6.2381,-6.2042,-6.1873,-6.1603,-6.1434,-6.1772,-6.2076,-6.2415,-6.2415,-6.2415,-6.2415,-6.2415,-6.2415,-6.2415,-6.2381,-6.2415,-6.1704,-6.0588,-6.025,-5.9742,-5.9032,-5.8287,-5.7543,-5.7205,-5.6968,-5.6596,-5.6021,-5.5683,-5.5243,-5.4668,-5.4228,-5.3856,-5.3619,-5.3518,-5.3518,-5.3518,-5.3518,-5.3518,-5.3518,-5.3518,-5.3518,-5.3518,-5.3518,-5.3518,-5.3518,-5.3518,-5.3518,-5.3518,-5.3518,-5.3518,-5.3518,-5.3518,-5.3518,-5.3281,-5.2672,-5.1725,-5.0947,-5.0304,-4.9864,-4.9526,-4.912,-4.9187,-4.9593,-4.9526,-4.9492,-4.9526,-4.956,-4.956,-4.9492,-4.939,-4.912,-4.8883,-4.8849,-4.8883,-4.8883,-4.8815,-4.8105,-4.7496,-4.7736,-4.8041,-4.8511,-4.8661,-4.8289,-4.7506,-4.673,-4.5742,-4.4548,-4.381,-4.329,-4.329,-4.3319,-4.3349,-6.0772,-6.2308,-6.2381,-6.2415,-6.2415,-6.2415,-6.2415,-6.2415,-6.2415,-6.2415,-6.2415,-6.2415,-6.2415,-6.2381,-6.2279,-6.2313,-6.2279,-6.211,-6.2178,-6.2381,-6.2415,-6.2415,-6.2415,-6.2381,-6.2076,-6.1839,-6.1637,-6.1907,-6.2279,-6.2415,-6.2415,-6.2415,-6.2415,-6.2415,-6.2415,-6.2415,-6.2415,-6.2415,-6.2313,-6.1975,-6.1264,-6.052,-5.9776,-5.9032,-5.8287,-5.7577,-5.734,-5.7239,-5.7002,-5.6596,-5.6021,-5.5513,-5.5006,-5.46,-5.4025,-5.3721,-5.3518,-5.3518,-5.3518,-5.3518,-5.3518,-5.3518,-5.3518,-5.3518,-5.3518,-5.3518,-5.3518,-5.3518,-5.3518,-5.3518,-5.3518,-5.3518,-5.3518,-5.3518,-5.3518,-5.3382,-5.3044,-5.2807,-5.2131,-5.1352,-5.0845,-5.0405,-4.9999,-4.956,-4.9695,-5.0067,-5.0236,-5.0236,-5.0236,-5.027,-5.0304,-5.0135,-4.9932,-4.9593,-4.9154,-4.9052,-4.9086,-4.8951,-4.8748,-4.7936,-4.7496,-4.8037,-4.8342,-4.8308,-4.8363,-4.8318,-4.7836,-4.707,-4.6028,-4.4968,-4.4396,-4.381,-4.329,-4.3319,-4.3409,-6.1509,-6.2415,-6.2415,-6.2415,-6.2415,-6.2415,-6.2415,-6.2415,-6.2415,-6.2415,-6.2415,-6.2415,-6.2381,-6.2347,-6.1738,-6.1772,-6.2313,-6.2009,-6.2076,-6.2313,-6.2381,-6.2415,-6.2415,-6.2381,-6.2313,-6.2178,-6.2076,-6.2279,-6.2415,-6.2415,-6.2415,-6.2415,-6.2415,-6.2415,-6.2415,-6.2415,-6.2415,-6.2415,-6.2313,-6.2042,-6.1298,-6.052,-5.9776,-5.9032,-5.8287,-5.7915,-5.7746,-5.7814,-5.7712,-5.7408,-5.6867,-5.6224,-5.5649,-5.5074,-5.4465,-5.389,-5.3687,-5.3585,-5.3585,-5.3518,-5.3518,-5.3518,-5.3518,-5.3518,-5.3518,-5.3518,-5.3518,-5.3518,-5.3518,-5.3518,-5.3518,-5.3518,-5.3518,-5.3518,-5.3518,-5.3145,-5.2773,-5.2875,-5.2706,-5.2097,-5.1589,-5.1251,-5.0947,-5.0678,-5.0642,-5.0947,-5.098,-5.098,-5.1014,-5.1014,-5.1082,-5.0811,-5.0541,-4.983,-4.9289,-4.9187,-4.9154,-4.9018,-4.8849,-4.8409,-4.8308,-4.8612,-4.8781,-4.8646,-4.8557,-4.8574,-4.7966,-4.744,-4.6416,-4.5452,-4.4968,-4.4396,-4.3732,-4.3349,-4.3469]},{"header":{"parameterUnit":"m.s-1","parameterCategory":1,"la1":31.0,"la2":29.5877,"lo1":-88.7671,"lo2":-86.6584,"dy":0.0162,"dx":0.0185,"nx":115,"ny":88,"refTime":"2023-11-18T18:00:00:Z","depth":0,"parameterNumber":3,"parameterNumberName":"V-component_of_WINDS"},"data":[0.0,0.0,0.0,0.0,0.0,0.0,0.0,0.0,0.0,0.0,0.0,0.0,0.0,0.0,0.0,0.0,0.0,0.0,0.0,0.0,0.0,0.0,0.0,0.0,0.0,0.0,0.0,0.0,0.0,0.0,0.0,0.0,0.0,0.0,0.0,0.0,0.0,0.0,0.0,0.0,0.0,0.0,0.0,0.0,0.0,0.0,0.0,0.0,0.0,0.0,0.0,0.0,0.0,0.0,0.0,0.0,0.0,0.0,0.0,0.0,0.0,0.0,0.0,0.0,0.0,0.0,0.0,0.0,0.0,0.0,0.0,0.0,0.0,0.0,0.0,0.0,0.0,0.0,0.0,0.0,0.0,0.0,0.0,0.0,0.0,0.0,0.0,0.0,0.0,0.0,0.0,0.0,0.0,0.0,0.0,0.0,0.0,0.0,0.0,0.0,0.0,0.0,0.0,0.0,0.0,0.0,0.0,0.0,0.0,0.0,0.0,0.0,0.0,0.0,0.0,0.0,0.0,0.0,0.0,0.0,0.0,0.0,0.0,0.0,0.0,0.0,0.0,0.0,0.0,0.0,0.0,0.0,0.0,0.0,0.0,0.0,0.0,0.0,0.0,0.0,0.0,0.0,0.0,0.0,0.0,0.0,0.0,0.0,0.0,0.0,0.0,0.0,0.0,0.0,0.0,0.0,0.0,0.0,0.0,0.0,0.0,0.0,0.0,0.0,0.0,0.0,0.0,0.0,0.0,0.0,0.0,0.0,0.0,0.0,0.0,0.0,0.0,0.0,0.0,0.0,0.0,0.0,0.0,0.0,0.0,0.0,0.0,0.0,0.0,0.0,0.0,0.0,0.0,0.0,0.0,0.0,0.0,0.0,0.0,0.0,0.0,0.0,0.0,0.0,0.0,0.0,0.0,0.0,0.0,0.0,0.0,0.0,0.0,0.0,0.0,0.0,0.0,0.0,0.0,0.0,0.0,0.0,0.0,0.0,0.0,0.0,0.0,0.0,0.0,0.0,0.0,0.0,0.0,0.0,0.0,0.0,0.0,0.0,0.0,0.0,0.0,0.0,0.0,0.0,0.0,0.0,0.0,0.0,0.0,0.0,0.0,0.0,0.0,0.0,0.0,0.0,0.0,0.0,0.0,0.0,0.0,0.0,0.0,0.0,0.0,0.0,0.0,0.0,0.0,0.0,0.0,0.0,0.0,0.0,0.0,0.0,0.0,0.0,0.0,0.0,0.0,0.0,0.0,0.0,0.0,0.0,0.0,0.0,0.0,0.0,0.0,0.0,0.0,0.0,0.0,0.0,0.0,0.0,0.0,0.0,0.0,0.0,0.0,0.0,0.0,0.0,0.0,0.0,0.0,0.0,0.0,0.0,0.0,0.0,0.0,0.0,0.0,0.0,0.0,0.0,0.0,0.0,0.0,0.0,0.0,0.0,0.0,0.0,0.0,0.0,0.0,0.0,0.0,0.0,0.0,0.0,0.0,0.0,0.0,0.0,0.0,0.0,0.0,0.0,0.0,0.0,0.0,0.0,0.0,0.0,0.0,0.0,0.0,0.0,0.0,0.0,0.0,0.0,0.0,0.0,0.0,0.0,0.0,0.0,0.0,0.0,0.0,0.0,0.0,0.0,0.0,0.0,0.0,0.0,0.0,0.0,0.0,0.0,0.0,0.0,0.0,0.0,0.0,0.0,0.0,0.0,0.0,0.0,0.0,0.0,0.0,0.0,0.0,0.0,0.0,0.0,0.0,0.0,0.0,0.0,0.0,0.0,0.0,0.0,0.0,0.0,0.0,0.0,0.0,0.0,0.0,0.0,0.0,0.0,0.0,0.0,0.0,0.0,0.0,0.0,0.0,0.0,0.0,0.0,0.0,0.0,0.0,0.0,0.0,0.0,0.0,0.0,0.0,0.0,0.0,0.0,0.0,0.0,0.0,0.0,0.0,0.0,0.0,0.0,0.0,0.0,0.0,0.0,0.0,0.0,0.0,0.0,0.0,0.0,0.0,0.0,0.0,0.0,0.0,0.0,0.0,0.0,0.0,0.0,0.0,0.0,0.0,0.0,0.0,0.0,0.0,0.0,0.0,0.0,0.0,0.0,0.0,0.0,0.0,0.0,0.0,0.0,0.0,0.0,0.0,0.0,0.0,0.0,0.0,0.0,0.0,0.0,0.0,0.0,0.0,0.0,0.0,0.0,0.0,0.0,0.0,0.0,0.0,0.0,0.0,0.0,0.0,0.0,0.0,0.0,0.0,0.0,0.0,0.0,0.0,0.0,0.0,0.0,0.0,0.0,0.0,0.0,0.0,0.0,0.0,0.0,0.0,0.0,0.0,0.0,0.0,0.0,0.0,0.0,0.0,0.0,0.0,0.0,0.0,0.0,0.0,0.0,0.0,0.0,0.0,0.0,0.0,0.0,0.0,0.0,0.0,0.0,0.0,0.0,0.0,0.0,0.0,0.0,0.0,0.0,0.0,0.0,0.0,0.0,0.0,0.0,0.0,0.0,0.0,0.0,0.0,0.0,0.0,0.0,0.0,0.0,0.0,0.0,0.0,0.0,0.0,0.0,0.0,0.0,0.0,0.0,0.0,0.0,0.0,0.0,0.0,0.0,0.0,0.0,0.0,0.0,0.0,0.0,0.0,0.0,0.0,0.0,0.0,0.0,0.0,0.0,0.0,0.0,0.0,0.0,0.0,0.0,0.0,0.0,0.0,0.0,0.0,0.0,0.0,0.0,0.0,0.0,0.0,0.0,0.0,0.0,0.0,0.0,0.0,0.0,0.0,0.0,0.0,0.0,0.0,0.0,0.0,0.0,0.0,0.0,0.0,0.0,0.0,0.0,0.0,0.0,0.0,0.0,0.0,0.0,0.0,0.0,0.0,0.0,0.0,0.0,0.0,0.0,0.0,0.0,0.0,0.0,0.0,0.0,0.0,0.0,0.0,0.0,0.0,0.0,0.0,0.0,0.0,0.0,0.0,0.0,0.0,0.0,0.0,0.0,0.0,0.0,0.0,0.0,0.0,0.0,0.0,0.0,0.0,0.0,0.0,0.0,0.0,0.0,0.0,0.0,0.0,0.0,0.0,0.0,0.0,0.0,0.0,0.0,0.0,0.0,0.0,0.0,0.0,0.0,0.0,0.0,0.0,0.0,0.0,0.0,0.0,0.0,0.0,0.0,0.0,0.0,0.0,0.0,0.0,0.0,0.0,0.0,0.0,0.0,0.0,0.0,0.0,0.0,0.0,0.0,0.0,0.0,0.0,0.0,0.0,0.0,0.0,0.0,0.0,0.0,0.0,0.0,0.0,0.0,0.0,0.0,0.0,0.0,0.0,0.0,0.0,0.0,0.0,0.0,0.0,0.0,0.0,0.0,0.0,0.0,0.0,0.0,0.0,0.0,0.0,0.0,0.0,0.0,0.0,0.0,0.0,0.0,0.0,0.0,0.0,0.0,0.0,0.0,0.0,0.0,0.0,0.0,0.0,0.0,0.0,0.0,0.0,0.0,0.0,0.0,0.0,0.0,0.0,0.0,0.0,0.0,0.0,0.0,0.0,0.0,0.0,0.0,0.0,0.0,0.0,0.0,0.0,0.0,0.0,0.0,0.0,0.0,0.0,0.0,0.0,0.0,0.0,0.0,0.0,0.0,0.0,0.0,0.0,0.0,0.0,0.0,0.0,0.0,0.0,0.0,0.0,0.0,0.0,0.0,0.0,0.0,0.0,0.0,0.0,0.0,0.0,0.0,0.0,0.0,0.0,0.0,0.0,0.0,0.0,0.0,0.0,0.0,0.0,0.0,0.0,0.0,0.0,0.0,0.0,0.0,0.0,0.0,0.0,0.0,0.0,0.0,0.0,0.0,0.0,0.0,0.0,0.0,0.0,0.0,0.0,0.0,0.0,0.0,0.0,0.0,0.0,0.0,0.0,0.0,0.0,0.0,0.0,0.0,0.0,0.0,0.0,0.0,0.0,0.0,0.0,0.0,0.0,0.0,0.0,0.0,0.0,0.0,0.0,0.0,0.0,0.0,0.0,0.0,0.0,0.0,0.0,0.0,0.0,0.0,0.0,0.0,0.0,0.0,0.0,0.0,0.0,0.0,0.0,0.0,0.0,0.0,0.0,0.0,0.0,0.0,0.0,0.0,0.0,0.0,0.0,0.0,0.0,0.0,0.0,0.0,0.0,0.0,0.0,0.0,0.0,0.0,0.0,0.0,0.0,0.0,0.0,0.0,0.0,0.0,0.0,0.0,0.0,0.0,0.0,0.0,2.8874,0.0,0.0,0.0,0.0,0.0,0.0,0.0,0.0,0.0,0.0,0.0,0.0,0.0,0.0,0.0,0.0,0.0,0.0,0.0,0.0,0.0,0.0,0.0,0.0,0.0,0.0,0.0,0.0,0.0,0.0,0.0,0.0,0.0,0.0,0.0,0.0,0.0,0.0,0.0,0.0,0.0,0.0,0.0,0.0,0.0,0.0,0.0,0.0,0.0,0.0,0.0,0.0,0.0,0.0,0.0,0.0,0.0,0.0,0.0,0.0,0.0,0.0,0.0,0.0,0.0,0.0,0.0,0.0,0.0,0.0,0.0,0.0,0.0,0.0,0.0,0.0,0.0,0.0,0.0,0.0,0.0,0.0,0.0,0.0,0.0,0.0,0.0,0.0,0.0,0.0,0.0,0.0,0.0,0.0,0.0,0.0,0.0,0.0,0.0,0.0,0.0,0.0,0.0,0.0,0.0,0.0,0.0,0.0,0.0,0.0,3.1089,3.0717,3.1089,3.0751,2.9668,0.0,0.0,0.0,0.0,0.0,0.0,0.0,0.0,0.0,0.0,0.0,0.0,0.0,0.0,0.0,0.0,0.0,0.0,0.0,0.0,0.0,0.0,0.0,0.0,0.0,0.0,0.0,0.0,0.0,0.0,0.0,0.0,0.0,0.0,0.0,0.0,0.0,0.0,0.0,0.0,0.0,0.0,0.0,0.0,0.0,0.0,0.0,0.0,0.0,0.0,0.0,0.0,0.0,0.0,0.0,0.0,0.0,0.0,0.0,0.0,0.0,0.0,0.0,0.0,0.0,0.0,0.0,0.0,0.0,0.0,0.0,0.0,0.0,0.0,0.0,0.0,0.0,0.0,0.0,0.0,0.0,0.0,0.0,0.0,0.0,0.0,0.0,0.0,0.0,0.0,0.0,0.0,0.0,0.0,0.0,0.0,0.0,0.0,0.0,0.0,0.0,0.0,0.0,0.0,0.0,0.0,0.0,0.0,0.0,0.0,0.0,0.0,3.2259,3.1935,3.0649,0.0,0.0,0.0,0.0,0.0,0.0,0.0,0.0,0.0,0.0,0.0,0.0,0.0,0.0,0.0,0.0,0.0,0.0,0.0,0.0,0.0,0.0,0.0,0.0,0.0,0.0,0.0,0.0,0.0,0.0,0.0,0.0,0.0,0.0,0.0,0.0,0.0,0.0,0.0,0.0,0.0,0.0,0.0,0.0,0.0,0.0,0.0,0.0,0.0,0.0,0.0,0.0,0.0,0.0,0.0,0.0,0.0,0.0,0.0,0.0,0.0,0.0,0.0,0.0,0.0,0.0,0.0,0.0,0.0,0.0,0.0,0.0,0.0,0.0,0.0,0.0,0.0,0.0,0.0,0.0,0.0,0.0,0.0,0.0,0.0,0.0,0.0,0.0,0.0,0.0,0.0,0.0,0.0,0.0,0.0,0.0,0.0,0.0,0.0,0.0,0.0,0.0,0.0,0.0,0.0,0.0,0.0,0.0,0.0,0.0,3.1901,3.3132,3.3254,0.0,3.2124,0.0,0.0,0.0,0.0,0.0,0.0,0.0,0.0,0.0,0.0,0.0,0.0,0.0,0.0,0.0,0.0,0.0,0.0,0.0,0.0,0.0,0.0,0.0,0.0,0.0,0.0,0.0,0.0,0.0,0.0,0.0,0.0,0.0,0.0,0.0,0.0,0.0,0.0,0.0,0.0,0.0,0.0,0.0,0.0,0.0,0.0,0.0,0.0,0.0,0.0,0.0,0.0,0.0,0.0,0.0,0.0,0.0,0.0,0.0,0.0,0.0,0.0,0.0,0.0,0.0,0.0,0.0,0.0,0.0,0.0,0.0,0.0,0.0,0.0,0.0,0.0,0.0,0.0,0.0,0.0,0.0,0.0,0.0,0.0,0.0,0.0,0.0,0.0,0.0,0.0,0.0,0.0,0.0,0.0,0.0,0.0,0.0,0.0,0.0,0.0,0.0,0.0,0.0,0.0,0.0,0.0,0.0,0.0,0.0,0.0,3.1901,3.3355,3.2983,3.2205,0.0,0.0,0.0,0.0,0.0,0.0,0.0,0.0,0.0,0.0,0.0,0.0,0.0,0.0,0.0,0.0,0.0,0.0,0.0,0.0,0.0,0.0,0.0,0.0,0.0,0.0,0.0,0.0,0.0,0.0,0.0,0.0,0.0,0.0,0.0,0.0,0.0,0.0,0.0,0.0,0.0,0.0,0.0,0.0,0.0,0.0,0.0,0.0,0.0,0.0,0.0,0.0,0.0,0.0,0.0,0.0,0.0,0.0,0.0,0.0,0.0,0.0,0.0,0.0,0.0,0.0,0.0,0.0,0.0,0.0,0.0,0.0,0.0,0.0,0.0,0.0,0.0,0.0,0.0,0.0,0.0,0.0,0.0,0.0,0.0,0.0,0.0,0.0,0.0,0.0,0.0,0.0,0.0,0.0,0.0,0.0,0.0,0.0,0.0,0.0,0.0,0.0,0.0,0.0,0.0,0.0,0.0,0.0,0.0,0.0,3.2002,3.2408,3.3558,3.2598,3.1413,3.0142,0.0,0.0,0.0,0.0,0.0,0.0,0.0,0.0,0.0,0.0,0.0,0.0,0.0,0.0,0.0,0.0,0.0,0.0,0.0,0.0,0.0,0.0,0.0,0.0,0.0,0.0,0.0,0.0,0.0,0.0,0.0,0.0,0.0,0.0,0.0,0.0,0.0,0.0,0.0,0.0,0.0,0.0,0.0,0.0,0.0,0.0,0.0,0.0,0.0,0.0,0.0,0.0,0.0,0.0,0.0,0.0,0.0,0.0,0.0,0.0,0.0,0.0,0.0,0.0,0.0,0.0,0.0,0.0,0.0,0.0,0.0,0.0,0.0,0.0,0.0,0.0,0.0,0.0,0.0,0.0,0.0,0.0,0.0,0.0,0.0,0.0,0.0,0.0,0.0,0.0,0.0,0.0,0.0,0.0,0.0,0.0,0.0,0.0,0.0,0.0,0.0,0.0,0.0,0.0,0.0,0.0,0.0,0.0,3.516,3.3977,3.366,3.4336,3.2395,3.0886,0.0,0.0,0.0,0.0,0.0,0.0,0.0,0.0,0.0,0.0,0.0,0.0,0.0,0.0,0.0,0.0,0.0,0.0,0.0,0.0,0.0,0.0,0.0,0.0,0.0,0.0,0.0,0.0,0.0,0.0,0.0,0.0,0.0,0.0,0.0,0.0,0.0,0.0,0.0,0.0,0.0,0.0,0.0,0.0,0.0,0.0,0.0,0.0,0.0,0.0,0.0,0.0,0.0,0.0,0.0,0.0,0.0,0.0,0.0,0.0,0.0,0.0,0.0,0.0,0.0,0.0,0.0,0.0,0.0,0.0,0.0,0.0,0.0,0.0,0.0,0.0,0.0,0.0,0.0,0.0,0.0,0.0,0.0,0.0,0.0,0.0,0.0,0.0,0.0,0.0,0.0,0.0,0.0,0.0,0.0,0.0,0.0,0.0,0.0,0.0,0.0,0.0,0.0,0.0,0.0,0.0,0.0,0.0,0.0,3.2747,3.3186,3.3288,3.3072,3.1833,3.0852,0.0,0.0,0.0,0.0,0.0,0.0,0.0,0.0,0.0,0.0,0.0,0.0,0.0,0.0,0.0,0.0,0.0,0.0,0.0,0.0,0.0,0.0,0.0,0.0,0.0,0.0,0.0,0.0,0.0,0.0,0.0,0.0,0.0,0.0,0.0,0.0,0.0,0.0,0.0,0.0,0.0,0.0,0.0,0.0,0.0,0.0,0.0,0.0,0.0,0.0,0.0,0.0,0.0,0.0,0.0,0.0,0.0,0.0,0.0,0.0,0.0,0.0,0.0,0.0,0.0,0.0,0.0,0.0,0.0,0.0,0.0,0.0,0.0,0.0,0.0,0.0,0.0,0.0,0.0,0.0,0.0,0.0,0.0,0.0,0.0,0.0,0.0,0.0,0.0,0.0,0.0,0.0,0.0,0.0,0.0,0.0,0.0,0.0,0.0,0.0,0.0,0.0,0.0,0.0,0.0,0.0,0.0,0.0,0.0,3.1901,0.0,3.3525,3.2327,3.1582,3.0615,0.0,0.0,0.0,0.0,0.0,0.0,0.0,0.0,0.0,0.0,0.0,0.0,0.0,0.0,0.0,0.0,0.0,0.0,0.0,0.0,0.0,0.0,0.0,0.0,0.0,0.0,0.0,0.0,0.0,0.0,0.0,0.0,0.0,0.0,0.0,0.0,0.0,0.0,0.0,0.0,0.0,0.0,0.0,0.0,0.0,0.0,0.0,0.0,0.0,0.0,0.0,0.0,0.0,0.0,0.0,0.0,0.0,0.0,0.0,0.0,0.0,0.0,0.0,0.0,0.0,0.0,0.0,0.0,0.0,0.0,0.0,0.0,0.0,0.0,0.0,0.0,0.0,0.0,0.0,0.0,0.0,0.0,0.0,0.0,0.0,0.0,0.0,0.0,0.0,0.0,0.0,0.0,0.0,0.0,0.0,0.0,0.0,0.0,0.0,0.0,0.0,0.0,0.0,0.0,0.0,0.0,0.0,0.0,3.119,3.3254,3.4721,3.4438,3.2429,3.1616,3.0176,0.0,0.0,0.0,0.0,0.0,0.0,0.0,0.0,0.0,0.0,0.0,0.0,0.0,0.0,0.0,0.0,0.0,0.0,0.0,0.0,0.0,0.0,0.0,0.0,0.0,0.0,0.0,0.0,0.0,0.0,0.0,0.0,0.0,0.0,0.0,0.0,0.0,0.0,0.0,0.0,0.0,0.0,0.0,0.0,0.0,0.0,0.0,0.0,0.0,0.0,0.0,0.0,0.0,0.0,0.0,0.0,0.0,0.0,0.0,0.0,0.0,0.0,0.0,0.0,0.0,0.0,0.0,0.0,0.0,0.0,0.0,0.0,0.0,0.0,0.0,0.0,0.0,0.0,0.0,0.0,0.0,0.0,0.0,0.0,0.0,0.0,0.0,0.0,0.0,0.0,0.0,0.0,0.0,0.0,0.0,0.0,0.0,0.0,0.0,0.0,0.0,0.0,0.0,0.0,0.0,0.0,0.0,0.0,0.0,3.119,3.3064,3.3998,3.3783,3.2104,3.136,0.0,0.0,0.0,0.0,0.0,0.0,0.0,0.0,0.0,0.0,0.0,0.0,0.0,0.0,0.0,0.0,0.0,0.0,0.0,0.0,0.0,0.0,0.0,0.0,0.0,0.0,0.0,0.0,0.0,0.0,0.0,0.0,0.0,0.0,0.0,0.0,0.0,0.0,0.0,0.0,0.0,0.0,0.0,0.0,0.0,0.0,0.0,0.0,0.0,0.0,0.0,0.0,0.0,0.0,0.0,0.0,0.0,0.0,0.0,0.0,0.0,0.0,0.0,0.0,0.0,0.0,0.0,0.0,0.0,0.0,0.0,0.0,0.0,0.0,0.0,0.0,0.0,0.0,0.0,0.0,0.0,0.0,0.0,0.0,0.0,0.0,0.0,0.0,0.0,0.0,0.0,0.0,0.0,0.0,0.0,0.0,0.0,0.0,0.0,0.0,0.0,0.0,0.0,0.0,0.0,0.0,0.0,0.0,0.0,3.1867,3.366,3.4607,3.4472,3.2882,3.2171,3.251,0.0,0.0,0.0,0.0,0.0,0.0,0.0,0.0,0.0,0.0,0.0,0.0,0.0,0.0,0.0,0.0,0.0,0.0,0.0,0.0,0.0,0.0,0.0,0.0,0.0,0.0,0.0,0.0,0.0,0.0,0.0,0.0,0.0,0.0,0.0,0.0,0.0,0.0,0.0,0.0,0.0,0.0,0.0,0.0,0.0,0.0,0.0,0.0,0.0,0.0,0.0,0.0,0.0,0.0,0.0,0.0,0.0,0.0,0.0,0.0,0.0,0.0,0.0,0.0,0.0,0.0,0.0,0.0,0.0,0.0,0.0,0.0,0.0,0.0,0.0,0.0,0.0,0.0,0.0,0.0,0.0,0.0,0.0,0.0,0.0,0.0,0.0,0.0,0.0,0.0,0.0,0.0,0.0,0.0,0.0,0.0,0.0,0.0,0.0,0.0,0.0,0.0,0.0,0.0,0.0,0.0,0.0,0.0,3.4675,3.6254,3.6321,3.4844,3.3931,3.2848,0.0,0.0,0.0,0.0,0.0,0.0,0.0,0.0,0.0,0.0,0.0,0.0,0.0,0.0,0.0,0.0,0.0,0.0,0.0,0.0,0.0,0.0,0.0,0.0,0.0,0.0,0.0,0.0,0.0,0.0,0.0,0.0,0.0,0.0,0.0,0.0,0.0,0.0,0.0,0.0,0.0,0.0,0.0,0.0,0.0,0.0,0.0,0.0,0.0,0.0,0.0,0.0,0.0,0.0,0.0,0.0,0.0,0.0,0.0,0.0,0.0,0.0,0.0,0.0,0.0,0.0,0.0,0.0,0.0,0.0,0.0,0.0,0.0,0.0,0.0,0.0,0.0,0.0,0.0,0.0,0.0,0.0,0.0,0.0,0.0,0.0,0.0,0.0,0.0,0.0,0.0,0.0,0.0,0.0,0.0,0.0,0.0,0.0,0.0,0.0,0.0,0.0,0.0,0.0,0.0,0.0,0.0,0.0,0.0,3.7077,3.9005,3.9309,3.7821,3.5487,3.4303,0.0,0.0,0.0,0.0,0.0,0.0,0.0,0.0,0.0,0.0,0.0,0.0,0.0,0.0,0.0,0.0,0.0,0.0,0.0,0.0,0.0,0.0,0.0,0.0,0.0,0.0,0.0,0.0,0.0,0.0,0.0,0.0,0.0,0.0,0.0,0.0,0.0,0.0,0.0,0.0,0.0,0.0,0.0,0.0,0.0,0.0,0.0,0.0,0.0,0.0,0.0,0.0,0.0,0.0,0.0,0.0,0.0,0.0,0.0,0.0,0.0,0.0,0.0,0.0,0.0,0.0,0.0,0.0,0.0,0.0,0.0,0.0,0.0,0.0,0.0,0.0,0.0,0.0,0.0,0.0,0.0,0.0,0.0,0.0,0.0,0.0,0.0,0.0,0.0,0.0,0.0,0.0,0.0,0.0,0.0,0.0,0.0,0.0,0.0,0.0,0.0,0.0,0.0,0.0,0.0,0.0,0.0,0.0,3.8058,3.9715,4.1001,4.1407,4.0865,3.8261,3.6468,0.0,0.0,0.0,0.0,0.0,0.0,0.0,0.0,0.0,0.0,0.0,0.0,0.0,0.0,0.0,0.0,0.0,0.0,0.0,0.0,0.0,0.0,0.0,0.0,0.0,0.0,0.0,0.0,0.0,0.0,0.0,0.0,0.0,0.0,0.0,0.0,0.0,0.0,0.0,0.0,0.0,0.0,0.0,0.0,0.0,0.0,0.0,0.0,0.0,0.0,0.0,0.0,0.0,0.0,0.0,0.0,0.0,0.0,0.0,0.0,0.0,0.0,0.0,0.0,0.0,0.0,0.0,0.0,0.0,0.0,0.0,0.0,0.0,0.0,0.0,0.0,0.0,0.0,0.0,0.0,0.0,0.0,0.0,0.0,0.0,0.0,0.0,0.0,0.0,0.0,0.0,0.0,0.0,0.0,0.0,0.0,0.0,0.0,0.0,0.0,0.0,0.0,0.0,0.0,0.0,0.0,0.0,0.0,3.9478,4.2219,4.2422,4.2794,4.3172,4.1144,3.8667,0.0,0.0,0.0,0.0,0.0,0.0,0.0,0.0,0.0,0.0,0.0,0.0,0.0,0.0,0.0,0.0,0.0,0.0,0.0,0.0,0.0,0.0,0.0,0.0,0.0,0.0,0.0,0.0,0.0,0.0,0.0,0.0,0.0,0.0,0.0,0.0,0.0,0.0,0.0,0.0,0.0,0.0,0.0,0.0,0.0,0.0,0.0,0.0,0.0,0.0,0.0,0.0,0.0,0.0,0.0,0.0,0.0,0.0,0.0,0.0,0.0,0.0,0.0,0.0,0.0,0.0,0.0,0.0,0.0,0.0,0.0,0.0,0.0,0.0,0.0,0.0,0.0,0.0,0.0,0.0,0.0,0.0,0.0,0.0,0.0,0.0,0.0,0.0,0.0,0.0,0.0,0.0,0.0,0.0,0.0,0.0,0.0,0.0,0.0,0.0,0.0,0.0,0.0,0.0,0.0,0.0,0.0,0.0,4.046,4.2252,4.3498,4.3572,4.2557,4.0392,3.8396,0.0,0.0,0.0,0.0,0.0,0.0,0.0,0.0,0.0,0.0,0.0,0.0,0.0,0.0,0.0,0.0,0.0,0.0,0.0,0.0,0.0,0.0,0.0,0.0,0.0,0.0,0.0,0.0,0.0,0.0,0.0,0.0,0.0,0.0,0.0,0.0,0.0,0.0,0.0,0.0,0.0,0.0,0.0,0.0,0.0,0.0,0.0,0.0,3.7125,0.0,0.0,0.0,0.0,0.0,0.0,0.0,0.0,0.0,0.0,0.0,0.0,0.0,0.0,0.0,0.0,0.0,0.0,0.0,0.0,0.0,0.0,0.0,0.0,0.0,0.0,0.0,0.0,0.0,0.0,0.0,0.0,0.0,0.0,0.0,0.0,0.0,0.0,0.0,0.0,0.0,0.0,0.0,0.0,0.0,0.0,0.0,0.0,0.0,0.0,0.0,0.0,0.0,0.0,0.0,0.0,0.0,0.0,0.0,4.1508,4.3328,4.4209,4.4012,4.2828,4.1339,3.9546,0.0,0.0,0.0,0.0,0.0,0.0,0.0,0.0,0.0,0.0,0.0,0.0,0.0,0.0,0.0,0.0,0.0,0.0,0.0,0.0,0.0,0.0,0.0,0.0,0.0,0.0,0.0,0.0,0.0,0.0,0.0,0.0,0.0,0.0,0.0,0.0,0.0,0.0,0.0,0.0,0.0,0.0,0.0,0.0,0.0,0.0,0.0,0.0,0.0,0.0,0.0,0.0,0.0,0.0,0.0,0.0,0.0,0.0,0.0,0.0,0.0,0.0,0.0,0.0,0.0,0.0,0.0,0.0,0.0,0.0,0.0,0.0,0.0,0.0,0.0,0.0,0.0,0.0,0.0,0.0,0.0,0.0,0.0,0.0,0.0,0.0,0.0,0.0,0.0,0.0,0.0,0.0,0.0,0.0,0.0,0.0,0.0,0.0,0.0,0.0,0.0,0.0,0.0,0.0,0.0,0.0,0.0,3.9783,4.2185,4.4479,4.4581,4.4147,4.324,4.2625,4.0899,3.8024,0.0,0.0,0.0,0.0,0.0,0.0,0.0,0.0,0.0,0.0,0.0,0.0,0.0,0.0,0.0,0.0,0.0,0.0,0.0,0.0,0.0,0.0,0.0,0.0,0.0,0.0,0.0,0.0,0.0,0.0,0.0,0.0,0.0,0.0,0.0,0.0,0.0,0.0,3.6339,3.7859,0.0,0.0,0.0,0.0,0.0,0.0,0.0,0.0,3.8559,0.0,0.0,0.0,0.0,0.0,0.0,0.0,0.0,0.0,0.0,0.0,0.0,0.0,0.0,0.0,0.0,0.0,0.0,0.0,0.0,0.0,0.0,0.0,0.0,0.0,0.0,0.0,0.0,0.0,0.0,0.0,0.0,0.0,0.0,0.0,0.0,0.0,0.0,0.0,0.0,0.0,0.0,0.0,0.0,0.0,0.0,0.0,0.0,0.0,0.0,0.0,0.0,0.0,0.0,0.0,0.0,3.9503,4.0045,4.167,4.4513,4.4581,4.3938,4.2557,4.2354,4.0899,3.8091,0.0,0.0,0.0,0.0,0.0,0.0,0.0,0.0,0.0,0.0,0.0,0.0,0.0,0.0,0.0,0.0,0.0,0.0,0.0,0.0,0.0,0.0,0.0,0.0,0.0,0.0,0.0,0.0,0.0,0.0,0.0,0.0,0.0,0.0,0.0,0.0,0.0,0.0,0.0,3.8544,3.9084,0.0,0.0,0.0,0.0,0.0,0.0,0.0,0.0,3.7705,0.0,0.0,0.0,0.0,0.0,0.0,0.0,0.0,0.0,0.0,0.0,0.0,0.0,0.0,0.0,0.0,0.0,0.0,0.0,0.0,0.0,0.0,0.0,0.0,0.0,0.0,0.0,0.0,0.0,0.0,0.0,0.0,0.0,0.0,0.0,0.0,0.0,0.0,0.0,0.0,0.0,0.0,0.0,0.0,0.0,0.0,0.0,0.0,0.0,0.0,0.0,0.0,0.0,0.0,0.0,3.8831,3.9733,4.1366,4.3876,4.3606,4.2861,4.1745,4.0629,3.9343,0.0,0.0,0.0,0.0,0.0,0.0,0.0,0.0,0.0,0.0,0.0,0.0,0.0,0.0,0.0,0.0,0.0,0.0,0.0,0.0,0.0,0.0,0.0,0.0,0.0,0.0,0.0,0.0,0.0,0.0,0.0,0.0,0.0,0.0,0.0,0.0,0.0,0.0,0.0,0.0,3.8757,3.8848,3.8903,0.0,0.0,0.0,0.0,0.0,0.0,3.7488,3.7488,0.0,0.0,0.0,0.0,0.0,0.0,0.0,0.0,0.0,0.0,0.0,0.0,0.0,0.0,0.0,0.0,0.0,0.0,0.0,0.0,0.0,0.0,0.0,0.0,0.0,0.0,0.0,0.0,0.0,0.0,0.0,0.0,0.0,0.0,0.0,0.0,0.0,0.0,0.0,0.0,0.0,0.0,0.0,0.0,0.0,0.0,0.0,0.0,0.0,0.0,0.0,0.0,0.0,0.0,0.0,3.7662,3.8975,4.0784,4.2992,4.2442,4.1782,4.1204,3.9343,3.8193,0.0,0.0,0.0,0.0,0.0,0.0,0.0,0.0,0.0,0.0,0.0,0.0,0.0,0.0,0.0,0.0,0.0,0.0,0.0,0.0,0.0,0.0,0.0,0.0,0.0,0.0,0.0,0.0,0.0,0.0,0.0,0.0,0.0,0.0,0.0,0.0,0.0,0.0,0.0,0.0,0.0,3.8944,3.9147,3.8754,0.0,0.0,0.0,0.0,3.7635,3.7725,0.0,0.0,0.0,0.0,0.0,0.0,0.0,0.0,0.0,0.0,0.0,0.0,0.0,0.0,0.0,0.0,0.0,0.0,0.0,0.0,0.0,0.0,0.0,0.0,0.0,0.0,0.0,0.0,0.0,0.0,0.0,0.0,0.0,0.0,0.0,0.0,0.0,0.0,0.0,0.0,0.0,0.0,0.0,0.0,0.0,0.0,0.0,0.0,0.0,0.0,0.0,0.0,0.0,0.0,0.0,0.0,3.6786,3.7648,3.9469,4.2125,4.1683,4.1294,4.1178,4.029,3.9242,0.0,0.0,0.0,0.0,0.0,0.0,0.0,0.0,0.0,0.0,0.0,0.0,0.0,0.0,0.0,0.0,0.0,0.0,0.0,0.0,0.0,0.0,0.0,0.0,0.0,0.0,0.0,0.0,0.0,0.0,0.0,0.0,0.0,0.0,0.0,0.0,0.0,0.0,0.0,0.0,0.0,4.0186,3.834,3.8578,3.868,0.0,0.0,3.7456,3.921,3.944,0.0,0.0,0.0,0.0,0.0,0.0,0.0,0.0,0.0,0.0,0.0,0.0,0.0,0.0,0.0,0.0,0.0,0.0,0.0,0.0,0.0,0.0,0.0,0.0,0.0,0.0,0.0,0.0,0.0,0.0,0.0,0.0,0.0,0.0,0.0,0.0,0.0,0.0,0.0,0.0,0.0,0.0,0.0,0.0,0.0,0.0,0.0,0.0,0.0,0.0,0.0,0.0,0.0,0.0,0.0,3.3836,3.667,3.7395,3.8916,4.1362,4.0823,4.0292,3.9961,3.799,3.6666,0.0,0.0,0.0,0.0,0.0,0.0,0.0,0.0,0.0,0.0,0.0,0.0,0.0,0.0,0.0,0.0,0.0,0.0,0.0,0.0,0.0,0.0,0.0,0.0,0.0,0.0,0.0,0.0,0.0,0.0,0.0,0.0,0.0,0.0,0.0,0.0,0.0,0.0,0.0,0.0,0.0,0.0,3.8667,3.9174,0.0,0.0,0.0,3.8967,3.9812,0.0,0.0,0.0,0.0,0.0,0.0,0.0,0.0,0.0,0.0,0.0,0.0,0.0,0.0,0.0,0.0,0.0,0.0,0.0,0.0,0.0,0.0,0.0,0.0,0.0,0.0,0.0,0.0,0.0,0.0,0.0,0.0,0.0,0.0,0.0,0.0,0.0,0.0,0.0,0.0,0.0,0.0,0.0,0.0,0.0,0.0,0.0,0.0,0.0,0.0,0.0,0.0,0.0,0.0,0.0,0.0,0.0,3.6384,3.7029,3.8403,4.0583,3.9816,3.9139,3.8698,3.6028,0.0,0.0,0.0,0.0,0.0,0.0,0.0,0.0,0.0,0.0,0.0,0.0,0.0,0.0,0.0,0.0,0.0,0.0,0.0,0.0,0.0,0.0,0.0,0.0,0.0,0.0,0.0,2.7689,0.0,0.0,0.0,0.0,0.0,0.0,0.0,0.0,0.0,0.0,0.0,0.0,0.0,0.0,3.9219,3.9026,3.9784,4.0299,0.0,0.0,4.0654,4.0663,4.0975,4.0663,0.0,0.0,0.0,0.0,0.0,0.0,0.0,0.0,0.0,0.0,0.0,0.0,0.0,0.0,0.0,0.0,0.0,0.0,0.0,0.0,0.0,0.0,0.0,0.0,0.0,0.0,0.0,0.0,0.0,0.0,0.0,0.0,0.0,0.0,0.0,0.0,0.0,0.0,0.0,0.0,0.0,0.0,0.0,0.0,0.0,0.0,0.0,0.0,0.0,0.0,0.0,0.0,0.0,0.0,0.0,3.5527,3.6247,3.764,3.9746,3.8497,3.785,3.7998,3.5851,3.4683,0.0,0.0,0.0,0.0,0.0,0.0,0.0,0.0,0.0,0.0,0.0,0.0,0.0,0.0,0.0,0.0,0.0,0.0,0.0,0.0,0.0,0.0,0.0,0.0,0.0,0.0,0.0,0.0,0.0,0.0,0.0,0.0,0.0,0.0,0.0,0.0,0.0,0.0,0.0,0.0,0.0,3.9797,3.9022,4.018,4.1583,0.0,0.0,4.2151,4.2151,4.3362,4.2861,3.8667,0.0,0.0,0.0,0.0,0.0,0.0,0.0,0.0,0.0,0.0,0.0,0.0,0.0,0.0,0.0,0.0,0.0,0.0,0.0,0.0,0.0,0.0,0.0,0.0,0.0,0.0,0.0,0.0,0.0,0.0,0.0,0.0,0.0,0.0,0.0,0.0,0.0,0.0,0.0,0.0,0.0,0.0,0.0,0.0,0.0,0.0,0.0,0.0,0.0,0.0,0.0,0.0,0.0,3.3065,3.5459,3.6148,3.7344,3.8935,3.8121,3.7271,3.6594,3.5326,3.3889,0.0,0.0,0.0,0.0,0.0,0.0,0.0,0.0,0.0,0.0,0.0,0.0,0.0,0.0,0.0,0.0,0.0,0.0,0.0,0.0,0.0,0.0,0.0,0.0,0.0,0.0,0.0,0.0,2.8486,2.9198,2.9997,0.0,0.0,0.0,0.0,0.0,0.0,0.0,0.0,0.0,0.0,3.8732,3.8836,4.0073,0.0,0.0,4.2803,4.3108,4.3652,4.3775,4.2963,4.0358,3.9411,0.0,0.0,0.0,0.0,0.0,0.0,0.0,0.0,0.0,0.0,0.0,0.0,0.0,0.0,0.0,0.0,0.0,0.0,0.0,0.0,0.0,0.0,0.0,0.0,0.0,0.0,0.0,0.0,0.0,0.0,0.0,0.0,0.0,0.0,0.0,0.0,0.0,0.0,0.0,0.0,0.0,0.0,0.0,0.0,0.0,0.0,0.0,0.0,0.0,0.0,0.0,0.0,3.2826,3.5459,3.6148,3.7147,3.8579,3.7737,3.6754,3.5672,3.4561,3.3072,0.0,0.0,0.0,0.0,0.0,0.0,0.0,0.0,0.0,0.0,0.0,0.0,0.0,0.0,0.0,0.0,0.0,0.0,0.0,0.0,0.0,0.0,0.0,0.0,0.0,0.0,0.0,0.0,2.8308,2.9116,3.0342,0.0,0.0,0.0,0.0,0.0,0.0,0.0,0.0,0.0,0.0,3.8011,3.8678,3.9654,4.0726,4.1983,4.2236,4.2577,4.3402,4.3294,4.2427,4.0486,0.0,0.0,0.0,0.0,0.0,0.0,0.0,0.0,0.0,0.0,0.0,0.0,0.0,0.0,0.0,0.0,0.0,0.0,0.0,0.0,0.0,0.0,0.0,0.0,0.0,0.0,0.0,0.0,0.0,0.0,3.1511,0.0,0.0,0.0,0.0,0.0,0.0,0.0,0.0,0.0,0.0,0.0,0.0,0.0,0.0,0.0,0.0,0.0,0.0,0.0,0.0,0.0,0.0,3.2826,3.5459,3.6118,3.7147,3.8483,3.7243,3.6243,3.5578,3.3636,3.2527,3.2407,0.0,0.0,0.0,0.0,0.0,0.0,0.0,0.0,0.0,0.0,0.0,0.0,0.0,0.0,0.0,0.0,0.0,0.0,0.0,0.0,0.0,0.0,0.0,0.0,0.0,0.0,2.8547,2.8607,2.9146,0.0,0.0,0.0,0.0,0.0,0.0,0.0,0.0,0.0,0.0,3.7188,3.7965,3.8585,3.8839,3.9742,4.1788,4.0985,4.0342,4.1113,4.1784,4.13,0.0,0.0,0.0,0.0,0.0,0.0,0.0,0.0,0.0,0.0,0.0,0.0,0.0,0.0,0.0,0.0,0.0,0.0,0.0,0.0,0.0,0.0,0.0,0.0,0.0,0.0,0.0,3.3155,3.3095,0.0,0.0,0.0,0.0,0.0,0.0,0.0,0.0,0.0,0.0,0.0,3.3873,3.4741,0.0,0.0,0.0,0.0,0.0,0.0,0.0,0.0,0.0,0.0,0.0,0.0,3.3066,3.4741,3.5489,3.628,3.7147,3.628,3.5499,3.4848,3.3757,3.2766,3.1869,0.0,0.0,0.0,0.0,0.0,0.0,0.0,0.0,0.0,0.0,0.0,0.0,0.0,0.0,0.0,0.0,0.0,0.0,0.0,0.0,0.0,0.0,0.0,0.0,0.0,2.9202,0.0,0.0,0.0,0.0,0.0,0.0,0.0,0.0,0.0,0.0,0.0,3.4908,3.5151,3.6182,3.7122,3.7758,3.8662,3.9831,0.0,0.0,0.0,0.0,0.0,0.0,0.0,0.0,0.0,0.0,0.0,0.0,0.0,0.0,4.5185,4.1401,4.1106,4.155,4.2156,0.0,0.0,0.0,0.0,0.0,0.0,0.0,0.0,0.0,0.0,0.0,0.0,0.0,0.0,3.4322,0.0,3.3365,0.0,0.0,0.0,0.0,0.0,0.0,0.0,0.0,3.6028,3.6507,3.5911,3.6507,3.6357,0.0,3.4831,3.3634,0.0,0.0,0.0,0.0,0.0,0.0,0.0,0.0,3.3155,3.4474,3.516,3.5818,3.6417,3.5848,3.528,3.4863,3.3963,3.2886,3.154,3.0702,3.0342,0.0,0.0,0.0,0.0,0.0,0.0,0.0,0.0,0.0,0.0,0.0,0.0,0.0,0.0,0.0,0.0,0.0,0.0,0.0,0.0,0.0,0.0,0.0,3.0073,0.0,0.0,0.0,0.0,0.0,0.0,0.0,0.0,0.0,3.4203,3.4951,3.5669,3.6148,3.6746,3.7375,3.8003,0.0,0.0,0.0,0.0,0.0,0.0,0.0,4.0928,4.2172,4.2307,4.2891,4.4676,4.5805,4.6481,4.6452,0.0,0.0,4.3882,4.3763,4.4384,4.4962,4.5455,4.5889,4.6534,4.7181,4.7522,0.0,0.0,0.0,0.0,0.0,0.0,0.0,0.0,3.5699,3.5968,0.0,3.4412,0.0,0.0,0.0,0.0,0.0,3.5549,0.0,0.0,3.8207,3.908,3.8392,3.7823,3.7494,3.7434,3.6742,3.5756,3.4474,3.1899,0.0,0.0,0.0,0.0,0.0,0.0,3.3185,3.4474,3.516,3.5818,3.6387,3.5848,3.5489,3.5429,3.4203,3.2916,3.163,3.154,3.1212,3.0612,3.1779,0.0,0.0,0.0,0.0,0.0,0.0,0.0,0.0,0.0,0.0,0.0,0.0,0.0,0.0,0.0,0.0,0.0,0.0,0.0,0.0,3.0913,0.0,0.0,0.0,0.0,0.0,0.0,0.0,0.0,0.0,0.0,3.5669,3.6686,3.7943,3.9164,0.0,0.0,0.0,0.0,3.8033,3.9379,3.896,3.9056,4.0314,4.1168,4.1426,4.087,0.0,0.0,4.5635,4.6963,4.7943,4.8007,4.868,4.9086,4.9052,4.9231,4.9468,4.9056,4.8715,4.8518,4.8241,4.8709,4.8934,4.2192,0.0,0.0,0.0,0.0,3.9679,3.9888,4.0344,3.8901,3.7853,3.7045,3.5579,0.0,0.0,0.0,0.0,0.0,0.0,3.7135,3.8332,3.9523,4.0008,3.9828,3.9619,3.929,3.8775,3.6946,3.6006,3.5816,3.3416,3.2096,3.1929,0.0,0.0,0.0,0.0,3.3634,3.4474,3.516,3.5609,3.5789,3.5609,3.528,3.4801,3.4412,3.3574,3.2258,3.2198,3.2108,3.1958,3.2317,0.0,0.0,0.0,0.0,0.0,0.0,0.0,0.0,0.0,0.0,0.0,0.0,0.0,0.0,0.0,0.0,0.0,0.0,0.0,3.1481,3.1331,3.1391,0.0,0.0,0.0,0.0,0.0,0.0,0.0,0.0,0.0,3.8033,3.8182,3.8452,0.0,0.0,3.9349,4.0008,4.0187,4.0546,4.1422,4.1392,0.0,0.0,4.1257,4.1267,4.2659,4.4449,4.6153,4.7571,4.8198,4.8859,5.0042,5.0879,5.1352,5.1285,5.0631,5.0199,5.0463,5.0909,5.1363,5.1756,5.2359,5.2641,4.5304,4.303,4.1863,4.1504,4.1782,4.1624,4.1713,4.1961,4.0995,4.0127,3.929,3.8003,3.7135,3.6596,3.5596,0.0,0.0,0.0,3.7453,3.8851,3.9953,4.0354,4.0205,4.0393,3.9924,3.8832,3.7187,3.6274,3.6019,3.4576,3.3482,3.2815,0.0,0.0,3.2691,3.3309,3.3677,3.3728,3.4366,3.4738,3.4905,3.5294,3.531,3.4891,3.4653,3.4144,3.3335,3.2796,3.2647,3.2886,3.2886,3.2916,0.0,0.0,0.0,0.0,0.0,0.0,0.0,0.0,0.0,0.0,0.0,3.1062,3.1481,0.0,0.0,0.0,3.172,3.1899,3.1899,3.2108,0.0,0.0,0.0,0.0,0.0,0.0,0.0,3.6118,3.6716,3.7734,3.9559,3.9679,3.9828,4.0516,4.0367,4.0457,4.1085,0.0,4.1662,4.2321,4.2381,4.25,4.2701,4.2102,4.2236,4.4229,4.5326,4.6689,4.8586,4.9239,4.9985,5.1194,5.2169,5.2773,5.2773,5.2029,5.1549,5.2024,5.2454,5.2904,5.3391,5.383,5.4033,4.7578,4.7369,4.5544,4.3988,4.28,4.3329,4.288,4.1833,4.241,4.256,4.2381,4.1115,4.0778,4.1053,3.8658,0.0,3.7682,3.7198,3.7401,3.8144,3.9782,4.0335,3.9944,4.0264,3.964,3.8076,3.7332,3.6451,3.5399,3.5239,3.4585,3.3486,3.3516,3.3328,3.3001,3.3539,3.3472,3.2671,3.3147,3.3561,3.3905,3.4831,3.532,3.5231,3.4733,3.4375,3.4222,3.3244,3.2886,3.3362,3.3454,3.3514,3.3514,0.0,0.0,0.0,0.0,0.0,0.0,0.0,0.0,0.0,0.0,0.0,0.0,0.0,0.0,0.0,3.2228,0.0,3.2557,3.3125,0.0,0.0,0.0,3.4141,3.5299,3.5574,3.6085,3.7242,0.0,0.0,4.0397,4.095,4.1607,4.2342,4.1901,4.1722,4.2381,4.1961,4.1743,4.244,4.247,4.2641,4.314,4.317,4.3636,4.5102,4.558,4.6438,4.8586,4.9766,5.0743,5.1546,5.2627,5.3315,5.3348,5.3247,5.3484,5.3314,5.3348,5.3348,5.3314,5.3314,5.3246,5.0002,4.9494,4.897,4.7489,4.5394,4.5544,4.5412,4.5125,4.4766,4.4018,4.306,4.2252,4.0965,3.917,3.7203,3.6856,3.7825,3.7717,3.8295,3.9443,3.9867,4.0006,3.9858,3.9506,3.8852,3.8021,3.6587,3.5912,3.594,3.4712,3.4323,3.4771,3.4362,3.3784,3.3226,3.3365,3.3596,3.3853,3.356,3.3237,3.2967,3.3564,3.3698,3.329,3.3801,3.3518,3.2388,3.3416,3.3533,3.2521,3.3115,3.3514,3.3514,3.3514,0.0,0.0,0.0,0.0,0.0,0.0,0.0,0.0,0.0,3.2497,3.2976,0.0,3.3036,0.0,3.3185,3.3275,3.3245,3.3395,0.0,0.0,3.4711,3.5017,3.5078,3.6153,3.6981,3.6946,3.7651,3.8911,4.092,4.092,4.1339,4.2812,4.2521,4.241,4.3,4.2961,4.291,4.306,4.309,4.311,4.326,4.329,4.3609,4.4489,4.4619,4.5434,4.7768,4.8341,4.899,5.0466,5.1594,5.2205,5.2277,5.2904,5.318,5.2739,5.257,5.2604,5.257,5.2164,5.1928,5.0524,5.0166,4.9942,4.8805,4.7189,4.7189,4.704,4.6741,4.6352,4.528,4.373,4.2528,4.1079,3.9465,3.823,3.7768,3.799,3.7732,3.7873,3.8379,3.8899,3.8827,3.8334,3.8478,3.7977,3.6919,3.5947,3.5479,3.55,3.4578,3.4448,3.5024,3.4665,3.4266,3.391,3.3619,3.359,3.378,3.3361,3.2874,3.238,3.3047,3.3156,3.2621,3.2869,3.2595,3.1709,3.2217,3.2342,3.199,3.2188,3.2529,3.3046,3.2815,3.2832,0.0,0.0,0.0,0.0,0.0,0.0,0.0,0.0,0.0,0.0,0.0,3.2679,3.2237,3.3288,3.3777,3.3338,3.3803,3.4273,3.4659,3.484,3.496,3.5082,3.5926,3.6466,3.6542,3.7342,3.8388,3.9737,4.0155,4.0644,4.1641,4.1493,4.1773,4.3041,4.329,4.329,4.329,4.329,4.329,4.329,4.329,4.3529,4.4167,4.4317,4.494,4.6793,4.7527,4.8235,4.9426,5.0294,5.0908,5.1169,5.1801,5.2166,5.1832,5.1731,5.1793,5.1826,5.1522,5.1352,5.0315,5.0255,4.9596,4.8849,4.8164,4.7956,4.7659,4.7309,4.7106,4.6021,4.4167,4.2223,4.1142,4.0658,3.99,3.904,3.8077,3.7438,3.6983,3.6553,3.7453,3.7356,3.6452,3.7428,3.7025,3.5554,3.5483,3.5207,3.468,3.468,3.468,3.468,3.468,3.4751,3.4751,3.4169,3.3576,3.3086,3.2946,3.2555,3.1939,3.2751,3.29,3.2372,3.1893,3.1598,3.1548,3.0626,3.0582,3.1495,3.1061,3.1288,3.24,3.1916,3.204,0.0,3.1555,0.0,0.0,0.0,0.0,0.0,0.0,0.0,0.0,3.269,3.1815,3.0945,3.2922,3.395,3.3217,3.4082,3.4739,3.4818,3.4566,3.4623,3.5041,3.5294,3.5581,3.5998,3.7112,3.7881,3.8187,3.9011,3.9667,3.9972,4.0031,4.0718,4.2345,4.2739,4.2699,4.286,4.2981,4.2941,4.2981,4.314,4.3529,4.4137,4.4317,4.4766,4.5975,4.6874,4.7608,4.8223,4.8718,4.9254,4.9821,5.0237,5.0566,5.0507,5.066,5.0888,5.1016,5.0913,5.098,5.0973,5.0896,4.9725,4.8613,4.7491,4.6375,4.6408,4.7222,4.6211,4.4984,4.3565,4.1713,4.0867,4.0665,3.9048,3.8208,3.8005,3.7434,3.7136,3.7059,3.6843,3.6615,3.6405,3.6615,3.629,3.5508,3.5483,3.5207,3.468,3.468,3.468,3.468,3.468,3.4906,3.5282,0.0,0.0,0.0,3.3055,3.2532,3.1584,3.1694,3.1493,3.0996,3.0792,0.0,3.0188,3.0465,3.059,3.053,3.0581,0.0,0.0,0.0,0.0,0.0,0.0,0.0,0.0,0.0,0.0,0.0,3.1937,3.2085,3.3701,3.3027,3.2437,3.2262,3.2688,3.3073,3.3298,3.3548,3.3872,3.4362,3.483,3.4858,3.4166,3.5152,3.5785,3.5102,3.5976,3.7037,3.7907,3.8293,3.8801,3.9579,3.9885,4.0059,4.0447,4.0575,4.0575,4.0603,4.1378,4.1906,4.1877,4.267,4.3419,4.4137,4.4317,4.4616,4.5346,4.5608,4.5785,4.6037,4.6748,4.7403,4.759,4.8243,4.89,4.905,4.9158,4.9393,5.0111,4.983,4.9593,5.0822,0.0,4.9484,4.8244,0.0,4.5733,4.5529,4.5758,4.4862,4.374,4.2496,4.0906,4.0126,3.9868,3.912,3.8391,3.7613,3.7588,3.7437,3.7161,3.6933,3.6807,3.6807,3.6807,3.6483,3.5956,3.5956,3.5805,3.5554,3.5529,3.5529,3.5529,3.5529,3.568,3.5931,3.5403,3.4726,3.3897,3.3621,3.3111,3.224,3.1662,3.1135,3.0608,0.0,0.0,0.0,0.0,0.0,0.0,0.0,0.0,0.0,0.0,0.0,3.1838,3.1007,3.0895,3.1756,3.0582,3.0381,3.1792,3.1462,3.1609,3.2558,3.2621,3.23,3.1702,3.2444,3.3056,3.3106,3.3353,3.3677,3.3961,3.4126,3.3968,3.3581,3.4162,3.4575,3.4434,3.4984,3.5867,3.6683,3.7085,3.7468,3.8043,3.8179,3.8225,3.827,3.921,3.9885,3.9885,4.0346,4.0746,4.0831,4.174,4.2555,4.2919,4.3445,4.4067,4.4706,4.4796,4.4915,4.5196,4.5495,4.5675,4.606,4.6672,4.7167,4.7253,4.7623,4.7948,4.8265,4.8588,4.9086,5.0017,4.8787,4.8539,4.7365,4.5586,4.487,4.4144,4.3492,0.0,0.0,0.0,4.0185,3.9446,3.9044,3.9496,3.8944,3.7688,3.799,3.7914,3.7462,3.7262,3.7186,3.7186,3.7086,3.681,3.643,3.6405,3.6405,3.6405,3.6405,3.6405,3.6405,3.6405,3.6405,3.638,3.5906,3.5382,3.4831,3.4223,3.3671,3.3219,3.2114,3.1286,3.0758,2.9615,2.9038,2.9038,2.8549,2.8499,2.9013,2.9038,2.9302,2.9754,2.9779,3.0139,3.082,3.019,3.0139,3.0857,3.0254,3.0139,3.0895,3.1037,3.1037,3.0959,3.1646,3.1692,3.0676,3.1988,3.2836,3.2712,3.3155,3.3494,3.3558,3.3275,3.3111,3.3111,3.3136,3.3374,3.3721,3.4243,3.4776,3.5324,3.5923,3.6257,3.638,3.6593,3.6405,3.664,3.7997,3.905,3.9077,3.9316,3.9579,3.9711,4.0575,4.1295,4.1699,4.2456,4.3229,4.3877,4.4137,4.4347,4.4736,4.4496,4.4447,4.4847,4.5169,4.5457,4.5541,4.6228,4.6733,4.6471,4.7406,4.845,4.8638,4.7299,4.6135,4.4888,4.3696,4.2421,4.1281,4.0441,4.1445,4.1169,3.9929,3.98,3.9647,3.9597,3.9672,3.9572,3.932,3.8919,3.8743,0.0,3.7638,3.7186,3.7161,3.6757,3.648,3.6405,3.6405,3.6405,3.6405,3.6405,3.6405,3.6405,3.6405,3.6405,3.6405,3.6329,3.5981,3.5382,3.4424,3.3872,3.3771,3.2692,3.1838,3.126,3.0231,2.9679,2.9654,2.9126,2.9038,2.9628,2.9679,2.9704,2.9779,2.9779,2.9856,2.9972,2.9856,2.9856,3.0011,2.9856,2.9882,2.9997,3.0402,3.0478,3.0061,3.0101,3.0316,3.0557,3.0925,3.1371,3.2146,3.2415,3.271,3.3098,3.3147,3.3136,3.3136,3.3136,3.3162,3.3269,3.3671,3.4248,3.4826,3.5282,3.583,3.6254,3.6229,3.6355,3.6402,3.6687,3.6896,3.701,3.7723,3.8243,3.8469,3.936,4.0333,4.1462,4.1699,4.2263,4.3199,4.3459,4.3559,4.3589,4.3589,4.3559,4.3688,4.3618,4.407,4.4688,4.5111,4.5352,4.5818,4.6384,4.6867,4.7248,4.5978,4.5236,4.4147,4.2648,4.1395,4.0425,3.9774,4.0313,4.0262,3.9749,3.9697,3.9697,3.9697,3.9697,3.9521,3.9245,3.9045,3.8919,3.8869,3.8015,3.7638,3.7588,3.7061,3.6707,3.643,3.6405,3.6405,3.6405,3.6405,3.6405,3.6405,3.6405,3.6405,3.6405,3.6405,3.6232,3.5981,3.4901,3.4198,3.3897,3.2792,3.2089,3.1838,3.106,3.0532,3.0231,2.998,2.9829,2.9779,2.9779,2.9779,2.9779,2.9779,2.9779,2.9804,3.008,3.0105,2.9804,2.9779,2.993,3.0206,3.0181,3.0331,3.0633,3.0407,3.0457,3.0959,3.1035,3.1486,3.2541,3.2692,3.2792,3.3043,3.3136,3.3136,3.3136,3.3136,3.3237,3.347,3.3746,3.4098,3.465,3.4906,3.5107,3.5429,3.5479,3.5579,3.5855,3.5655,3.5705,3.6301,3.6849,3.7103,3.7243,3.8153,3.9067,3.964,4.0802,4.167,4.2386,4.275,4.325,4.329,4.329,4.329,4.329,4.329,4.3566,4.3771,4.4004,4.4243,4.4593,4.5011,4.5957,4.5739,4.438,4.438,4.337,4.176,4.0752,4.0074,3.9722,3.9697,3.9697,3.9697,3.9697,3.9697,3.9697,3.9697,3.9471,3.9094,3.9069,3.912,3.8994,3.8467,3.814,3.7965,3.7437,3.6885,3.6455,3.6405,3.6405,3.6405,3.6405,3.6405,3.6405,3.6405,3.6405,3.6405,3.6405,3.6355,3.6132,3.5353,3.465,3.4073,3.3119,3.2491,3.219,3.1813,3.1336,3.0834,3.0683,3.0407,3.0005,2.9854,2.9779,2.9779,2.9779,2.9854,3.0005,3.0382,3.0482,3.0181,3.0156,3.0331,3.0733,3.0507,3.0633,3.1235,3.116,3.1135,3.1486,3.1436,3.1838,3.2817,3.3068,3.3136,3.3136,3.3136,3.3136,3.3136,3.3136,3.3219,3.3646,3.3721,3.3897,3.4374,3.4525,3.463,3.4881,3.4756,3.4906,3.5307,3.5031,3.5152,3.5705,3.6081,3.6225,3.6276,3.6898,3.7579,3.7832,3.9333,4.0591,4.1347,4.2397,4.3021,4.317,4.329,4.329,4.329,4.329,4.3329,4.3409,4.3448,4.3369,4.3488,4.4243,4.53,4.4115,4.2587,4.2507,4.1767,4.0676,4.0049,3.9747,3.9697,3.9697,3.9697,3.9697,3.9697,3.9697,3.9697,3.9697,3.9647,3.9597,3.9622,3.9597,3.9546,3.9044,3.8517,3.8015,3.7462,3.691,3.648,3.6405,3.6405,3.6405,3.6405,3.6405,3.6405,3.6405,3.6405,3.6405,3.6405,3.6132,3.5583,3.5483,3.5157,3.4605,3.4048,3.3269,3.224,3.2164,3.1888,3.1336,3.0859,3.0608,3.0507,3.008,2.9804,2.9804,2.9804,3.003,3.0507,3.0608,3.0783,3.1185,3.1235,3.1235,3.1336,3.1687,3.1738,3.1486,3.1788,3.2064,3.2064,3.1687,3.1913,3.2918,3.3136,3.3136,3.3136,3.3136,3.3136,3.3136,3.3136,3.3136,3.3162,3.3219,3.337,3.3872,3.3972,3.4349,3.4981,3.4751,3.468,3.5157,3.4856,3.4675,3.4951,3.5278,3.5533,3.5604,3.5629,3.6223,3.7075,3.7537,3.8765,4.0351,4.1443,4.2029,4.2683,4.329,4.329,4.329,4.329,4.329,4.329,4.329,4.329,4.3409,4.4043,4.5079,4.3161,4.2213,4.2213,4.153,4.0501,3.9923,3.9697,3.9697,3.9697,3.9697,3.9697,3.9697,3.9697,3.9697,3.9697,3.9697,3.9697,3.9697,3.9697,3.9647,3.917,3.8743,3.8442,3.7588,3.7061,3.6857,3.6556,3.6405,3.6405,3.6405,3.6405,3.6405,3.6405,3.6405,3.6405,3.6405,3.6304,3.6031,3.6031,3.578,3.5182,3.463,3.4022,3.3319,3.3219,3.2767,3.1964,3.1662,3.1411,3.1085,3.0834,3.0733,3.0733,3.0733,3.0834,3.106,3.1085,3.1311,3.1838,3.1587,3.1537,3.1863,3.1763,3.1863,3.2315,3.1989,3.1989,3.2541,3.2215,3.2215,3.2986,3.3136,3.3136,3.3136,3.3136,3.3136,3.3136,3.3136,3.3136,3.3136,3.3136,3.3187,3.3345,3.342,3.3596,3.4022,3.3872,3.4048,3.4449,3.4098,3.4098,3.4525,3.4675,3.468,3.4931,3.5006,3.5325,3.5724,3.641,3.7607,3.8328,4.0303,4.1326,4.1789,4.2623,4.318,4.329,4.329,4.329,4.329,4.329,4.329,4.329,4.3645,4.409,4.2389,4.1785,4.1609,4.1028,4.0275,3.9873,3.9697,3.9697,3.9697,3.9697,3.9697,3.9697,3.9697,3.9697,3.9697,3.9697,3.9697,3.9697,3.9697,3.9647,3.927,3.8994,3.8567,3.7839,3.7236,3.6935,3.6581,3.648,3.6606,3.6631,3.6707,3.6807,3.6707,3.6631,3.6631,3.6505,3.6405,3.6405,3.6405,3.6157,3.5734,3.5378,3.4851,3.4198,3.4123,3.3671,3.2742,3.2516,3.219,3.1637,3.1461,3.1386,3.1386,3.1386,3.1461,3.1612,3.1763,3.2014,3.2416,3.2064,3.2014,3.2365,3.2064,3.219,3.2742,3.2315,3.224,3.291,3.2692,3.2641,3.2993,3.3136,3.3136,3.3136,3.3136,3.3136,3.3136,3.3136,3.3136,3.3136,3.3136,3.3136,3.3136,3.3162,3.3194,3.3395,3.3269,3.3294,3.3696,3.352,3.342,3.4123,3.3922,3.4022,3.455,3.4731,3.468,3.4861,3.555,3.6079,3.6401,3.8629,4.0474,4.0937,4.2063,4.2921,4.325,4.329,4.323,4.323,4.317,4.314,4.326,4.3329,4.3329,4.1555,4.0601,4.0023,3.9848,3.9747,3.9722,3.9697,3.9697,3.9697,3.9697,3.9697,3.9697,3.9697,3.9697,3.9697,3.9697,3.9697,3.9697,3.9697,3.9697,3.9647,3.9069,3.809,3.7965,3.7462,3.6782,3.6631,3.6709,3.7136,3.7136,3.7412,3.7839,3.7362,3.7111,3.7036,3.6681,3.6405,3.6405,3.6405,3.6405,3.6355,3.6329,3.573,3.4851,3.4655,3.4399,3.3822,3.3319,3.2767,3.2215,3.1738,3.1436,3.1436,3.1436,3.1687,3.2164,3.2667,3.3011,3.3036,3.2986,3.2986,3.3036,3.2918,3.3036,3.3086,3.2986,3.296,3.3111,3.3061,3.3061,3.3111,3.3136,3.3136,3.3136,3.3136,3.3136,3.3136,3.3136,3.3136,3.3136,3.3136,3.3136,3.3136,3.3136,3.3294,3.352,3.337,3.3244,3.3596,3.3395,3.3262,3.3262,3.3338,3.3495,3.4449,3.4474,3.4525,3.4544,3.4616,3.5086,3.6095,3.7267,3.8655,4.0009,4.0941,4.1913,4.2892,4.323,4.314,4.306,4.2761,4.2731,4.324,4.329,4.329,4.1505,4.0475,3.9923,3.9697,3.9697,3.9697,3.9697,3.9697,3.9697,3.9697,3.9697,3.9697,3.9697,3.9697,3.9697,3.9697,3.9697,3.9697,3.9697,3.9697,3.9697,3.9471,3.9094,3.8743,3.8391,3.799,3.7588,3.7513,3.7613,3.7362,3.7462,3.7839,3.7462,3.7186,3.7161,3.6985,3.6757,3.6455,3.6405,3.6405,3.6405,3.6405,3.6204,3.578,3.5429,3.4931,3.4449,3.3897,3.3495,3.3294,3.2767,3.2508,3.2466,3.2466,3.2541,3.2767,3.2968,3.3136,3.3136,3.3136,3.3136,3.3136,3.3136,3.3136,3.3136,3.3136,3.3136,3.3136,3.3136,3.3136,3.3136,3.3136,3.3136,3.3136,3.3136,3.3136,3.3136,3.3136,3.3136,3.3136,3.3136,3.3136,3.3136,3.3136,3.3212,3.3363,3.3194,3.3237,3.3269,3.3169,3.3136,3.3136,3.3136,3.3363,3.4022,3.3847,3.3671,3.3646,3.3708,3.382,3.4494,3.5686,3.7049,3.7785,3.9046,4.0469,4.1309,4.2028,4.2127,4.2701,4.244,4.2551,4.317,4.326,4.329,4.0927,4.0249,3.9848,3.9697,3.9697,3.9697,3.9697,3.9697,3.9697,3.9697,3.9697,3.9697,3.9697,3.9697,3.9697,3.9697,3.9697,3.9697,3.9697,3.9697,3.9697,3.9597,3.9396,3.9044,3.8818,3.8542,3.8216,3.809,3.8241,3.7914,3.8015,3.8492,3.799,3.7613,3.7462,3.7287,3.6958,3.6505,3.6405,3.6405,3.6405,3.6405,3.6405,3.6355,3.6006,3.5508,3.4956,3.4625,3.4324,3.4148,3.3796,3.352,3.337,3.3345,3.3269,3.3162,3.3111,3.3136,3.3136,3.3136,3.3136,3.3136,3.3136,3.3136,3.3136,3.3136,3.3136,3.3136,3.3136,3.3136,3.3136,3.3136,3.3136,3.3136,3.3136,3.3136,3.3136,3.3136,3.3136,3.3136,3.3136,3.3136,3.3136,3.3136,3.3136,3.3136,3.3136,3.3136,3.3136,3.3136,3.3136,3.3136,3.3136,3.3262,3.3545,3.342,3.352,3.3545,3.352,3.3319,3.3341,3.4427,3.5257,3.5854,3.6974,3.8524,3.9737,4.0507,4.1275,4.2094,4.2201,4.2162,4.2761,4.329,4.329,3.9747,3.9747,3.9697,3.9697,3.9697,3.9697,3.9697,3.9697,3.9697,3.9697,3.9697,3.9697,3.9697,3.9697,3.9697,3.9697,3.9697,3.9697,3.9697,3.9697,3.9697,3.9446,3.907,3.8994,3.8718,3.8291,3.809,3.8366,3.8843,3.8818,3.8994,3.9421,3.8919,3.8341,3.7965,3.7437,3.6958,3.6531,3.6405,3.6405,3.6405,3.6405,3.6405,3.6405,3.6355,3.6056,3.5508,3.5433,3.5132,3.4776,3.4605,3.4449,3.3972,3.3897,3.3671,3.3294,3.3212,3.3187,3.3187,3.3212,3.3212,3.3212,3.3162,3.3136,3.3136,3.3136,3.3136,3.3136,3.3136,3.3136,3.3136,3.3136,3.3136,3.3136,3.3136,3.3136,3.3136,3.3136,3.3136,3.3136,3.3136,3.3136,3.3136,3.3136,3.3136,3.3136,3.3136,3.3136,3.3136,3.3136,3.3136,3.3136,3.3136,3.3212,3.3187,3.3162,3.3445,3.3671,3.3646,3.352,3.3269,3.3913,3.4341,3.494,3.5663,3.7236,3.8964,3.9777,4.0745,4.1449,4.1517,4.1953,4.2761,4.329,4.329,3.9697,3.9697,3.9697,3.9697,3.9697,3.9697,3.9697,3.9697,3.9697,3.9697,3.9697,3.9697,3.9697,3.9697,3.9697,3.9697,3.9697,3.9697,3.9697,3.9697,3.9697,3.9597,3.9471,3.9421,3.9346,3.9195,3.917,3.9245,3.932,3.912,3.9145,3.9421,3.8768,3.8216,3.8015,3.7462,3.691,3.648,3.6405,3.6405,3.6405,3.6405,3.6405,3.6405,3.6405,3.6304,3.6107,3.5708,3.5433,3.5232,3.4881,3.4605,3.4455,3.4474,3.4399,3.4248,3.4223,3.4198,3.4173,3.3847,3.3646,3.3571,3.3319,3.3136,3.3136,3.3136,3.3136,3.3136,3.3136,3.3136,3.3136,3.3136,3.3136,3.3136,3.3136,3.3136,3.3136,3.3136,3.3136,3.3136,3.3136,3.3136,3.3136,3.3136,3.3136,3.3136,3.3136,3.3136,3.3136,3.3136,3.3136,3.3136,3.3136,3.3136,3.3136,3.3136,3.3287,3.342,3.3445,3.3495,3.3294,3.3262,3.369,3.4153,3.4878,3.6033,3.7777,3.8995,3.99,4.0926,4.1376,4.2102,4.2991,4.329,4.329,3.9873,3.9697,3.9697,3.9697,3.9697,3.9697,3.9697,3.9697,3.9697,3.9697,3.9697,3.9697,3.9823,3.9973,3.9998,3.9998,3.9998,3.9998,3.9873,3.9722,3.9697,3.9697,3.9697,3.9697,3.9697,3.9697,3.9697,3.9697,3.9672,3.9371,3.9346,3.9496,3.8969,3.8542,3.8341,3.7965,3.7462,3.6857,3.6732,3.6606,3.6455,3.6405,3.6405,3.6405,3.6405,3.6405,3.638,3.6031,3.5855,3.5805,3.5504,3.5253,3.5031,3.4981,3.4906,3.4705,3.468,3.4655,3.4655,3.4374,3.4198,3.4123,3.3696,3.3395,3.3345,3.3287,3.3136,3.3136,3.3136,3.3136,3.3136,3.3136,3.3136,3.3136,3.3136,3.3136,3.3136,3.3136,3.3136,3.3136,3.3136,3.3136,3.3136,3.3136,3.3136,3.3136,3.3136,3.3136,3.3136,3.3136,3.3136,3.3136,3.3136,3.3136,3.3136,3.3136,3.3136,3.3162,3.3212,3.3237,3.3187,3.3162,3.3409,3.3709,3.4296,3.5396,3.6951,3.7777,3.8647,3.9791,4.1129,4.1923,4.2641,4.314,4.326,4.0249,3.9772,3.9747,3.9747,3.9697,3.9697,3.9697,3.9697,3.9697,3.9697,3.9697,3.9697,3.9973,4.04,4.035,4.035,4.0551,4.045,4.0275,3.9973,3.9848,3.9798,3.9697,3.9697,3.9697,3.9697,3.9697,3.9697,3.9697,3.9647,3.9697,3.9672,3.9496,3.9346,3.8869,3.8869,3.814,3.7362,3.7161,3.6933,3.6531,3.643,3.6405,3.6405,3.6405,3.6405,3.6405,3.6355,3.6355,3.6405,3.6279,3.6006,3.5633,3.5533,3.5307,3.5002,3.4806,3.4926,3.4876,3.4826,3.4776,3.4726,3.4274,3.3922,3.3796,3.347,3.3287,3.3262,3.3119,3.3162,3.3187,3.3136,3.3162,3.3187,3.3187,3.3136,3.3136,3.3136,3.3136,3.3136,3.3136,3.3136,3.3136,3.3136,3.3136,3.3136,3.3136,3.3136,3.3136,3.3136,3.3136,3.3136,3.3136,3.3136,3.3136,3.3136,3.3136,3.3136,3.3136,3.3136,3.3136,3.3136,3.3136,3.3411,3.3768,3.4897,3.5882,3.671,3.7997,3.9492,4.0588,4.1479,4.2192,4.2791,4.317,4.0802,4.03,4.03,4.0074,3.9722,3.9697,3.9697,3.9697,3.9722,3.9772,3.9722,3.9697,4.0074,4.045,4.0149,4.0325,4.0902,4.0727,4.0699,4.0827,4.0475,4.0074,3.9772,3.9697,3.9697,3.9697,3.9697,3.9697,3.9697,3.9697,3.9697,3.9672,3.932,3.912,3.8843,3.8517,3.8115,3.7764,3.7362,3.7161,3.696,3.6606,3.6405,3.6405,3.6405,3.6405,3.6405,3.6405,3.6405,3.6405,3.6405,3.6355,3.6132,3.6107,3.6006,3.5881,3.5881,3.5906,3.583,3.5529,3.5307,3.5232,3.4781,3.4324,3.3922,3.3771,3.3696,3.3621,3.337,3.3269,3.352,3.3345,3.3319,3.3571,3.337,3.3162,3.3162,3.3136,3.3136,3.3136,3.3136,3.3136,3.3136,3.3136,3.3136,3.3136,3.3162,3.3136,3.3136,3.3212,3.3262,3.3162,3.3136,3.3136,3.3136,3.3136,3.3136,3.3136,3.3136,3.3136,3.3136,3.3136,3.3136,3.3197,3.3326,3.4137,3.4993,3.5842,3.7444,3.8937,3.9955,4.0791,4.1855,4.262,4.291,4.1229,4.0551,4.0777,4.04,3.9798,4.0174,4.0249,4.0124,4.03,4.0375,4.0375,4.0375,4.0701,4.1128,4.0902,4.1078,4.158,4.1354,4.1279,4.1175,4.0949,4.045,3.9873,3.9697,3.9697,3.9697,3.9697,3.9697,3.9697,3.9697,3.9697,3.9647,3.9371,3.922,3.9245,3.8919,3.8567,3.8366,3.8015,3.7838,3.7513,3.7033,3.6807,3.6707,3.6556,3.6405,3.6405,3.6405,3.6405,3.6405,3.6405,3.6405,3.6405,3.6405,3.6405,3.6405,3.6405,3.6405,3.6355,3.6031,3.5906,3.578,3.5378,3.4977,3.4625,3.4399,3.4248,3.4198,3.3721,3.3746,3.4048,3.3947,3.3947,3.4123,3.3771,3.3445,3.342,3.3488,3.3338,3.3212,3.3136,3.3136,3.3136,3.3136,3.3136,3.3187,3.3345,3.3244,3.3187,3.3312,3.3338,3.3187,3.3136,3.3136,3.3136,3.3136,3.3136,3.3136,3.3136,3.3136,3.3136,3.3136,3.3136,3.3136,3.3136,3.3411,3.4345,3.5305,3.6417,3.7784,3.8946,4.0111,4.1198,4.1735,4.2169,4.163,4.0727,4.1175,4.0827,4.0124,4.0902,4.0949,4.0752,4.0974,4.1175,4.1175,4.125,4.148,4.2213,4.1756,4.2112,4.2263,4.2112,4.1806,4.158,4.1354,4.0902,3.9948,3.9898,3.9798,3.9722,3.9697,3.9697,3.9697,3.9697,3.9697,3.9672,3.9672,3.9672,3.9597,3.9597,3.9396,3.9019,3.8768,3.8492,3.8065,3.7563,3.7287,3.7211,3.6807,3.6531,3.6455,3.6405,3.631,3.6168,3.631,3.6405,3.6405,3.6405,3.6405,3.6405,3.6405,3.6405,3.6405,3.6355,3.6355,3.6254,3.5855,3.5533,3.5332,3.4981,3.4776,3.458,3.4198,3.4098,3.4399,3.4555,3.4731,3.4776,3.4399,3.4223,3.4048,3.3922,3.3646,3.3287,3.3187,3.3136,3.3212,3.3212,3.3237,3.3445,3.3596,3.3596,3.347,3.3445,3.3345,3.3162,3.3136,3.3136,3.3136,3.3136,3.3136,3.3136,3.3136,3.3136,3.3136,3.3136,3.3136,3.3136,3.3136,3.3411,3.3995,3.4924,3.5776,3.6496,3.7561,3.9074,4.0411,4.0567,4.0855,4.2464,4.1861,4.1986,4.1605,4.1078,4.1175,4.1225,4.1125,4.125,4.1376,4.13,4.13,4.1681,4.2213,4.1882,4.1957,4.269,4.2439,4.2137,4.2087,4.2037,4.1354,4.0473,4.0245,3.9994,3.9771,3.9697,3.9697,3.9697,3.9697,3.9697,3.9697,3.9542,3.9697,3.9594,3.9362,3.9647,3.9446,3.9069,3.8818,3.8642,3.8016,3.7592,3.7468,3.7067,3.6762,3.6505,3.6405,3.5906,3.5379,3.5667,3.6073,3.6121,3.6168,3.6121,3.6096,3.6216,3.6263,3.6358,3.6216,3.6358,3.6238,3.616,3.6006,3.5533,3.5433,3.5107,3.4731,3.4223,3.4123,3.4299,3.4881,3.5232,3.5332,3.5504,3.5504,3.5102,3.4073,3.3571,3.3545,3.3363,3.3287,3.3621,3.3596,3.3646,3.3771,3.3872,3.3972,3.3847,3.3696,3.347,3.3262,3.3136,3.3136,3.3136,3.3136,3.3136,3.3136,3.3136,3.3136,3.3136,3.3136,3.3136,3.3136,3.3136,3.3471,3.3784,3.422,3.5006,3.5602,3.6246,3.7573,3.8683,3.9057,3.9788,4.2715,4.2263,4.2489,4.2082,4.1451,4.1856,4.1957,4.1806,4.2007,4.2108,4.2108,4.2108,4.2283,4.2564,4.2258,4.2484,4.2785,4.271,4.2615,4.2368,4.1929,4.1373,4.0844,3.9672,3.8881,3.9434,3.9697,3.9697,3.9697,3.9645,3.9697,3.9594,3.9025,3.8635,3.8477,3.8084,3.7979,3.8481,3.8442,3.8529,3.8992,3.801,3.6684,3.6084,3.5723,3.5587,3.6063,3.5183,3.4914,3.472,3.4602,3.4508,3.4508,3.4484,3.4484,3.4484,3.4484,3.4484,3.4484,3.5066,3.5427,3.5571,3.6001,3.616,3.6006,3.5931,3.583,3.5454,3.5077,3.47,3.4726,3.5378,3.5855,3.5906,3.5931,3.5956,3.5705,3.47,3.3796,3.3822,3.342,3.347,3.3646,3.3822,3.4048,3.4148,3.4349,3.4399,3.4073,3.3897,3.3671,3.342,3.3237,3.3136,3.3136,3.3136,3.3136,3.3136,3.3136,3.3136,3.3136,3.3136,3.3136,3.3136,3.3136,3.3136,3.3428,3.3869,3.4262,3.4924,3.5615,3.6361,3.7126,3.7991,3.881,4.2766,4.2389,4.2785,4.2434,4.1752,4.2559,4.2685,4.2439,4.2816,4.2836,4.2961,4.2986,4.2861,4.2936,4.2911,4.2961,4.2961,4.2961,4.283,4.2164,4.1208,4.0717,4.0161,3.8465,3.7548,3.8967,3.8712,3.8816,3.9077,3.9077,3.8477,3.8635,3.782,3.721,3.6865,3.6108,3.6108,3.7026,3.7163,3.7512,3.8275,3.7159,3.5683,3.4509,3.4208,3.4491,3.4876,3.4262,3.3646,3.4489,3.3085,3.2199,3.1885,3.2252,3.228,3.2381,3.2632,3.2982,3.3403,3.3773,3.4215,3.4532,3.5379,3.6168,3.626,3.6329,3.6157,3.6006,3.5655,3.5332,3.5508,3.5956,3.6304,3.6304,3.5906,3.5931,3.6031,3.5403,3.455,3.4073,3.3571,3.3395,3.3721,3.3972,3.4274,3.455,3.4751,3.4776,3.4449,3.4148,3.3947,3.3571,3.3338,3.3136,3.3136,3.3136,3.3136,3.3136,3.3136,3.3136,3.3136,3.3136,3.3136,3.3136,3.3136,3.3136,3.3136,3.3368,3.3827,3.4345,3.4643,3.5073,3.5972,3.7014,3.7585,4.2992,4.2861,4.2992,4.2861,4.2735,4.2911,4.2911,4.2861,4.2911,4.2986,4.2986,4.2986,4.2986,4.2986,4.2986,4.2986,4.2849,4.2513,4.2012,4.1133,4.0313,3.974,3.8171,3.6981,3.6466,3.6031,3.6122,3.6681,3.7364,3.6703,3.6805,3.6177,3.5881,3.5717,3.5685,3.5343,3.5068,3.5563,3.5672,3.5945,3.6171,3.5808,3.5016,3.392,3.3768,3.3915,3.3869,3.3659,3.3149,3.2298,3.1859,3.093,3.0405,3.1288,3.1986,3.1949,3.1942,3.219,3.2996,3.2951,3.4019,3.5162,3.5235,3.5331,3.5906,3.6238,3.5804,3.5765,3.5637,3.5533,3.5508,3.6056,3.6355,3.638,3.6329,3.6254,3.6153,3.5504,3.4801,3.455,3.3897,3.342,3.3897,3.4349,3.47,3.5052,3.5353,3.5177,3.4756,3.455,3.4324,3.3872,3.3438,3.3262,3.3136,3.3136,3.3136,3.3136,3.3136,3.3136,3.3136,3.3136,3.3136,3.3136,3.3136,3.3136,3.3136,3.3136,3.3283,3.3725,3.3717,3.3692,3.4606,3.5509,3.5617,4.2986,4.2986,4.2986,4.2986,4.2986,4.2986,4.2986,4.2986,4.2986,4.2986,4.2986,4.2986,4.2986,4.2986,4.2986,4.2625,4.1842,4.0765,4.0105,3.9288,3.8453,3.8199,3.6832,3.5736,3.5765,3.5504,3.492,3.4801,3.6489,3.6352,3.5758,3.5702,3.5097,3.4493,3.4181,3.343,3.3685,3.3923,3.4202,3.4592,3.5013,3.4626,3.3695,3.2882,3.2742,3.2839,3.32,3.2167,3.1994,3.1842,3.1127,3.0153,2.9879,3.0093,3.0758,3.0496,3.0538,3.08,3.1633,3.1395,3.2325,3.3197,3.3338,3.3624,3.4044,3.4216,3.4558,3.5014,3.5769,3.5956,3.6006,3.6279,3.638,3.6405,3.6405,3.6405,3.6229,3.5579,3.5253,3.4956,3.4299,3.4022,3.4399,3.4801,3.5177,3.5529,3.5881,3.5604,3.5082,3.468,3.4424,3.3897,3.3438,3.3262,3.3136,3.3136,3.3136,3.3136,3.3136,3.3136,3.3136,3.3136,3.3136,3.3136,3.3136,3.3136,3.3136,3.3136,3.3136,3.3136,3.329,3.3409,3.355,3.3815,3.4198,4.2986,4.2986,4.2986,4.2986,4.2986,4.2986,4.2986,4.2986,4.2986,4.2986,4.2986,4.2986,4.2986,4.2986,4.2793,4.215,4.0592,3.9347,3.8698,3.7544,3.6699,3.6535,3.5858,3.49,3.3943,3.491,3.3998,3.3432,3.5157,3.5273,3.5548,3.4975,3.3905,3.3372,3.3097,3.2369,3.2165,3.235,3.2825,3.3487,3.3832,3.3247,3.215,3.1073,3.0898,3.1574,3.2215,3.1442,3.1224,3.1349,3.083,2.988,2.9783,2.9744,2.9391,2.8769,2.8887,2.9055,2.9527,2.9931,3.0874,3.1957,3.1929,3.2082,3.2431,3.2883,3.3082,3.4264,3.5138,3.6046,3.6163,3.6405,3.6405,3.6405,3.6405,3.638,3.6254,3.5881,3.5483,3.5082,3.4575,3.46,3.4906,3.5056,3.5429,3.5655,3.5981,3.5683,3.5182,3.4625,3.4223,3.3746,3.3413,3.3212,3.3136,3.3136,3.3136,3.3136,3.3136,3.3136,3.3136,3.3136,3.3136,3.3136,3.3136,3.3136,3.3136,3.3136,3.3136,3.3136,3.3136,3.3187,3.3338,3.3445,3.3746,4.2986,4.2986,4.2986,4.2986,4.2986,4.2986,4.2986,4.2986,4.2986,4.2986,4.2986,4.2986,4.2986,4.2793,4.2737,4.1899,4.065,3.9522,3.8022,3.6234,3.5683,3.4862,3.3858,3.3203,3.2942,3.37,3.3129,3.3437,3.4212,3.3636,3.3035,3.2975,3.3015,3.2433,3.2594,3.2135,3.1936,3.1781,3.1762,3.1701,3.1616,3.1441,3.117,3.1015,3.0957,3.1054,3.1383,3.0936,3.1012,3.1032,3.0954,3.0508,3.0215,3.0117,2.9883,2.9626,2.9561,2.9709,2.9876,2.9769,3.0166,3.1148,3.1408,3.1633,3.1673,3.2095,3.2723,3.4239,3.4678,3.5162,3.5953,3.6358,3.6405,3.6405,3.6405,3.6405,3.6329,3.6107,3.578,3.5633,3.5278,3.5278,3.5433,3.5508,3.5583,3.5855,3.5956,3.5683,3.5332,3.4801,3.3997,3.352,3.3338,3.3187,3.3136,3.3136,3.3136,3.3136,3.3136,3.3136,3.3136,3.3136,3.3136,3.3136,3.3136,3.3136,3.3136,3.3136,3.3136,3.3136,3.3136,3.3136,3.3136,3.3312,3.3463,4.3263,4.2986,4.2986,4.2986,4.2986,4.2986,4.2986,4.2986,4.2986,4.2986,4.2986,4.2986,4.2544,4.1728,4.0789,3.9347,3.7963,3.7183,3.5928,3.484,3.4405,3.397,3.3454,3.3144,3.2988,3.2969,3.309,3.3273,3.349,3.3327,3.2871,3.2812,3.2637,3.2642,3.248,3.2285,3.209,3.1916,3.1641,3.1309,3.0996,3.0898,3.0898,3.0898,3.0898,3.0898,3.0898,3.0898,3.0898,3.0898,3.0898,3.082,3.0644,3.0566,3.0391,3.0,3.0195,3.0283,3.0198,2.9829,3.0233,3.0289,3.024,2.9888,3.0234,3.1059,3.1576,3.1971,3.3575,3.4581,3.5259,3.5978,3.631,3.6358,3.6216,3.6263,3.6238,3.6232,3.6056,3.6031,3.5934,3.5837,3.5694,3.5697,3.565,3.5796,3.6038,3.5981,3.5604,3.5127,3.4198,3.3287,3.3187,3.3136,3.3136,3.3136,3.3136,3.3136,3.3136,3.3136,3.3136,3.3136,3.3136,3.3136,3.3136,3.3136,3.3136,3.3136,3.3136,3.3136,3.3136,3.3136,3.3136,3.3136,3.3388,4.3363,4.3011,4.3263,4.3388,4.3388,4.3388,4.3313,4.3187,4.3212,4.3112,4.2874,4.2544,4.1647,4.0476,3.9111,3.7664,3.5907,3.455,3.3776,3.3544,3.3418,3.3461,3.3359,3.3379,3.3457,3.3594,3.3555,3.376,3.3755,3.3613,3.3496,3.3418,3.3086,3.2969,3.2871,3.2695,3.2461,3.209,3.1719,3.1309,3.0976,3.0898,3.0898,3.0898,3.0898,3.0898,3.0898,3.0898,3.0898,3.0898,3.0898,3.0879,3.084,3.0801,3.0703,3.0469,3.0644,3.0683,3.0464,3.0213,2.998,2.9629,2.9355,2.9337,2.9273,3.0032,3.0724,3.082,3.1942,3.3178,3.4068,3.5066,3.5571,3.5667,3.5715,3.5858,3.5858,3.5568,3.5471,3.5519,3.5519,3.5854,3.5734,3.5736,3.5761,3.5808,3.5974,3.6063,3.5562,3.4965,3.4329,3.3345,3.3162,3.3136,3.3136,3.3136,3.3136,3.3136,3.3136,3.3136,3.3136,3.3136,3.3136,3.3136,3.3136,3.3136,3.3136,3.3136,3.3136,3.3136,3.3136,3.3136,3.3136,3.3162,3.3363,4.3011,4.3062,4.4066,4.4443,4.4418,4.4493,4.4166,4.374,4.374,4.3463,4.2918,4.1533,4.0822,4.0047,3.8639,3.7084,3.5683,3.5622,3.455,3.3713,3.3418,3.3457,3.3476,3.3535,3.3691,3.3926,3.4004,3.4238,3.4394,3.4121,3.3828,3.3457,3.334,3.3359,3.3301,3.3144,3.2773,3.2344,3.1894,3.1465,3.1133,3.0976,3.0937,3.0918,3.0918,3.0898,3.0898,3.0898,3.0898,3.0898,3.0898,3.0898,3.0898,3.0898,3.0801,3.0801,3.0801,3.082,3.0703,3.0449,3.0019,2.9726,2.957,2.959,2.9626,2.9235,2.9707,3.0586,3.1239,3.16,3.2572,3.3552,3.441,3.4508,3.4508,3.4508,3.4508,3.4508,3.4484,3.4775,3.4872,3.4896,3.48,3.4557,3.4508,3.4533,3.4727,3.4798,3.4675,3.4198,3.407,3.3577,3.3244,3.3162,3.3136,3.3136,3.3136,3.3136,3.3136,3.3136,3.3136,3.3136,3.3136,3.3136,3.3136,3.3136,3.3136,3.3136,3.3136,3.3136,3.3162,3.3319,3.3413,3.3438,3.3646,4.3689,4.4016,4.4468,4.4443,4.4116,4.4116,4.4192,4.4292,4.4292,4.3991,4.3382,4.1532,4.0071,3.8935,3.7424,3.5806,3.4487,3.432,3.3902,3.3769,3.3633,3.3633,3.3672,3.3848,3.4199,3.418,3.4316,3.4492,3.4609,3.4531,3.4219,3.3887,3.3652,3.3437,3.3418,3.3398,3.3047,3.2695,3.2363,3.209,3.1719,3.1387,3.1269,3.1269,3.0957,3.0918,3.0898,3.0898,3.0898,3.0898,3.0898,3.0898,3.0898,3.0898,3.0898,3.0898,3.0898,3.0898,3.0898,3.0684,3.043,3.0078,2.9961,2.9941,3.0,2.9687,2.9698,3.0158,3.0508,3.0958,3.146,3.2431,3.3105,3.3105,3.3105,3.3105,3.3105,3.3105,3.3155,3.3254,3.3304,3.333,3.3254,3.3105,3.3105,3.3132,3.3345,3.3598,3.3715,3.3759,3.3716,3.3765,3.352,3.3287,3.3237,3.3187,3.3136,3.3068,3.3068,3.3025,3.2982,3.3093,3.3093,3.3093,3.3136,3.3136,3.3136,3.3136,3.3162,3.3237,3.347,3.3771,3.3771,3.3721,3.4073,4.3966,4.4568,4.4443,4.4468,4.4518,4.4367,4.4518,4.4794,4.4669,4.4192,4.3369,4.1167,3.9462,3.797,3.5949,3.4674,3.3773,3.3662,3.3579,3.3613,3.3769,3.3769,3.3809,3.4004,3.4316,3.4336,3.4687,3.4961,3.5176,3.498,3.4766,3.4453,3.4023,3.3789,3.3418,3.3398,3.3203,3.2891,3.2773,3.2598,3.2148,3.1738,3.1504,3.1426,3.1094,3.0918,3.0898,3.0898,3.0898,3.0898,3.0898,3.0898,3.0898,3.0898,3.0898,3.0898,3.0898,3.0898,3.0898,3.0859,3.0742,3.0469,3.041,3.0254,3.0117,3.0117,3.0035,2.9934,3.0328,3.0545,3.057,3.1303,3.1775,3.1783,3.1746,3.1746,3.1724,3.1724,3.1724,3.1724,3.1977,3.2381,3.1542,3.144,3.1847,3.1825,3.1939,3.2708,3.3815,3.381,3.3701,3.3761,3.3796,3.3545,3.3388,3.3262,3.3093,3.2853,3.2853,3.2785,3.281,3.2853,3.2982,3.3136,3.3136,3.3136,3.3169,3.3294,3.3345,3.337,3.3771,3.4274,3.4274,3.4299,3.4625,4.3664,4.446,4.4091,4.4769,4.5949,4.5648,4.5363,4.5051,4.441,4.3656,4.2512,4.0114,3.8627,3.7456,3.5087,3.3895,3.374,3.3867,3.3906,3.3789,3.4101,3.3887,3.3867,3.4101,3.4668,3.4785,3.5137,3.5547,3.5859,3.5527,3.5332,3.5098,3.4648,3.416,3.3496,3.3437,3.3203,3.2871,3.2851,3.2637,3.2344,3.1934,3.1758,3.1543,3.1211,3.1035,3.0898,3.0898,3.0898,3.0898,3.0898,3.0898,3.0898,3.0898,3.0898,3.0898,3.0898,3.0898,3.0898,3.0898,3.084,3.0781,3.0723,3.0703,3.0684,3.0527,3.0273,3.0233,3.0086,2.9672,2.9779,3.0112,3.0526,3.0664,3.0601,3.058,3.0622,3.0475,3.0496,3.0475,3.1278,3.1724,3.0484,2.9775,3.038,3.0618,3.0669,3.1563,3.2958,3.348,3.3196,3.3598,3.3667,3.3463,3.3214,3.3201,3.305,3.2766,3.2525,3.2326,3.2196,3.204,3.2326,3.281,3.2891,3.2728,3.3115,3.3502,3.3847,3.4198,3.4424,3.4705,3.4705,3.4806,3.5107,4.394,4.4593,4.4418,4.5095,4.615,4.5723,4.5112,4.4038,4.2347,4.1331,4.0638,3.8148,3.7007,3.6226,3.5141,3.3848,3.3945,3.4277,3.4336,3.4336,3.4668,3.4609,3.4551,3.4785,3.5195,3.5293,3.5586,3.5801,3.5996,3.5762,3.5586,3.5371,3.5019,3.4414,3.4004,3.3809,3.3652,3.3301,3.3203,3.3125,3.2949,3.2559,3.2207,3.1953,3.1523,3.1172,3.0937,3.0937,3.0898,3.0898,3.0898,3.0898,3.0898,3.0898,3.0898,3.0898,3.0898,3.0898,3.0898,3.0898,3.0898,3.0898,3.0898,3.0898,3.084,3.0781,3.0684,3.0566,3.0234,2.9922,3.0086,2.9862,3.0028,2.9933,2.9893,2.9893,2.9853,2.9553,2.9413,2.9313,2.9778,2.9889,2.9112,2.8953,2.9408,2.9513,2.9513,2.986,3.1055,3.195,3.2216,3.3026,3.3325,3.3195,3.297,3.2612,3.2191,3.1809,3.1673,3.1601,3.1444,3.1205,3.1118,3.1258,3.1827,3.2333,3.2914,3.3572,3.457,3.5082,3.5157,3.5207,3.5232,3.5332,3.5554,4.3871,4.4082,4.4661,4.5067,4.5377,4.546,4.4752,4.3327,4.1708,4.0779,3.9659,3.7545,3.6603,3.6266,3.516,3.4297,3.4336,3.4746,3.4746,3.4805,3.5176,3.498,3.5039,3.541,3.543,3.5527,3.5644,3.584,3.5996,3.5859,3.5742,3.5586,3.5293,3.5,3.4648,3.4394,3.3965,3.3633,3.3457,3.3535,3.3301,3.2988,3.2637,3.2285,3.1855,3.1387,3.1152,3.0996,3.0898,3.0898,3.0898,3.0898,3.0898,3.0898,3.0898,3.0898,3.0898,3.0898,3.0898,3.0898,3.0898,3.0898,3.0898,3.0898,3.0898,3.0859,3.0859,3.0762,3.0566,3.0371,3.0176,2.9863,2.9841,2.9783,2.9665,2.9702,2.9603,2.9364,2.9015,2.8863,2.8628,2.8418,2.8301,2.8354,2.8601,2.8495,2.8388,2.889,2.9497,3.0493,3.1439,3.2199,3.2605,3.237,3.204,3.1661,3.1268,3.0809,3.0603,3.0466,3.0445,3.0215,2.9984,2.9959,3.0812,3.1739,3.2766,3.3615,3.449,3.5226,3.568,3.573,3.5759,3.5881,3.5931,4.3428,4.3203,4.4674,4.4609,4.3921,4.4645,4.4183,4.2711,4.2926,4.1519,3.917,3.7932,3.7035,3.6635,3.5361,3.4792,3.4824,3.5215,3.5156,3.5059,3.5371,3.5137,3.5137,3.5332,3.5547,3.5508,3.5508,3.5703,3.5937,3.5801,3.5781,3.5898,3.584,3.5527,3.5176,3.4922,3.4355,3.3906,3.3887,3.3809,3.3457,3.3164,3.293,3.2598,3.2129,3.1699,3.1406,3.1191,3.0996,3.0918,3.0898,3.0898,3.0898,3.0898,3.0898,3.0898,3.0898,3.0898,3.0898,3.0898,3.0898,3.0898,3.0898,3.0898,3.0898,3.0898,3.0898,3.0898,3.0762,3.0547,3.0312,3.0215,3.0098,3.0017,2.9861,2.9802,2.9724,2.9489,2.9121,2.8867,2.8535,2.8359,2.8301,2.8301,2.8301,2.8301,2.8354,2.8668,2.9277,2.9953,3.086,3.1351,3.1604,3.1375,3.1112,3.085,3.0482,3.0135,2.9277,2.8976,2.9059,2.9288,2.9115,2.9315,3.0215,3.1176,3.2385,3.3387,3.4242,3.5006,3.5912,3.5906,3.5855,3.6107,3.6279,4.2688,4.2848,4.2584,4.2213,4.1988,4.2292,4.1402,3.9801,3.8502,3.7287,3.6968,3.6047,3.5962,3.5818,3.5395,3.5262,3.5351,3.5566,3.5703,3.5723,3.5684,3.5703,3.5703,3.5723,3.582,3.5703,3.5625,3.5586,3.5918,3.582,3.582,3.5996,3.6035,3.5762,3.5605,3.5547,3.4805,3.4316,3.4375,3.4043,3.375,3.3555,3.3281,3.2851,3.2559,3.2109,3.1621,3.1445,3.123,3.0937,3.0918,3.0898,3.0898,3.0898,3.0898,3.0898,3.0898,3.0898,3.0898,3.0898,3.0898,3.0898,3.0898,3.0898,3.0898,3.0898,3.0898,3.0898,3.0898,3.0703,3.0625,3.0547,3.0488,3.0391,3.0273,3.0254,3.0137,2.9766,2.9453,2.9023,2.8691,2.834,2.8301,2.8301,2.8301,2.8301,2.8388,2.8654,2.8953,2.9618,2.9922,3.0419,3.0687,3.0521,3.0432,3.0236,2.9818,2.9327,2.8488,2.798,2.8313,2.8467,2.8271,2.857,2.9281,3.0656,3.2216,3.3125,3.3957,3.5324,3.6279,3.6056,3.5981,3.6207,3.6405,4.1783,4.0989,4.1171,4.086,4.0213,4.0148,3.919,3.758,3.689,3.6502,3.5937,3.5555,3.5371,3.5673,3.5644,3.5644,3.5664,3.584,3.5957,3.5957,3.6035,3.5976,3.6016,3.6016,3.5859,3.5742,3.5605,3.5508,3.5781,3.5976,3.6016,3.6016,3.6035,3.5879,3.5781,3.5762,3.5469,3.5019,3.4707,3.4394,3.4141,3.3926,3.3555,3.3184,3.2949,3.2402,3.1894,3.1777,3.1484,3.1074,3.0996,3.1035,3.0976,3.0898,3.0898,3.0898,3.0898,3.0898,3.0898,3.0898,3.0898,3.0898,3.0898,3.0898,3.0898,3.0898,3.0898,3.0898,3.0898,3.0879,3.0879,3.0879,3.0879,3.0859,3.0859,3.0859,3.0547,3.0176,2.9726,2.9258,2.8848,2.8437,2.8301,2.8301,2.8301,2.8301,2.8301,2.8388,2.8548,2.8847,2.891,2.9064,2.9446,2.9631,2.9606,2.9467,2.909,2.8519,2.779,2.747,2.7708,2.7699,2.7572,2.7834,2.8307,2.9989,3.1911,3.276,3.3679,3.521,3.6405,3.6279,3.6157,3.6232,3.6332,4.0716,3.814,3.9973,3.9693,3.8552,3.842,3.7508,3.6287,3.7467,3.7441,3.6132,3.5996,3.5937,3.5937,3.5937,3.5937,3.5937,3.5996,3.6035,3.6035,3.6035,3.6035,3.6035,3.6016,3.5898,3.5605,3.543,3.5449,3.5527,3.5781,3.6035,3.6035,3.6035,3.5957,3.5957,3.5976,3.5742,3.5488,3.5254,3.5019,3.4375,3.4082,3.3926,3.3496,3.3105,3.2676,3.2344,3.209,3.1836,3.1445,3.125,3.1367,3.1133,3.0898,3.0898,3.0898,3.0898,3.0898,3.0898,3.0898,3.0898,3.0898,3.0898,3.0898,3.0898,3.0898,3.0898,3.0898,3.0898,3.0898,3.0898,3.0898,3.0898,3.0898,3.0898,3.0898,3.0742,3.0273,2.9707,2.9258,2.8828,2.8457,2.8301,2.8301,2.8301,2.8301,2.8301,2.8301,2.8374,2.8514,2.8449,2.8246,2.86,2.8955,2.8677,2.8537,2.8277,2.7668,2.7235,2.7148,2.7591,2.7329,2.6887,2.755,2.8324,2.987,3.1469,3.2381,3.365,3.5499,3.6405,3.6405,3.6405,3.638,3.6332,3.8808,3.8319,3.7601,3.6991,3.6674,3.6606,3.6471,3.6016,3.6403,3.6471,3.6016,3.6035,3.6035,3.6035,3.6035,3.6035,3.6035,3.6035,3.6035,3.6035,3.6035,3.6035,3.6035,3.6016,3.5918,3.5801,3.5625,3.541,3.5547,3.582,3.6035,3.6035,3.6035,3.6035,3.6035,3.6035,3.5937,3.5781,3.5742,3.5371,3.4687,3.4492,3.4336,3.3906,3.3476,3.3027,3.2754,3.2598,3.2324,3.2012,3.1973,3.1777,3.1406,3.1074,3.0918,3.0898,3.0898,3.0898,3.0898,3.0898,3.0898,3.0898,3.0898,3.0898,3.0898,3.0898,3.0898,3.0898,3.0898,3.0898,3.0898,3.0898,3.0898,3.0898,3.0898,3.0898,3.0879,3.0312,2.9687,2.9238,2.8809,2.8574,2.8398,2.8301,2.8301,2.8301,2.8301,2.832,2.8359,2.8486,2.8545,2.8368,2.829,2.8396,2.8105,2.8047,2.8008,2.8008,2.78,2.765,2.748,2.7363,2.7266,2.7773,2.8628,2.9859,3.103,3.2028,3.3552,3.5403,3.6405,3.6405,3.6405,3.6405,3.6405,3.7674,3.7354,3.6403,3.6035,3.6035,3.6035,3.6035,3.6035,3.6035,3.6035,3.6035,3.6035,3.6035,3.6035,3.6035,3.6016,3.6016,3.6035,3.6035,3.6035,3.6035,3.6035,3.6035,3.6016,3.582,3.5723,3.5566,3.5469,3.5664,3.584,3.6035,3.6035,3.6035,3.6035,3.6035,3.6035,3.6035,3.6016,3.6035,3.5625,3.498,3.4785,3.4492,3.4082,3.3652,3.3223,3.3027,3.2891,3.2676,3.2344,3.2148,3.1894,3.1562,3.1309,3.1094,3.0957,3.0898,3.0898,3.0898,3.0898,3.0898,3.0898,3.0898,3.0898,3.0898,3.0898,3.0898,3.0898,3.0898,3.0898,3.0898,3.0898,3.0898,3.0898,3.0898,3.0898,3.0762,3.041,2.9863,2.9414,2.9043,2.8789,2.8594,2.8359,2.8398,2.8633,2.8594,2.8574,2.8594,2.8613,2.8613,2.8574,2.8516,2.8359,2.8223,2.8203,2.8223,2.8223,2.8184,2.7773,2.7422,2.763,2.7806,2.8008,2.8449,2.9303,3.0411,3.152,3.3005,3.4727,3.5715,3.6405,3.6405,3.643,3.6455,3.6968,3.6064,3.6016,3.6035,3.6035,3.6035,3.6035,3.6035,3.6035,3.6035,3.6035,3.6035,3.6035,3.6016,3.5957,3.5976,3.5957,3.5859,3.5898,3.6016,3.6035,3.6035,3.6035,3.6016,3.584,3.5703,3.5586,3.5742,3.5957,3.6035,3.6035,3.6035,3.6035,3.6035,3.6035,3.6035,3.6035,3.6035,3.5976,3.5781,3.5371,3.4941,3.4512,3.4082,3.3652,3.3242,3.3105,3.3047,3.291,3.2676,3.2344,3.2051,3.1758,3.1523,3.1191,3.1016,3.0898,3.0898,3.0898,3.0898,3.0898,3.0898,3.0898,3.0898,3.0898,3.0898,3.0898,3.0898,3.0898,3.0898,3.0898,3.0898,3.0898,3.0898,3.0898,3.082,3.0625,3.0488,3.0098,2.9648,2.9355,2.9101,2.8867,2.8613,2.8691,2.8906,2.9004,2.9004,2.9004,2.9023,2.9043,2.8945,2.8828,2.8633,2.8379,2.832,2.834,2.8262,2.8144,2.7676,2.7422,2.7734,2.791,2.7891,2.8417,2.9104,2.9964,3.1081,3.2605,3.4117,3.4921,3.5715,3.6405,3.643,3.6505,3.5961,3.6035,3.6035,3.6035,3.6035,3.6035,3.6035,3.6035,3.6035,3.6035,3.6035,3.6035,3.6016,3.5996,3.5644,3.5664,3.5976,3.5801,3.584,3.5976,3.6016,3.6035,3.6035,3.6016,3.5976,3.5898,3.584,3.5957,3.6035,3.6035,3.6035,3.6035,3.6035,3.6035,3.6035,3.6035,3.6035,3.6035,3.5976,3.582,3.5391,3.4941,3.4512,3.4082,3.3652,3.3437,3.334,3.3379,3.332,3.3144,3.2832,3.2461,3.2129,3.1797,3.1445,3.1113,3.0996,3.0937,3.0937,3.0898,3.0898,3.0898,3.0898,3.0898,3.0898,3.0898,3.0898,3.0898,3.0898,3.0898,3.0898,3.0898,3.0898,3.0898,3.0898,3.0684,3.0469,3.0527,3.043,3.0078,2.9785,2.959,2.9414,2.9333,2.9238,2.9414,2.9434,2.9434,2.9453,2.9453,2.9492,2.9336,2.918,2.8769,2.8457,2.8398,2.8379,2.8301,2.8203,2.7949,2.7891,2.8066,2.8164,2.8086,2.8318,2.8827,2.9755,3.0514,3.205,3.3403,3.4117,3.4921,3.581,3.6455,3.6556]}]]